Darstellungsparameter: Aktuell verwendete Einstellungen:
Skalierung der Graphiken ... ?
xyx+y,   Skalierungsfaktor:      Skalierung: Modus: x, Faktor: 1
Darstellungszeitraum ... ?
Vom - - bis: - -   Zeitraum: 31.08.2020 - 30.09.2020
Min/Max/Avg-Anzeige ... ?
Zeige MMA aktuell
Zeige MMA Monat
Zeige MMA alles
Zeige --A aktuell
Zeige --A Monat
Zeige --A alles
Keine MMA-Anzeige
MMA:
Minimum Maximum Average (ber die Originaldaten)
MMA-Basis: 31.08.2020 - 30.09.2020
Quicknavigation für Darstellung... ?
Tage:      1T, 2T, 3T, 5T -1T -2T -3T -5T +1T +2T +3T +5T
Wochen: 1W, 2W, 3W -1W -2W -3W +1W +2W +3W
Monate: 1M, 3M, 6M -1M -3M -6M +1M +3M +6M
Jahre:    1J, 3J, 5J, 10J -1J -3J -5J -10J +1J +3J +5J +10J
Nutze für die Darstellung ... ?
Originaldaten oder Mittelwerte auf ...
Stundenbasis Tagesbasis Wochenbasis
Monatsbasis Jahresbasis      Datenbasis: Original-Daten
Darstellen als:
Statistik (Auto) Statistik J:M      Darstellung:
Zur Graphik,    zurück zur Übersicht aller Sensoren.
 
Tabellarische Datenbersicht: ?
 
Sensor: Nr:Datum:Temp:Abs-Feuchte:Windchill:Wind:
Aussen-T/F 1 31-08-2020 00:00:00 16.4 C 11.31 g/m*3 16.4 C 0 km/h
2 31-08-2020 00:05:00 16.3 C 11.24 g/m*3 16.3 C 0 km/h
3 31-08-2020 00:10:00 16.2 C 11.17 g/m*3 16.2 C 0 km/h
4 31-08-2020 00:15:00 16.2 C 11.31 g/m*3 16.2 C 0 km/h
5 31-08-2020 00:20:00 16.1 C 11.24 g/m*3 16.1 C 0 km/h
6 31-08-2020 00:25:00 16.1 C 11.24 g/m*3 16.1 C 0 km/h
7 31-08-2020 00:30:00 16.1 C 11.24 g/m*3 16.1 C 0 km/h
8 31-08-2020 00:35:00 16 C 11.17 g/m*3 16 C 0 km/h
9 31-08-2020 00:40:00 15.9 C 11.24 g/m*3 15.9 C 0 km/h
10 31-08-2020 00:45:00 15.9 C 11.24 g/m*3 15.9 C 0 km/h
11 31-08-2020 00:50:00 15.8 C 11.17 g/m*3 15.8 C 0 km/h
12 31-08-2020 00:55:00 15.8 C 11.17 g/m*3 15.8 C 0 km/h
13 31-08-2020 01:00:00 15.7 C 11.24 g/m*3 15.7 C 0 km/h
14 31-08-2020 01:05:00 15.7 C 11.24 g/m*3 15.7 C 0 km/h
15 31-08-2020 01:10:00 15.7 C 11.37 g/m*3 15.7 C 0 km/h
16 31-08-2020 01:15:00 15.7 C 11.37 g/m*3 15.7 C 0 km/h
17 31-08-2020 01:20:00 15.7 C 11.37 g/m*3 15.7 C 0 km/h
18 31-08-2020 01:25:00 15.7 C 11.37 g/m*3 15.7 C 0 km/h
19 31-08-2020 01:30:00 15.7 C 11.51 g/m*3 15.7 C 0 km/h
20 31-08-2020 01:35:00 15.8 C 11.44 g/m*3 15.8 C 0 km/h
21 31-08-2020 01:40:00 15.8 C 11.44 g/m*3 15.8 C 0 km/h
22 31-08-2020 01:45:00 15.7 C 11.37 g/m*3 15.7 C 0 km/h
23 31-08-2020 01:50:00 15.7 C 11.37 g/m*3 15.7 C 0 km/h
24 31-08-2020 01:55:00 15.6 C 11.3 g/m*3 15.6 C 0 km/h
25 31-08-2020 02:00:00 15.6 C 11.3 g/m*3 15.6 C 0 km/h
Sensor: Nr:Datum:Temp:Abs-Feuchte:Windchill:Wind:
Aussen-T/F 26 31-08-2020 02:05:00 15.4 C 11.17 g/m*3 15.4 C 0 km/h
27 31-08-2020 02:10:00 15.4 C 11.3 g/m*3 15.4 C 0 km/h
28 31-08-2020 02:15:00 15.4 C 11.3 g/m*3 15.4 C 0 km/h
29 31-08-2020 02:20:00 15.4 C 11.3 g/m*3 15.4 C 0 km/h
30 31-08-2020 02:25:00 15.4 C 11.43 g/m*3 15.4 C 0 km/h
31 31-08-2020 02:30:00 15.4 C 11.43 g/m*3 15.4 C 0 km/h
32 31-08-2020 02:35:00 15.4 C 11.43 g/m*3 15.4 C 0 km/h
33 31-08-2020 02:40:00 15.5 C 11.5 g/m*3 15.5 C 0 km/h
34 31-08-2020 02:45:00 15.5 C 11.5 g/m*3 15.5 C 0 km/h
35 31-08-2020 02:50:00 15.6 C 11.57 g/m*3 15.6 C 0 km/h
36 31-08-2020 02:55:00 15.6 C 11.57 g/m*3 15.6 C 0 km/h
37 31-08-2020 03:00:00 15.5 C 11.37 g/m*3 15.5 C 0 km/h
38 31-08-2020 03:05:00 15.4 C 11.3 g/m*3 15.4 C 0 km/h
39 31-08-2020 03:10:00 15.3 C 11.23 g/m*3 15.3 C 0 km/h
40 31-08-2020 03:15:00 15.2 C 11.03 g/m*3 15.2 C 0 km/h
41 31-08-2020 03:20:00 15 C 10.9 g/m*3 15 C 0 km/h
42 31-08-2020 03:25:00 14.8 C 10.89 g/m*3 14.8 C 0 km/h
43 31-08-2020 03:30:00 14.5 C 10.7 g/m*3 14.5 C 0 km/h
44 31-08-2020 03:35:00 14.3 C 10.57 g/m*3 14.3 C 0 km/h
45 31-08-2020 03:40:00 14.2 C 10.62 g/m*3 14.2 C 0 km/h
46 31-08-2020 03:45:00 14 C 10.61 g/m*3 14 C 0 km/h
47 31-08-2020 03:50:00 13.9 C 10.55 g/m*3 13.9 C 0 km/h
48 31-08-2020 03:55:00 13.8 C 10.48 g/m*3 13.8 C 0 km/h
49 31-08-2020 04:00:00 13.8 C 10.6 g/m*3 13.8 C 0 km/h
50 31-08-2020 04:05:00 13.8 C 10.6 g/m*3 13.8 C 0 km/h
Sensor: Nr:Datum:Temp:Abs-Feuchte:Windchill:Wind:
Aussen-T/F 51 31-08-2020 04:10:00 13.8 C 10.72 g/m*3 13.8 C 0 km/h
52 31-08-2020 04:15:00 13.8 C 10.72 g/m*3 13.8 C 0 km/h
53 31-08-2020 04:20:00 13.8 C 10.72 g/m*3 13.8 C 0 km/h
54 31-08-2020 04:25:00 13.8 C 10.72 g/m*3 13.8 C 0 km/h
55 31-08-2020 04:30:00 13.8 C 10.72 g/m*3 13.8 C 0 km/h
56 31-08-2020 04:35:00 13.7 C 10.54 g/m*3 13.7 C 0 km/h
57 31-08-2020 04:40:00 13.7 C 10.54 g/m*3 13.7 C 0 km/h
58 31-08-2020 04:45:00 13.6 C 10.47 g/m*3 13.6 C 0 km/h
59 31-08-2020 04:50:00 13.6 C 10.59 g/m*3 13.6 C 0 km/h
60 31-08-2020 04:55:00 13.5 C 10.53 g/m*3 13.5 C 0 km/h
61 31-08-2020 05:00:00 13.4 C 10.46 g/m*3 13.4 C 0 km/h
62 31-08-2020 05:05:00 13.4 C 10.46 g/m*3 13.4 C 0 km/h
63 31-08-2020 05:10:00 13.3 C 10.4 g/m*3 13.3 C 0 km/h
64 31-08-2020 05:15:00 13.2 C 10.33 g/m*3 13.2 C 0 km/h
65 31-08-2020 05:20:00 13.2 C 10.33 g/m*3 13.2 C 0 km/h
66 31-08-2020 05:25:00 13.1 C 10.38 g/m*3 13.1 C 0 km/h
67 31-08-2020 05:30:00 13.2 C 10.45 g/m*3 13.2 C 0 km/h
68 31-08-2020 05:35:00 13.1 C 10.38 g/m*3 13.1 C 0 km/h
69 31-08-2020 05:40:00 13.1 C 10.38 g/m*3 13.1 C 0 km/h
70 31-08-2020 05:45:00 13.1 C 10.38 g/m*3 13.1 C 0 km/h
71 31-08-2020 05:50:00 12.9 C 10.26 g/m*3 12.9 C 0 km/h
72 31-08-2020 05:55:00 12.9 C 10.26 g/m*3 12.9 C 3.2 km/h
73 31-08-2020 06:00:00 12.9 C 10.37 g/m*3 12.9 C 3.2 km/h
74 31-08-2020 06:05:00 12.8 C 10.3 g/m*3 12.8 C 1.6 km/h
75 31-08-2020 06:10:00 12.8 C 10.3 g/m*3 12.8 C 0 km/h
Sensor: Nr:Datum:Temp:Abs-Feuchte:Windchill:Wind:
Aussen-T/F 76 31-08-2020 06:15:00 12.8 C 10.3 g/m*3 12.8 C 0 km/h
77 31-08-2020 06:20:00 12.7 C 10.24 g/m*3 12.7 C 0 km/h
78 31-08-2020 06:25:00 12.6 C 10.18 g/m*3 12.6 C 0 km/h
79 31-08-2020 06:30:00 12.6 C 10.18 g/m*3 12.6 C 0 km/h
80 31-08-2020 06:35:00 12.6 C 10.18 g/m*3 12.6 C 0 km/h
81 31-08-2020 06:40:00 12.6 C 10.29 g/m*3 12.6 C 0 km/h
82 31-08-2020 06:45:00 12.7 C 10.35 g/m*3 12.7 C 0 km/h
83 31-08-2020 06:50:00 12.7 C 10.35 g/m*3 12.7 C 0 km/h
84 31-08-2020 06:55:00 12.7 C 10.35 g/m*3 12.7 C 0 km/h
85 31-08-2020 07:00:00 12.8 C 10.42 g/m*3 12.8 C 0 km/h
86 31-08-2020 07:05:00 12.8 C 10.42 g/m*3 12.8 C 0 km/h
87 31-08-2020 07:10:00 12.9 C 10.48 g/m*3 12.9 C 0 km/h
88 31-08-2020 07:15:00 13 C 10.66 g/m*3 13 C 0 km/h
89 31-08-2020 07:20:00 13.1 C 10.73 g/m*3 13.1 C 0 km/h
90 31-08-2020 07:25:00 13.2 C 10.79 g/m*3 13.2 C 0 km/h
91 31-08-2020 07:30:00 13.3 C 10.74 g/m*3 13.3 C 0 km/h
92 31-08-2020 07:35:00 13.3 C 10.86 g/m*3 13.3 C 0 km/h
93 31-08-2020 07:40:00 13.4 C 10.81 g/m*3 13.4 C 0 km/h
94 31-08-2020 07:45:00 13.4 C 10.81 g/m*3 13.4 C 0 km/h
95 31-08-2020 07:50:00 13.5 C 10.88 g/m*3 13.5 C 0 km/h
96 31-08-2020 07:55:00 13.6 C 10.95 g/m*3 13.6 C 0 km/h
97 31-08-2020 08:00:00 13.7 C 11.01 g/m*3 13.7 C 0 km/h
98 31-08-2020 08:05:00 13.8 C 11.08 g/m*3 13.8 C 0 km/h
99 31-08-2020 08:10:00 13.8 C 11.08 g/m*3 13.8 C 0 km/h
100 31-08-2020 08:15:00 13.9 C 11.15 g/m*3 13.9 C 0 km/h
Sensor: Nr:Datum:Temp:Abs-Feuchte:Windchill:Wind:
Aussen-T/F 101 31-08-2020 08:20:00 14 C 11.22 g/m*3 14 C 0 km/h
102 31-08-2020 08:25:00 14.1 C 11.17 g/m*3 14.1 C 0 km/h
103 31-08-2020 08:30:00 14.3 C 11.3 g/m*3 14.3 C 0 km/h
104 31-08-2020 08:35:00 14.4 C 11.37 g/m*3 14.4 C 0 km/h
105 31-08-2020 08:40:00 14.5 C 11.44 g/m*3 14.5 C 0 km/h
106 31-08-2020 08:45:00 14.7 C 11.46 g/m*3 14.7 C 0 km/h
107 31-08-2020 08:50:00 14.8 C 11.4 g/m*3 14.8 C 0 km/h
108 31-08-2020 08:55:00 14.9 C 11.47 g/m*3 14.9 C 0 km/h
109 31-08-2020 09:00:00 15 C 11.54 g/m*3 15 C 0 km/h
110 31-08-2020 09:05:00 15.1 C 11.48 g/m*3 15.1 C 0 km/h
111 31-08-2020 09:10:00 15.2 C 11.55 g/m*3 15.2 C 0 km/h
112 31-08-2020 09:15:00 15.3 C 11.62 g/m*3 15.3 C 0 km/h
113 31-08-2020 09:20:00 15.4 C 11.69 g/m*3 15.4 C 0 km/h
114 31-08-2020 09:25:00 15.4 C 11.69 g/m*3 15.4 C 0 km/h
115 31-08-2020 09:30:00 15.6 C 11.84 g/m*3 15.6 C 0 km/h
116 31-08-2020 09:35:00 15.7 C 11.77 g/m*3 15.7 C 0 km/h
117 31-08-2020 09:40:00 15.8 C 11.85 g/m*3 15.8 C 1.6 km/h
118 31-08-2020 09:45:00 15.9 C 11.92 g/m*3 15.9 C 1.6 km/h
119 31-08-2020 09:50:00 16 C 11.99 g/m*3 16 C 0 km/h
120 31-08-2020 09:55:00 16.2 C 12 g/m*3 16.2 C 1.6 km/h
121 31-08-2020 10:00:00 16.2 C 12 g/m*3 16.2 C 3.2 km/h
122 31-08-2020 10:05:00 16.3 C 12.07 g/m*3 16.3 C 0 km/h
123 31-08-2020 10:10:00 16.4 C 12 g/m*3 16.4 C 0 km/h
124 31-08-2020 10:15:00 16.4 C 12 g/m*3 16.4 C 3.2 km/h
125 31-08-2020 10:20:00 16.5 C 12.08 g/m*3 16.5 C 0 km/h
Sensor: Nr:Datum:Temp:Abs-Feuchte:Windchill:Wind:
Aussen-T/F 126 31-08-2020 10:25:00 16.6 C 12.15 g/m*3 16.6 C 1.6 km/h
127 31-08-2020 10:30:00 16.6 C 12.01 g/m*3 16.6 C 9.7 km/h
128 31-08-2020 10:35:00 16.7 C 12.08 g/m*3 16.7 C 9.7 km/h
129 31-08-2020 10:40:00 16.8 C 12.01 g/m*3 16.8 C 6.4 km/h
130 31-08-2020 10:45:00 16.8 C 12.01 g/m*3 16.8 C 9.7 km/h
131 31-08-2020 10:50:00 16.9 C 12.08 g/m*3 16.9 C 6.4 km/h
132 31-08-2020 10:55:00 17 C 12.01 g/m*3 17 C 6.4 km/h
133 31-08-2020 11:00:00 17.1 C 12.08 g/m*3 17.1 C 6.4 km/h
134 31-08-2020 11:05:00 17.2 C 12.01 g/m*3 17.2 C 6.4 km/h
135 31-08-2020 11:10:00 17.3 C 12.08 g/m*3 17.3 C 4.8 km/h
136 31-08-2020 11:15:00 17.4 C 12 g/m*3 17.4 C 9.7 km/h
137 31-08-2020 11:20:00 17.4 C 12.15 g/m*3 17.4 C 6.4 km/h
138 31-08-2020 11:25:00 17.6 C 12 g/m*3 17.6 C 4.8 km/h
139 31-08-2020 11:30:00 17.7 C 12.07 g/m*3 17.7 C 9.7 km/h
140 31-08-2020 11:35:00 17.7 C 12.07 g/m*3 17.7 C 4.8 km/h
141 31-08-2020 11:40:00 17.9 C 12.06 g/m*3 17.9 C 6.4 km/h
142 31-08-2020 11:45:00 18.1 C 12.36 g/m*3 18.1 C 4.8 km/h
143 31-08-2020 11:50:00 18.4 C 12.58 g/m*3 18.4 C 3.2 km/h
144 31-08-2020 11:55:00 18.7 C 12.49 g/m*3 18.7 C 9.7 km/h
145 31-08-2020 12:00:00 18.8 C 12.56 g/m*3 18.8 C 4.8 km/h
146 31-08-2020 12:05:00 18.9 C 12.8 g/m*3 18.9 C 6.4 km/h
147 31-08-2020 12:10:00 18.9 C 12.64 g/m*3 18.9 C 6.4 km/h
148 31-08-2020 12:15:00 18.9 C 12.8 g/m*3 18.9 C 9.7 km/h
149 31-08-2020 12:20:00 18.8 C 12.56 g/m*3 18.8 C 8.1 km/h
150 31-08-2020 12:25:00 18.8 C 12.56 g/m*3 18.8 C 8.1 km/h
Sensor: Nr:Datum:Temp:Abs-Feuchte:Windchill:Wind:
Aussen-T/F 151 31-08-2020 12:30:00 18.8 C 12.56 g/m*3 18.8 C 4.8 km/h
152 31-08-2020 12:35:00 19 C 12.71 g/m*3 19 C 6.4 km/h
153 31-08-2020 12:40:00 19.2 C 12.7 g/m*3 19.2 C 8.1 km/h
154 31-08-2020 12:45:00 19.2 C 12.53 g/m*3 19.2 C 9.7 km/h
155 31-08-2020 12:50:00 19.1 C 12.46 g/m*3 19.1 C 4.8 km/h
156 31-08-2020 12:55:00 19.1 C 12.46 g/m*3 19.1 C 6.4 km/h
157 31-08-2020 13:00:00 19.1 C 12.62 g/m*3 19.1 C 6.4 km/h
158 31-08-2020 13:05:00 19.3 C 12.77 g/m*3 19.3 C 6.4 km/h
159 31-08-2020 13:10:00 19.4 C 12.68 g/m*3 19.4 C 4.8 km/h
160 31-08-2020 13:15:00 19.6 C 12.83 g/m*3 19.6 C 4.8 km/h
161 31-08-2020 13:20:00 19.7 C 12.91 g/m*3 19.7 C 6.4 km/h
162 31-08-2020 13:25:00 19.7 C 12.74 g/m*3 19.7 C 8.1 km/h
163 31-08-2020 13:30:00 19.7 C 12.57 g/m*3 19.7 C 11.3 km/h
164 31-08-2020 13:35:00 19.7 C 12.57 g/m*3 19.7 C 6.4 km/h
165 31-08-2020 13:40:00 19.6 C 12.66 g/m*3 19.6 C 6.4 km/h
166 31-08-2020 13:45:00 19.6 C 12.66 g/m*3 19.6 C 6.4 km/h
167 31-08-2020 13:50:00 19.6 C 12.66 g/m*3 19.6 C 8.1 km/h
168 31-08-2020 13:55:00 19.6 C 12.49 g/m*3 19.6 C 4.8 km/h
169 31-08-2020 14:00:00 19.6 C 12.66 g/m*3 19.6 C 4.8 km/h
170 31-08-2020 14:05:00 19.7 C 12.74 g/m*3 19.7 C 11.3 km/h
171 31-08-2020 14:10:00 19.7 C 12.74 g/m*3 19.7 C 11.3 km/h
172 31-08-2020 14:15:00 19.4 C 12.35 g/m*3 19.4 C 14.5 km/h
173 31-08-2020 14:20:00 19.1 C 12.62 g/m*3 19.1 C 14.5 km/h
174 31-08-2020 14:25:00 18.6 C 13.05 g/m*3 18.6 C 8.1 km/h
175 31-08-2020 14:30:00 18.2 C 13.06 g/m*3 18.2 C 4.8 km/h
Sensor: Nr:Datum:Temp:Abs-Feuchte:Windchill:Wind:
Aussen-T/F 176 31-08-2020 14:35:00 17.9 C 12.98 g/m*3 17.9 C 1.6 km/h
177 31-08-2020 14:40:00 17.6 C 13.05 g/m*3 17.6 C 6.4 km/h
178 31-08-2020 14:45:00 17.2 C 12.89 g/m*3 17.2 C 4.8 km/h
179 31-08-2020 14:50:00 16.9 C 12.8 g/m*3 16.9 C 4.8 km/h
180 31-08-2020 14:55:00 16.7 C 12.65 g/m*3 16.7 C 4.8 km/h
181 31-08-2020 15:00:00 16.6 C 12.71 g/m*3 16.6 C 3.2 km/h
182 31-08-2020 15:05:00 16.4 C 12.56 g/m*3 16.4 C 1.6 km/h
183 31-08-2020 15:10:00 16.3 C 12.62 g/m*3 16.3 C 3.2 km/h
184 31-08-2020 15:15:00 16.2 C 12.55 g/m*3 16.2 C 1.6 km/h
185 31-08-2020 15:20:00 16.2 C 12.55 g/m*3 16.2 C 1.6 km/h
186 31-08-2020 15:25:00 16.3 C 12.76 g/m*3 16.3 C 0 km/h
187 31-08-2020 15:30:00 16.3 C 12.76 g/m*3 16.3 C 0 km/h
188 31-08-2020 15:35:00 16.3 C 12.9 g/m*3 16.3 C 1.6 km/h
189 31-08-2020 15:40:00 16.4 C 12.98 g/m*3 16.4 C 0 km/h
190 31-08-2020 15:45:00 16.4 C 12.84 g/m*3 16.4 C 1.6 km/h
191 31-08-2020 15:50:00 16.3 C 12.76 g/m*3 16.3 C 0 km/h
192 31-08-2020 15:55:00 16.5 C 13.06 g/m*3 16.5 C 0 km/h
193 31-08-2020 16:00:00 16.6 C 13.14 g/m*3 16.6 C 0 km/h
194 31-08-2020 16:05:00 16.6 C 13.14 g/m*3 16.6 C 0 km/h
195 31-08-2020 16:10:00 16.5 C 12.92 g/m*3 16.5 C 0 km/h
196 31-08-2020 16:15:00 16.6 C 13.14 g/m*3 16.6 C 0 km/h
197 31-08-2020 16:20:00 16.8 C 13.3 g/m*3 16.8 C 0 km/h
198 31-08-2020 16:25:00 16.9 C 13.38 g/m*3 16.9 C 0 km/h
199 31-08-2020 16:30:00 16.9 C 13.23 g/m*3 16.9 C 0 km/h
200 31-08-2020 16:35:00 16.8 C 13.15 g/m*3 16.8 C 0 km/h
Sensor: Nr:Datum:Temp:Abs-Feuchte:Windchill:Wind:
Aussen-T/F 201 31-08-2020 16:40:00 16.8 C 13.15 g/m*3 16.8 C 0 km/h
202 31-08-2020 16:45:00 16.8 C 13.15 g/m*3 16.8 C 0 km/h
203 31-08-2020 16:50:00 16.8 C 13.15 g/m*3 16.8 C 0 km/h
204 31-08-2020 16:55:00 16.8 C 13.15 g/m*3 16.8 C 0 km/h
205 31-08-2020 17:00:00 16.8 C 13.15 g/m*3 16.8 C 0 km/h
206 31-08-2020 17:05:00 16.7 C 13.07 g/m*3 16.7 C 0 km/h
207 31-08-2020 17:10:00 16.6 C 13 g/m*3 16.6 C 0 km/h
208 31-08-2020 17:15:00 16.5 C 12.92 g/m*3 16.5 C 0 km/h
209 31-08-2020 17:20:00 16.4 C 12.84 g/m*3 16.4 C 0 km/h
210 31-08-2020 17:25:00 16.3 C 12.76 g/m*3 16.3 C 0 km/h
211 31-08-2020 17:30:00 16.3 C 12.9 g/m*3 16.3 C 0 km/h
212 31-08-2020 17:35:00 16.2 C 12.82 g/m*3 16.2 C 0 km/h
213 31-08-2020 17:40:00 16.3 C 12.9 g/m*3 16.3 C 0 km/h
214 31-08-2020 17:45:00 16.3 C 12.9 g/m*3 16.3 C 1.6 km/h
215 31-08-2020 17:50:00 16.2 C 12.82 g/m*3 16.2 C 3.2 km/h
216 31-08-2020 17:55:00 16.2 C 12.82 g/m*3 16.2 C 0 km/h
217 31-08-2020 18:00:00 16.2 C 12.82 g/m*3 16.2 C 0 km/h
218 31-08-2020 18:05:00 16.1 C 12.88 g/m*3 16.1 C 0 km/h
219 31-08-2020 18:10:00 16.1 C 12.75 g/m*3 16.1 C 1.6 km/h
220 31-08-2020 18:15:00 16 C 12.81 g/m*3 16 C 0 km/h
221 31-08-2020 18:20:00 16 C 12.81 g/m*3 16 C 0 km/h
222 31-08-2020 18:25:00 16 C 12.81 g/m*3 16 C 1.6 km/h
223 31-08-2020 18:30:00 16 C 12.81 g/m*3 16 C 1.6 km/h
224 31-08-2020 18:35:00 16 C 12.81 g/m*3 16 C 1.6 km/h
225 31-08-2020 18:40:00 16 C 12.81 g/m*3 16 C 0 km/h
Sensor: Nr:Datum:Temp:Abs-Feuchte:Windchill:Wind:
Aussen-T/F 226 31-08-2020 18:45:00 16 C 12.67 g/m*3 16 C 1.6 km/h
227 31-08-2020 18:50:00 15.9 C 12.59 g/m*3 15.9 C 0 km/h
228 31-08-2020 18:55:00 16 C 12.81 g/m*3 16 C 0 km/h
229 31-08-2020 19:00:00 16 C 12.81 g/m*3 16 C 1.6 km/h
230 31-08-2020 19:05:00 16 C 12.81 g/m*3 16 C 0 km/h
231 31-08-2020 19:10:00 16 C 12.81 g/m*3 16 C 1.6 km/h
232 31-08-2020 19:15:00 15.9 C 12.73 g/m*3 15.9 C 4.8 km/h
233 31-08-2020 19:20:00 15.8 C 12.52 g/m*3 15.8 C 4.8 km/h
234 31-08-2020 19:25:00 15.7 C 12.44 g/m*3 15.7 C 3.2 km/h
235 31-08-2020 19:30:00 15.5 C 12.29 g/m*3 15.5 C 3.2 km/h
236 31-08-2020 19:35:00 15.4 C 12.22 g/m*3 15.4 C 0 km/h
237 31-08-2020 19:40:00 15.3 C 12.14 g/m*3 15.3 C 3.2 km/h
238 31-08-2020 19:45:00 15.2 C 12.2 g/m*3 15.2 C 3.2 km/h
239 31-08-2020 19:50:00 15.2 C 12.2 g/m*3 15.2 C 1.6 km/h
240 31-08-2020 19:55:00 15.2 C 12.2 g/m*3 15.2 C 0 km/h
241 31-08-2020 20:00:00 15.2 C 12.2 g/m*3 15.2 C 1.6 km/h
242 31-08-2020 20:05:00 15.2 C 12.2 g/m*3 15.2 C 3.2 km/h
243 31-08-2020 20:10:00 15.1 C 12.13 g/m*3 15.1 C 3.2 km/h
244 31-08-2020 20:15:00 15.1 C 12.13 g/m*3 15.1 C 1.6 km/h
245 31-08-2020 20:20:00 14.9 C 11.98 g/m*3 14.9 C 3.2 km/h
246 31-08-2020 20:25:00 14.9 C 11.98 g/m*3 14.9 C 3.2 km/h
247 31-08-2020 20:30:00 14.8 C 11.91 g/m*3 14.8 C 4.8 km/h
248 31-08-2020 20:35:00 14.8 C 11.91 g/m*3 14.8 C 1.6 km/h
249 31-08-2020 20:40:00 14.8 C 11.91 g/m*3 14.8 C 1.6 km/h
250 31-08-2020 20:45:00 14.8 C 11.91 g/m*3 14.8 C 0 km/h
Sensor: Nr:Datum:Temp:Abs-Feuchte:Windchill:Wind:
Aussen-T/F 251 31-08-2020 20:50:00 14.7 C 11.83 g/m*3 14.7 C 1.6 km/h
252 31-08-2020 20:55:00 14.7 C 11.96 g/m*3 14.7 C 0 km/h
253 31-08-2020 21:00:00 14.7 C 11.96 g/m*3 14.7 C 0 km/h
254 31-08-2020 21:05:00 14.7 C 11.96 g/m*3 14.7 C 0 km/h
255 31-08-2020 21:10:00 14.7 C 11.96 g/m*3 14.7 C 1.6 km/h
256 31-08-2020 21:15:00 14.7 C 11.96 g/m*3 14.7 C 0 km/h
257 31-08-2020 21:20:00 14.6 C 11.89 g/m*3 14.6 C 0 km/h
258 31-08-2020 21:25:00 14.6 C 11.89 g/m*3 14.6 C 0 km/h
259 31-08-2020 21:30:00 14.6 C 11.89 g/m*3 14.6 C 1.6 km/h
260 31-08-2020 21:35:00 14.5 C 11.82 g/m*3 14.5 C 0 km/h
261 31-08-2020 21:40:00 14.5 C 11.82 g/m*3 14.5 C 0 km/h
262 31-08-2020 21:45:00 14.4 C 11.74 g/m*3 14.4 C 0 km/h
263 31-08-2020 21:50:00 14.4 C 11.74 g/m*3 14.4 C 1.6 km/h
264 31-08-2020 21:55:00 14.4 C 11.74 g/m*3 14.4 C 3.2 km/h
265 31-08-2020 22:00:00 14.4 C 11.74 g/m*3 14.4 C 3.2 km/h
266 31-08-2020 22:05:00 14.5 C 11.82 g/m*3 14.5 C 0 km/h
267 31-08-2020 22:10:00 14.5 C 11.82 g/m*3 14.5 C 0 km/h
268 31-08-2020 22:15:00 14.6 C 11.89 g/m*3 14.6 C 0 km/h
269 31-08-2020 22:20:00 14.6 C 11.89 g/m*3 14.6 C 0 km/h
270 31-08-2020 22:25:00 14.6 C 11.89 g/m*3 14.6 C 0 km/h
271 31-08-2020 22:30:00 14.6 C 11.89 g/m*3 14.6 C 0 km/h
272 31-08-2020 22:35:00 14.5 C 11.82 g/m*3 14.5 C 0 km/h
273 31-08-2020 22:40:00 14.4 C 11.74 g/m*3 14.4 C 0 km/h
274 31-08-2020 22:45:00 14.4 C 11.87 g/m*3 14.4 C 1.6 km/h
275 31-08-2020 22:50:00 14.4 C 11.87 g/m*3 14.4 C 0 km/h
Sensor: Nr:Datum:Temp:Abs-Feuchte:Windchill:Wind:
Aussen-T/F 276 31-08-2020 22:55:00 14.4 C 11.87 g/m*3 14.4 C 0 km/h
277 31-08-2020 23:00:00 14.4 C 11.87 g/m*3 14.4 C 0 km/h
278 31-08-2020 23:05:00 14.5 C 11.94 g/m*3 14.5 C 0 km/h
279 31-08-2020 23:10:00 14.6 C 12.01 g/m*3 14.6 C 1.6 km/h
280 31-08-2020 23:15:00 14.6 C 12.01 g/m*3 14.6 C 0 km/h
281 31-08-2020 23:20:00 14.6 C 12.01 g/m*3 14.6 C 0 km/h
282 31-08-2020 23:25:00 14.5 C 11.94 g/m*3 14.5 C 0 km/h
283 31-08-2020 23:30:00 14.5 C 11.94 g/m*3 14.5 C 0 km/h
284 31-08-2020 23:35:00 14.4 C 11.87 g/m*3 14.4 C 0 km/h
285 31-08-2020 23:40:00 14.4 C 11.87 g/m*3 14.4 C 1.6 km/h
286 31-08-2020 23:45:00 14.4 C 11.87 g/m*3 14.4 C 1.6 km/h
287 31-08-2020 23:50:00 14.3 C 11.79 g/m*3 14.3 C 1.6 km/h
288 31-08-2020 23:55:00 14.3 C 11.79 g/m*3 14.3 C 0 km/h
289 01-09-2020 00:00:00 14.3 C 11.79 g/m*3 14.3 C 0 km/h
290 01-09-2020 00:05:00 14.2 C 11.72 g/m*3 14.2 C 0 km/h
291 01-09-2020 00:10:00 14.2 C 11.72 g/m*3 14.2 C 0 km/h
292 01-09-2020 00:15:00 14.2 C 11.72 g/m*3 14.2 C 0 km/h
293 01-09-2020 00:20:00 14.2 C 11.72 g/m*3 14.2 C 1.6 km/h
294 01-09-2020 00:25:00 14.1 C 11.65 g/m*3 14.1 C 1.6 km/h
295 01-09-2020 00:30:00 14.1 C 11.65 g/m*3 14.1 C 0 km/h
296 01-09-2020 00:35:00 14.1 C 11.65 g/m*3 14.1 C 0 km/h
297 01-09-2020 00:40:00 14.1 C 11.65 g/m*3 14.1 C 0 km/h
298 01-09-2020 00:45:00 14.1 C 11.65 g/m*3 14.1 C 0 km/h
299 01-09-2020 00:50:00 14.1 C 11.65 g/m*3 14.1 C 0 km/h
300 01-09-2020 00:55:00 14.1 C 11.65 g/m*3 14.1 C 0 km/h
Sensor: Nr:Datum:Temp:Abs-Feuchte:Windchill:Wind:
Aussen-T/F 301 01-09-2020 01:00:00 14.1 C 11.65 g/m*3 14.1 C 0 km/h
302 01-09-2020 01:05:00 14.1 C 11.65 g/m*3 14.1 C 0 km/h
303 01-09-2020 01:10:00 14.1 C 11.65 g/m*3 14.1 C 0 km/h
304 01-09-2020 01:15:00 14.1 C 11.65 g/m*3 14.1 C 0 km/h
305 01-09-2020 01:20:00 14.1 C 11.65 g/m*3 14.1 C 0 km/h
306 01-09-2020 01:25:00 14.1 C 11.65 g/m*3 14.1 C 0 km/h
307 01-09-2020 01:30:00 14.1 C 11.65 g/m*3 14.1 C 0 km/h
308 01-09-2020 01:35:00 14.1 C 11.65 g/m*3 14.1 C 0 km/h
309 01-09-2020 01:40:00 14.1 C 11.65 g/m*3 14.1 C 0 km/h
310 01-09-2020 01:45:00 14 C 11.58 g/m*3 14 C 0 km/h
311 01-09-2020 01:50:00 14 C 11.58 g/m*3 14 C 0 km/h
312 01-09-2020 01:55:00 13.9 C 11.51 g/m*3 13.9 C 0 km/h
313 01-09-2020 02:00:00 13.9 C 11.51 g/m*3 13.9 C 0 km/h
314 01-09-2020 02:05:00 13.9 C 11.51 g/m*3 13.9 C 0 km/h
315 01-09-2020 02:10:00 13.9 C 11.51 g/m*3 13.9 C 0 km/h
316 01-09-2020 02:15:00 13.9 C 11.51 g/m*3 13.9 C 0 km/h
317 01-09-2020 02:20:00 13.8 C 11.44 g/m*3 13.8 C 0 km/h
318 01-09-2020 02:25:00 13.8 C 11.44 g/m*3 13.8 C 1.6 km/h
319 01-09-2020 02:30:00 13.7 C 11.37 g/m*3 13.7 C 3.2 km/h
320 01-09-2020 02:35:00 13.6 C 11.3 g/m*3 13.6 C 0 km/h
321 01-09-2020 02:40:00 13.6 C 11.3 g/m*3 13.6 C 0 km/h
322 01-09-2020 02:45:00 13.4 C 11.16 g/m*3 13.4 C 0 km/h
323 01-09-2020 02:50:00 13.3 C 11.09 g/m*3 13.3 C 1.6 km/h
324 01-09-2020 02:55:00 13.2 C 11.02 g/m*3 13.2 C 1.6 km/h
325 01-09-2020 03:00:00 13.1 C 10.95 g/m*3 13.1 C 1.6 km/h
Sensor: Nr:Datum:Temp:Abs-Feuchte:Windchill:Wind:
Aussen-T/F 326 01-09-2020 03:05:00 13 C 10.89 g/m*3 13 C 3.2 km/h
327 01-09-2020 03:10:00 13 C 10.89 g/m*3 13 C 0 km/h
328 01-09-2020 03:15:00 13.1 C 10.95 g/m*3 13.1 C 1.6 km/h
329 01-09-2020 03:20:00 13.1 C 10.95 g/m*3 13.1 C 1.6 km/h
330 01-09-2020 03:25:00 13.1 C 10.95 g/m*3 13.1 C 3.2 km/h
331 01-09-2020 03:30:00 13.2 C 11.02 g/m*3 13.2 C 4.8 km/h
332 01-09-2020 03:35:00 13.2 C 11.02 g/m*3 13.2 C 3.2 km/h
333 01-09-2020 03:40:00 13.2 C 11.02 g/m*3 13.2 C 1.6 km/h
334 01-09-2020 03:45:00 13.2 C 11.02 g/m*3 13.2 C 3.2 km/h
335 01-09-2020 03:50:00 13.2 C 11.02 g/m*3 13.2 C 3.2 km/h
336 01-09-2020 03:55:00 13.1 C 10.95 g/m*3 13.1 C 1.6 km/h
337 01-09-2020 04:00:00 13.1 C 10.95 g/m*3 13.1 C 1.6 km/h
338 01-09-2020 04:05:00 13.1 C 10.95 g/m*3 13.1 C 0 km/h
339 01-09-2020 04:10:00 13.1 C 10.95 g/m*3 13.1 C 0 km/h
340 01-09-2020 04:15:00 13.1 C 10.95 g/m*3 13.1 C 0 km/h
341 01-09-2020 04:20:00 13 C 10.89 g/m*3 13 C 0 km/h
342 01-09-2020 04:25:00 12.9 C 10.82 g/m*3 12.9 C 0 km/h
343 01-09-2020 04:30:00 12.9 C 10.82 g/m*3 12.9 C 0 km/h
344 01-09-2020 04:35:00 12.9 C 10.82 g/m*3 12.9 C 4.8 km/h
345 01-09-2020 04:40:00 12.8 C 10.75 g/m*3 12.8 C 4.8 km/h
346 01-09-2020 04:45:00 12.8 C 10.75 g/m*3 12.8 C 3.2 km/h
347 01-09-2020 04:50:00 12.8 C 10.75 g/m*3 12.8 C 0 km/h
348 01-09-2020 04:55:00 12.8 C 10.87 g/m*3 12.8 C 1.6 km/h
349 01-09-2020 05:00:00 12.8 C 10.87 g/m*3 12.8 C 1.6 km/h
350 01-09-2020 05:05:00 12.8 C 10.87 g/m*3 12.8 C 1.6 km/h
Sensor: Nr:Datum:Temp:Abs-Feuchte:Windchill:Wind:
Aussen-T/F 351 01-09-2020 05:10:00 12.7 C 10.8 g/m*3 12.7 C 3.2 km/h
352 01-09-2020 05:15:00 12.7 C 10.8 g/m*3 12.7 C 1.6 km/h
353 01-09-2020 05:20:00 12.7 C 10.69 g/m*3 12.7 C 4.8 km/h
354 01-09-2020 05:25:00 12.6 C 10.62 g/m*3 12.6 C 3.2 km/h
355 01-09-2020 05:30:00 12.6 C 10.62 g/m*3 12.6 C 3.2 km/h
356 01-09-2020 05:35:00 12.5 C 10.55 g/m*3 12.5 C 0 km/h
357 01-09-2020 05:40:00 12.4 C 10.49 g/m*3 12.4 C 1.6 km/h
358 01-09-2020 05:45:00 12.3 C 10.42 g/m*3 12.3 C 3.2 km/h
359 01-09-2020 05:50:00 12.3 C 10.42 g/m*3 12.3 C 3.2 km/h
360 01-09-2020 05:55:00 12.3 C 10.42 g/m*3 12.3 C 4.8 km/h
361 01-09-2020 06:00:00 12.3 C 10.42 g/m*3 12.3 C 1.6 km/h
362 01-09-2020 06:05:00 12.2 C 10.36 g/m*3 12.2 C 4.8 km/h
363 01-09-2020 06:10:00 12.2 C 10.36 g/m*3 12.2 C 4.8 km/h
364 01-09-2020 06:15:00 12.2 C 10.47 g/m*3 12.2 C 4.8 km/h
365 01-09-2020 06:20:00 12.1 C 10.4 g/m*3 12.1 C 4.8 km/h
366 01-09-2020 06:25:00 12.1 C 10.4 g/m*3 12.1 C 4.8 km/h
367 01-09-2020 06:30:00 12.1 C 10.4 g/m*3 12.1 C 0 km/h
368 01-09-2020 06:35:00 12.1 C 10.4 g/m*3 12.1 C 0 km/h
369 01-09-2020 06:40:00 12.1 C 10.4 g/m*3 12.1 C 0 km/h
370 01-09-2020 06:45:00 12.1 C 10.4 g/m*3 12.1 C 0 km/h
371 01-09-2020 06:50:00 12.1 C 10.4 g/m*3 12.1 C 0 km/h
372 01-09-2020 06:55:00 12.1 C 10.4 g/m*3 12.1 C 0 km/h
373 01-09-2020 07:00:00 12.2 C 10.47 g/m*3 12.2 C 0 km/h
374 01-09-2020 07:05:00 12.3 C 10.53 g/m*3 12.3 C 0 km/h
375 01-09-2020 07:10:00 12.4 C 10.6 g/m*3 12.4 C 0 km/h
Sensor: Nr:Datum:Temp:Abs-Feuchte:Windchill:Wind:
Aussen-T/F 376 01-09-2020 07:15:00 12.4 C 10.6 g/m*3 12.4 C 0 km/h
377 01-09-2020 07:20:00 12.4 C 10.6 g/m*3 12.4 C 0 km/h
378 01-09-2020 07:25:00 12.5 C 10.66 g/m*3 12.5 C 0 km/h
379 01-09-2020 07:30:00 12.5 C 10.66 g/m*3 12.5 C 0 km/h
380 01-09-2020 07:35:00 12.6 C 10.73 g/m*3 12.6 C 0 km/h
381 01-09-2020 07:40:00 12.6 C 10.73 g/m*3 12.6 C 0 km/h
382 01-09-2020 07:45:00 12.7 C 10.8 g/m*3 12.7 C 0 km/h
383 01-09-2020 07:50:00 12.7 C 10.8 g/m*3 12.7 C 0 km/h
384 01-09-2020 07:55:00 12.8 C 10.87 g/m*3 12.8 C 0 km/h
385 01-09-2020 08:00:00 12.9 C 10.93 g/m*3 12.9 C 0 km/h
386 01-09-2020 08:05:00 13 C 11 g/m*3 13 C 0 km/h
387 01-09-2020 08:10:00 13.1 C 11.07 g/m*3 13.1 C 0 km/h
388 01-09-2020 08:15:00 13.2 C 11.14 g/m*3 13.2 C 0 km/h
389 01-09-2020 08:20:00 13.3 C 11.21 g/m*3 13.3 C 0 km/h
390 01-09-2020 08:25:00 13.3 C 11.21 g/m*3 13.3 C 0 km/h
391 01-09-2020 08:30:00 13.5 C 11.35 g/m*3 13.5 C 0 km/h
392 01-09-2020 08:35:00 13.6 C 11.42 g/m*3 13.6 C 0 km/h
393 01-09-2020 08:40:00 13.7 C 11.49 g/m*3 13.7 C 0 km/h
394 01-09-2020 08:45:00 13.7 C 11.49 g/m*3 13.7 C 0 km/h
395 01-09-2020 08:50:00 13.8 C 11.56 g/m*3 13.8 C 0 km/h
396 01-09-2020 08:55:00 13.8 C 11.56 g/m*3 13.8 C 0 km/h
397 01-09-2020 09:00:00 13.7 C 11.49 g/m*3 13.7 C 0 km/h
398 01-09-2020 09:05:00 13.7 C 11.49 g/m*3 13.7 C 0 km/h
399 01-09-2020 09:10:00 13.7 C 11.49 g/m*3 13.7 C 0 km/h
400 01-09-2020 09:15:00 13.8 C 11.56 g/m*3 13.8 C 0 km/h
Sensor: Nr:Datum:Temp:Abs-Feuchte:Windchill:Wind:
Aussen-T/F 401 01-09-2020 09:20:00 13.8 C 11.56 g/m*3 13.8 C 0 km/h
402 01-09-2020 09:25:00 13.9 C 11.63 g/m*3 13.9 C 0 km/h
403 01-09-2020 09:30:00 13.9 C 11.63 g/m*3 13.9 C 0 km/h
404 01-09-2020 09:35:00 13.8 C 11.56 g/m*3 13.8 C 0 km/h
405 01-09-2020 09:40:00 13.9 C 11.63 g/m*3 13.9 C 0 km/h
406 01-09-2020 09:45:00 14 C 11.7 g/m*3 14 C 0 km/h
407 01-09-2020 09:50:00 14.1 C 11.77 g/m*3 14.1 C 0 km/h
408 01-09-2020 09:55:00 14.2 C 11.84 g/m*3 14.2 C 0 km/h
409 01-09-2020 10:00:00 14.3 C 11.92 g/m*3 14.3 C 0 km/h
410 01-09-2020 10:05:00 14.3 C 11.92 g/m*3 14.3 C 0 km/h
411 01-09-2020 10:10:00 14.3 C 11.92 g/m*3 14.3 C 0 km/h
412 01-09-2020 10:15:00 14.1 C 11.77 g/m*3 14.1 C 6.4 km/h
413 01-09-2020 10:20:00 14.1 C 11.77 g/m*3 14.1 C 1.6 km/h
414 01-09-2020 10:25:00 14.1 C 11.77 g/m*3 14.1 C 0 km/h
415 01-09-2020 10:30:00 14.2 C 11.84 g/m*3 14.2 C 0 km/h
416 01-09-2020 10:35:00 14.2 C 11.84 g/m*3 14.2 C 1.6 km/h
417 01-09-2020 10:40:00 14.3 C 11.92 g/m*3 14.3 C 3.2 km/h
418 01-09-2020 10:45:00 14.3 C 11.79 g/m*3 14.3 C 1.6 km/h
419 01-09-2020 10:50:00 14.4 C 11.87 g/m*3 14.4 C 1.6 km/h
420 01-09-2020 10:55:00 14.6 C 12.01 g/m*3 14.6 C 0 km/h
421 01-09-2020 11:00:00 14.8 C 12.16 g/m*3 14.8 C 0 km/h
422 01-09-2020 11:05:00 14.8 C 12.16 g/m*3 14.8 C 0 km/h
423 01-09-2020 11:10:00 14.9 C 12.24 g/m*3 14.9 C 3.2 km/h
424 01-09-2020 11:15:00 14.9 C 12.11 g/m*3 14.9 C 1.6 km/h
425 01-09-2020 11:20:00 15.1 C 12.13 g/m*3 15.1 C 0 km/h
Sensor: Nr:Datum:Temp:Abs-Feuchte:Windchill:Wind:
Aussen-T/F 426 01-09-2020 11:25:00 15.2 C 12.07 g/m*3 15.2 C 4.8 km/h
427 01-09-2020 11:30:00 15.3 C 12.14 g/m*3 15.3 C 3.2 km/h
428 01-09-2020 11:35:00 15.5 C 12.16 g/m*3 15.5 C 1.6 km/h
429 01-09-2020 11:40:00 15.7 C 12.18 g/m*3 15.7 C 4.8 km/h
430 01-09-2020 11:45:00 15.9 C 12.19 g/m*3 15.9 C 4.8 km/h
431 01-09-2020 11:50:00 16.1 C 12.2 g/m*3 16.1 C 1.6 km/h
432 01-09-2020 11:55:00 16.1 C 11.93 g/m*3 16.1 C 0 km/h
433 01-09-2020 12:00:00 16.2 C 12 g/m*3 16.2 C 0 km/h
434 01-09-2020 12:05:00 16.4 C 12.28 g/m*3 16.4 C 1.6 km/h
435 01-09-2020 12:10:00 16.6 C 12.57 g/m*3 16.6 C 3.2 km/h
436 01-09-2020 12:15:00 16.8 C 12.58 g/m*3 16.8 C 1.6 km/h
437 01-09-2020 12:20:00 16.9 C 12.8 g/m*3 16.9 C 0 km/h
438 01-09-2020 12:25:00 16.9 C 12.51 g/m*3 16.9 C 3.2 km/h
439 01-09-2020 12:30:00 17 C 12.3 g/m*3 17 C 3.2 km/h
440 01-09-2020 12:35:00 17.2 C 12.3 g/m*3 17.2 C 4.8 km/h
441 01-09-2020 12:40:00 17.3 C 12.23 g/m*3 17.3 C 1.6 km/h
442 01-09-2020 12:45:00 17.4 C 12.15 g/m*3 17.4 C 0 km/h
443 01-09-2020 12:50:00 17.6 C 12.3 g/m*3 17.6 C 0 km/h
444 01-09-2020 12:55:00 17.7 C 12.22 g/m*3 17.7 C 0 km/h
445 01-09-2020 13:00:00 17.8 C 11.99 g/m*3 17.8 C 4.8 km/h
446 01-09-2020 13:05:00 17.9 C 12.21 g/m*3 17.9 C 3.2 km/h
447 01-09-2020 13:10:00 18 C 12.13 g/m*3 18 C 3.2 km/h
448 01-09-2020 13:15:00 18.1 C 11.9 g/m*3 18.1 C 4.8 km/h
449 01-09-2020 13:20:00 18.2 C 11.81 g/m*3 18.2 C 9.7 km/h
450 01-09-2020 13:25:00 18.4 C 11.8 g/m*3 18.4 C 1.6 km/h
Sensor: Nr:Datum:Temp:Abs-Feuchte:Windchill:Wind:
Aussen-T/F 451 01-09-2020 13:30:00 18.6 C 11.62 g/m*3 18.6 C 11.3 km/h
452 01-09-2020 13:35:00 18.8 C 11.6 g/m*3 18.8 C 8.1 km/h
453 01-09-2020 13:40:00 18.9 C 11.18 g/m*3 18.9 C 9.7 km/h
454 01-09-2020 13:45:00 19.1 C 11.15 g/m*3 19.1 C 9.7 km/h
455 01-09-2020 13:50:00 19.2 C 10.55 g/m*3 19.2 C 8.1 km/h
456 01-09-2020 13:55:00 19.3 C 10.62 g/m*3 19.3 C 8.1 km/h
457 01-09-2020 14:00:00 19.3 C 10.78 g/m*3 19.3 C 11.3 km/h
458 01-09-2020 14:05:00 19.3 C 10.78 g/m*3 19.3 C 9.7 km/h
459 01-09-2020 14:10:00 19.4 C 10.68 g/m*3 19.4 C 8.1 km/h
460 01-09-2020 14:15:00 19.4 C 10.84 g/m*3 19.4 C 8.1 km/h
461 01-09-2020 14:20:00 19.3 C 10.78 g/m*3 19.3 C 8.1 km/h
462 01-09-2020 14:25:00 19.2 C 10.88 g/m*3 19.2 C 1.6 km/h
463 01-09-2020 14:30:00 19.3 C 11.11 g/m*3 19.3 C 6.4 km/h
464 01-09-2020 14:35:00 19.4 C 11.01 g/m*3 19.4 C 14.5 km/h
465 01-09-2020 14:40:00 19.6 C 10.64 g/m*3 19.6 C 11.3 km/h
466 01-09-2020 14:45:00 19.7 C 11.04 g/m*3 19.7 C 4.8 km/h
467 01-09-2020 14:50:00 19.8 C 10.59 g/m*3 19.8 C 8.1 km/h
468 01-09-2020 14:55:00 19.8 C 10.08 g/m*3 19.8 C 9.7 km/h
469 01-09-2020 15:00:00 19.7 C 10.02 g/m*3 19.7 C 1.6 km/h
470 01-09-2020 15:05:00 19.7 C 10.02 g/m*3 19.7 C 3.2 km/h
471 01-09-2020 15:10:00 19.8 C 9.91 g/m*3 19.8 C 8.1 km/h
472 01-09-2020 15:15:00 19.8 C 10.25 g/m*3 19.8 C 6.4 km/h
473 01-09-2020 15:20:00 19.8 C 10.08 g/m*3 19.8 C 8.1 km/h
474 01-09-2020 15:25:00 19.9 C 10.65 g/m*3 19.9 C 3.2 km/h
475 01-09-2020 15:30:00 19.9 C 10.48 g/m*3 19.9 C 4.8 km/h
Sensor: Nr:Datum:Temp:Abs-Feuchte:Windchill:Wind:
Aussen-T/F 476 01-09-2020 15:35:00 20.1 C 10.78 g/m*3 20.1 C 8.1 km/h
477 01-09-2020 15:40:00 20.3 C 10.9 g/m*3 20.3 C 0 km/h
478 01-09-2020 15:45:00 20.4 C 10.79 g/m*3 20.4 C 4.8 km/h
479 01-09-2020 15:50:00 20.3 C 10.73 g/m*3 20.3 C 1.6 km/h
480 01-09-2020 15:55:00 20.2 C 10.67 g/m*3 20.2 C 8.1 km/h
481 01-09-2020 16:00:00 19.9 C 11.34 g/m*3 19.9 C 3.2 km/h
482 01-09-2020 16:05:00 19.7 C 11.72 g/m*3 19.7 C 0 km/h
483 01-09-2020 16:10:00 19.5 C 11.41 g/m*3 19.5 C 9.7 km/h
484 01-09-2020 16:15:00 19.1 C 11.8 g/m*3 19.1 C 4.8 km/h
485 01-09-2020 16:20:00 18.8 C 11.92 g/m*3 18.8 C 3.2 km/h
486 01-09-2020 16:25:00 18.7 C 12.65 g/m*3 18.7 C 0 km/h
487 01-09-2020 16:30:00 18.6 C 13.05 g/m*3 18.6 C 0 km/h
488 01-09-2020 16:35:00 18.2 C 11.66 g/m*3 18.2 C 6.4 km/h
489 01-09-2020 16:40:00 17.9 C 11.3 g/m*3 17.9 C 8.1 km/h
490 01-09-2020 16:45:00 17.8 C 11.69 g/m*3 17.8 C 8.1 km/h
491 01-09-2020 16:50:00 17.6 C 11.4 g/m*3 17.6 C 12.9 km/h
492 01-09-2020 16:55:00 17.5 C 11.48 g/m*3 17.5 C 11.3 km/h
493 01-09-2020 17:00:00 17.4 C 11.41 g/m*3 17.4 C 9.7 km/h
494 01-09-2020 17:05:00 17.3 C 11.34 g/m*3 17.3 C 8.1 km/h
495 01-09-2020 17:10:00 17.3 C 11.34 g/m*3 17.3 C 11.3 km/h
496 01-09-2020 17:15:00 17.3 C 11.49 g/m*3 17.3 C 4.8 km/h
497 01-09-2020 17:20:00 17.2 C 11.42 g/m*3 17.2 C 8.1 km/h
498 01-09-2020 17:25:00 17.2 C 11.42 g/m*3 17.2 C 3.2 km/h
499 01-09-2020 17:30:00 17.2 C 11.72 g/m*3 17.2 C 1.6 km/h
500 01-09-2020 17:35:00 17.2 C 11.72 g/m*3 17.2 C 4.8 km/h
Sensor: Nr:Datum:Temp:Abs-Feuchte:Windchill:Wind:
Aussen-T/F 501 01-09-2020 17:40:00 17.1 C 11.79 g/m*3 17.1 C 0 km/h
502 01-09-2020 17:45:00 17.1 C 11.94 g/m*3 17.1 C 0 km/h
503 01-09-2020 17:50:00 17 C 11.87 g/m*3 17 C 0 km/h
504 01-09-2020 17:55:00 16.9 C 11.94 g/m*3 16.9 C 1.6 km/h
505 01-09-2020 18:00:00 16.9 C 12.08 g/m*3 16.9 C 0 km/h
506 01-09-2020 18:05:00 16.8 C 12.01 g/m*3 16.8 C 0 km/h
507 01-09-2020 18:10:00 16.7 C 11.8 g/m*3 16.7 C 0 km/h
508 01-09-2020 18:15:00 16.6 C 11.72 g/m*3 16.6 C 0 km/h
509 01-09-2020 18:20:00 16.4 C 11.86 g/m*3 16.4 C 0 km/h
510 01-09-2020 18:25:00 16.4 C 11.86 g/m*3 16.4 C 0 km/h
511 01-09-2020 18:30:00 16.3 C 11.79 g/m*3 16.3 C 0 km/h
512 01-09-2020 18:35:00 16.2 C 11.58 g/m*3 16.2 C 0 km/h
513 01-09-2020 18:40:00 16.2 C 11.72 g/m*3 16.2 C 1.6 km/h
514 01-09-2020 18:45:00 16.1 C 11.65 g/m*3 16.1 C 3.2 km/h
515 01-09-2020 18:50:00 16 C 11.58 g/m*3 16 C 3.2 km/h
516 01-09-2020 18:55:00 15.9 C 11.51 g/m*3 15.9 C 1.6 km/h
517 01-09-2020 19:00:00 15.9 C 11.51 g/m*3 15.9 C 1.6 km/h
518 01-09-2020 19:05:00 15.9 C 11.78 g/m*3 15.9 C 0 km/h
519 01-09-2020 19:10:00 16.1 C 11.93 g/m*3 16.1 C 1.6 km/h
520 01-09-2020 19:15:00 16.3 C 11.93 g/m*3 16.3 C 4.8 km/h
521 01-09-2020 19:20:00 16.5 C 12.08 g/m*3 16.5 C 3.2 km/h
522 01-09-2020 19:25:00 16.7 C 12.08 g/m*3 16.7 C 1.6 km/h
523 01-09-2020 19:30:00 16.8 C 12.15 g/m*3 16.8 C 1.6 km/h
524 01-09-2020 19:35:00 16.8 C 12.15 g/m*3 16.8 C 3.2 km/h
525 01-09-2020 19:40:00 16.8 C 12.15 g/m*3 16.8 C 0 km/h
Sensor: Nr:Datum:Temp:Abs-Feuchte:Windchill:Wind:
Aussen-T/F 526 01-09-2020 19:45:00 16.8 C 12.15 g/m*3 16.8 C 0 km/h
527 01-09-2020 19:50:00 16.8 C 12.15 g/m*3 16.8 C 0 km/h
528 01-09-2020 19:55:00 16.6 C 11.87 g/m*3 16.6 C 0 km/h
529 01-09-2020 20:00:00 16.4 C 11.72 g/m*3 16.4 C 1.6 km/h
530 01-09-2020 20:05:00 16.2 C 11.58 g/m*3 16.2 C 0 km/h
531 01-09-2020 20:10:00 15.9 C 11.38 g/m*3 15.9 C 3.2 km/h
532 01-09-2020 20:15:00 15.6 C 11.17 g/m*3 15.6 C 4.8 km/h
533 01-09-2020 20:20:00 15.4 C 11.17 g/m*3 15.4 C 3.2 km/h
534 01-09-2020 20:25:00 15.2 C 11.16 g/m*3 15.2 C 3.2 km/h
535 01-09-2020 20:30:00 15.1 C 11.09 g/m*3 15.1 C 3.2 km/h
536 01-09-2020 20:35:00 14.9 C 11.09 g/m*3 14.9 C 1.6 km/h
537 01-09-2020 20:40:00 14.8 C 11.02 g/m*3 14.8 C 3.2 km/h
538 01-09-2020 20:45:00 14.7 C 10.83 g/m*3 14.7 C 4.8 km/h
539 01-09-2020 20:50:00 14.6 C 10.89 g/m*3 14.6 C 0 km/h
540 01-09-2020 20:55:00 14.4 C 10.75 g/m*3 14.4 C 1.6 km/h
541 01-09-2020 21:00:00 14.3 C 10.81 g/m*3 14.3 C 4.8 km/h
542 01-09-2020 21:05:00 14.3 C 10.81 g/m*3 14.3 C 4.8 km/h
543 01-09-2020 21:10:00 14.2 C 10.75 g/m*3 14.2 C 1.6 km/h
544 01-09-2020 21:15:00 14.2 C 10.75 g/m*3 14.2 C 1.6 km/h
545 01-09-2020 21:20:00 14.2 C 10.87 g/m*3 14.2 C 3.2 km/h
546 01-09-2020 21:25:00 14.2 C 10.87 g/m*3 14.2 C 3.2 km/h
547 01-09-2020 21:30:00 14.1 C 10.8 g/m*3 14.1 C 0 km/h
548 01-09-2020 21:35:00 14.1 C 10.8 g/m*3 14.1 C 1.6 km/h
549 01-09-2020 21:40:00 14.1 C 10.8 g/m*3 14.1 C 3.2 km/h
550 01-09-2020 21:45:00 14 C 10.74 g/m*3 14 C 0 km/h
Sensor: Nr:Datum:Temp:Abs-Feuchte:Windchill:Wind:
Aussen-T/F 551 01-09-2020 21:50:00 14 C 10.74 g/m*3 14 C 0 km/h
552 01-09-2020 21:55:00 14.1 C 10.92 g/m*3 14.1 C 0 km/h
553 01-09-2020 22:00:00 14.1 C 10.92 g/m*3 14.1 C 0 km/h
554 01-09-2020 22:05:00 14.1 C 10.92 g/m*3 14.1 C 0 km/h
555 01-09-2020 22:10:00 13.9 C 10.79 g/m*3 13.9 C 0 km/h
556 01-09-2020 22:15:00 13.9 C 10.79 g/m*3 13.9 C 0 km/h
557 01-09-2020 22:20:00 13.8 C 10.72 g/m*3 13.8 C 0 km/h
558 01-09-2020 22:25:00 13.8 C 10.72 g/m*3 13.8 C 0 km/h
559 01-09-2020 22:30:00 13.7 C 10.66 g/m*3 13.7 C 0 km/h
560 01-09-2020 22:35:00 13.6 C 10.59 g/m*3 13.6 C 0 km/h
561 01-09-2020 22:40:00 13.5 C 10.53 g/m*3 13.5 C 0 km/h
562 01-09-2020 22:45:00 13.4 C 10.46 g/m*3 13.4 C 0 km/h
563 01-09-2020 22:50:00 13.3 C 10.51 g/m*3 13.3 C 1.6 km/h
564 01-09-2020 22:55:00 13.3 C 10.51 g/m*3 13.3 C 1.6 km/h
565 01-09-2020 23:00:00 13.3 C 10.51 g/m*3 13.3 C 0 km/h
566 01-09-2020 23:05:00 13.3 C 10.51 g/m*3 13.3 C 0 km/h
567 01-09-2020 23:10:00 13.3 C 10.51 g/m*3 13.3 C 0 km/h
568 01-09-2020 23:15:00 13.3 C 10.63 g/m*3 13.3 C 0 km/h
569 01-09-2020 23:20:00 13.3 C 10.63 g/m*3 13.3 C 0 km/h
570 01-09-2020 23:25:00 13.3 C 10.63 g/m*3 13.3 C 0 km/h
571 01-09-2020 23:30:00 13.3 C 10.63 g/m*3 13.3 C 0 km/h
572 01-09-2020 23:35:00 13.3 C 10.63 g/m*3 13.3 C 0 km/h
573 01-09-2020 23:40:00 13.3 C 10.63 g/m*3 13.3 C 0 km/h
574 01-09-2020 23:45:00 13.3 C 10.63 g/m*3 13.3 C 0 km/h
575 01-09-2020 23:50:00 13.3 C 10.63 g/m*3 13.3 C 0 km/h
Sensor: Nr:Datum:Temp:Abs-Feuchte:Windchill:Wind:
Aussen-T/F 576 01-09-2020 23:55:00 13.4 C 10.69 g/m*3 13.4 C 0 km/h
577 02-09-2020 00:00:00 13.4 C 10.69 g/m*3 13.4 C 0 km/h
578 02-09-2020 00:05:00 13.3 C 10.63 g/m*3 13.3 C 0 km/h
579 02-09-2020 00:10:00 13.3 C 10.63 g/m*3 13.3 C 0 km/h
580 02-09-2020 00:15:00 13.3 C 10.74 g/m*3 13.3 C 0 km/h
581 02-09-2020 00:20:00 13.3 C 10.74 g/m*3 13.3 C 0 km/h
582 02-09-2020 00:25:00 13.3 C 10.74 g/m*3 13.3 C 0 km/h
583 02-09-2020 00:30:00 13.3 C 10.74 g/m*3 13.3 C 0 km/h
584 02-09-2020 00:35:00 13.3 C 10.74 g/m*3 13.3 C 0 km/h
585 02-09-2020 00:40:00 13.3 C 10.74 g/m*3 13.3 C 0 km/h
586 02-09-2020 00:45:00 13.3 C 10.74 g/m*3 13.3 C 0 km/h
587 02-09-2020 00:50:00 13.3 C 10.74 g/m*3 13.3 C 0 km/h
588 02-09-2020 00:55:00 13.3 C 10.74 g/m*3 13.3 C 0 km/h
589 02-09-2020 01:00:00 13.2 C 10.68 g/m*3 13.2 C 0 km/h
590 02-09-2020 01:05:00 13.3 C 10.74 g/m*3 13.3 C 1.6 km/h
591 02-09-2020 01:10:00 13.3 C 10.74 g/m*3 13.3 C 0 km/h
592 02-09-2020 01:15:00 13.2 C 10.68 g/m*3 13.2 C 0 km/h
593 02-09-2020 01:20:00 13.2 C 10.68 g/m*3 13.2 C 0 km/h
594 02-09-2020 01:25:00 13.2 C 10.68 g/m*3 13.2 C 0 km/h
595 02-09-2020 01:30:00 13.2 C 10.68 g/m*3 13.2 C 0 km/h
596 02-09-2020 01:35:00 13.2 C 10.68 g/m*3 13.2 C 0 km/h
597 02-09-2020 01:40:00 13.2 C 10.68 g/m*3 13.2 C 0 km/h
598 02-09-2020 01:45:00 13.2 C 10.68 g/m*3 13.2 C 0 km/h
599 02-09-2020 01:50:00 13.1 C 10.61 g/m*3 13.1 C 0 km/h
600 02-09-2020 01:55:00 13.1 C 10.61 g/m*3 13.1 C 3.2 km/h
Sensor: Nr:Datum:Temp:Abs-Feuchte:Windchill:Wind:
Aussen-T/F 601 02-09-2020 02:00:00 13.1 C 10.61 g/m*3 13.1 C 0 km/h
602 02-09-2020 02:05:00 13.1 C 10.61 g/m*3 13.1 C 0 km/h
603 02-09-2020 02:10:00 13 C 10.55 g/m*3 13 C 0 km/h
604 02-09-2020 02:15:00 13 C 10.55 g/m*3 13 C 0 km/h
605 02-09-2020 02:20:00 12.9 C 10.48 g/m*3 12.9 C 0 km/h
606 02-09-2020 02:25:00 12.9 C 10.48 g/m*3 12.9 C 0 km/h
607 02-09-2020 02:30:00 12.9 C 10.48 g/m*3 12.9 C 0 km/h
608 02-09-2020 02:35:00 12.8 C 10.42 g/m*3 12.8 C 0 km/h
609 02-09-2020 02:40:00 12.8 C 10.42 g/m*3 12.8 C 0 km/h
610 02-09-2020 02:45:00 12.8 C 10.42 g/m*3 12.8 C 1.6 km/h
611 02-09-2020 02:50:00 12.8 C 10.53 g/m*3 12.8 C 0 km/h
612 02-09-2020 02:55:00 12.8 C 10.53 g/m*3 12.8 C 1.6 km/h
613 02-09-2020 03:00:00 12.8 C 10.53 g/m*3 12.8 C 0 km/h
614 02-09-2020 03:05:00 12.8 C 10.53 g/m*3 12.8 C 0 km/h
615 02-09-2020 03:10:00 12.8 C 10.53 g/m*3 12.8 C 1.6 km/h
616 02-09-2020 03:15:00 12.8 C 10.53 g/m*3 12.8 C 0 km/h
617 02-09-2020 03:20:00 12.8 C 10.53 g/m*3 12.8 C 0 km/h
618 02-09-2020 03:25:00 12.8 C 10.53 g/m*3 12.8 C 0 km/h
619 02-09-2020 03:30:00 12.8 C 10.53 g/m*3 12.8 C 0 km/h
620 02-09-2020 03:35:00 12.8 C 10.53 g/m*3 12.8 C 0 km/h
621 02-09-2020 03:40:00 12.8 C 10.53 g/m*3 12.8 C 1.6 km/h
622 02-09-2020 03:45:00 12.8 C 10.53 g/m*3 12.8 C 1.6 km/h
623 02-09-2020 03:50:00 12.8 C 10.53 g/m*3 12.8 C 0 km/h
624 02-09-2020 03:55:00 12.9 C 10.59 g/m*3 12.9 C 0 km/h
625 02-09-2020 04:00:00 12.9 C 10.59 g/m*3 12.9 C 0 km/h
Sensor: Nr:Datum:Temp:Abs-Feuchte:Windchill:Wind:
Aussen-T/F 626 02-09-2020 04:05:00 12.8 C 10.53 g/m*3 12.8 C 0 km/h
627 02-09-2020 04:10:00 12.8 C 10.53 g/m*3 12.8 C 0 km/h
628 02-09-2020 04:15:00 12.8 C 10.53 g/m*3 12.8 C 0 km/h
629 02-09-2020 04:20:00 12.7 C 10.46 g/m*3 12.7 C 0 km/h
630 02-09-2020 04:25:00 12.7 C 10.46 g/m*3 12.7 C 0 km/h
631 02-09-2020 04:30:00 12.7 C 10.46 g/m*3 12.7 C 0 km/h
632 02-09-2020 04:35:00 12.7 C 10.46 g/m*3 12.7 C 0 km/h
633 02-09-2020 04:40:00 12.6 C 10.4 g/m*3 12.6 C 0 km/h
634 02-09-2020 04:45:00 12.6 C 10.4 g/m*3 12.6 C 0 km/h
635 02-09-2020 04:50:00 12.6 C 10.4 g/m*3 12.6 C 0 km/h
636 02-09-2020 04:55:00 12.6 C 10.4 g/m*3 12.6 C 0 km/h
637 02-09-2020 05:00:00 12.6 C 10.4 g/m*3 12.6 C 0 km/h
638 02-09-2020 05:05:00 12.6 C 10.4 g/m*3 12.6 C 0 km/h
639 02-09-2020 05:10:00 12.5 C 10.33 g/m*3 12.5 C 0 km/h
640 02-09-2020 05:15:00 12.5 C 10.33 g/m*3 12.5 C 0 km/h
641 02-09-2020 05:20:00 12.5 C 10.33 g/m*3 12.5 C 0 km/h
642 02-09-2020 05:25:00 12.5 C 10.44 g/m*3 12.5 C 0 km/h
643 02-09-2020 05:30:00 12.5 C 10.44 g/m*3 12.5 C 0 km/h
644 02-09-2020 05:35:00 12.5 C 10.44 g/m*3 12.5 C 0 km/h
645 02-09-2020 05:40:00 12.5 C 10.44 g/m*3 12.5 C 0 km/h
646 02-09-2020 05:45:00 12.5 C 10.44 g/m*3 12.5 C 0 km/h
647 02-09-2020 05:50:00 12.5 C 10.44 g/m*3 12.5 C 0 km/h
648 02-09-2020 05:55:00 12.5 C 10.44 g/m*3 12.5 C 0 km/h
649 02-09-2020 06:00:00 12.5 C 10.44 g/m*3 12.5 C 1.6 km/h
650 02-09-2020 06:05:00 12.5 C 10.44 g/m*3 12.5 C 1.6 km/h
Sensor: Nr:Datum:Temp:Abs-Feuchte:Windchill:Wind:
Aussen-T/F 651 02-09-2020 06:10:00 12.4 C 10.38 g/m*3 12.4 C 0 km/h
652 02-09-2020 06:15:00 12.4 C 10.38 g/m*3 12.4 C 0 km/h
653 02-09-2020 06:20:00 12.4 C 10.38 g/m*3 12.4 C 0 km/h
654 02-09-2020 06:25:00 12.4 C 10.38 g/m*3 12.4 C 0 km/h
655 02-09-2020 06:30:00 12.3 C 10.32 g/m*3 12.3 C 0 km/h
656 02-09-2020 06:35:00 12.3 C 10.32 g/m*3 12.3 C 0 km/h
657 02-09-2020 06:40:00 12.2 C 10.25 g/m*3 12.2 C 0 km/h
658 02-09-2020 06:45:00 12.1 C 10.19 g/m*3 12.1 C 0 km/h
659 02-09-2020 06:50:00 12.1 C 10.19 g/m*3 12.1 C 0 km/h
660 02-09-2020 06:55:00 12 C 10.12 g/m*3 12 C 0 km/h
661 02-09-2020 07:00:00 11.9 C 10.06 g/m*3 11.9 C 0 km/h
662 02-09-2020 07:05:00 11.8 C 10 g/m*3 11.8 C 3.2 km/h
663 02-09-2020 07:10:00 11.7 C 9.94 g/m*3 11.7 C 3.2 km/h
664 02-09-2020 07:15:00 11.7 C 9.94 g/m*3 11.7 C 1.6 km/h
665 02-09-2020 07:20:00 11.7 C 9.94 g/m*3 11.7 C 0 km/h
666 02-09-2020 07:25:00 11.6 C 9.87 g/m*3 11.6 C 0 km/h
667 02-09-2020 07:30:00 11.6 C 9.87 g/m*3 11.6 C 0 km/h
668 02-09-2020 07:35:00 11.5 C 9.81 g/m*3 11.5 C 0 km/h
669 02-09-2020 07:40:00 11.4 C 9.75 g/m*3 11.4 C 0 km/h
670 02-09-2020 07:45:00 11.4 C 9.75 g/m*3 11.4 C 0 km/h
671 02-09-2020 07:50:00 11.4 C 9.75 g/m*3 11.4 C 3.2 km/h
672 02-09-2020 07:55:00 11.4 C 9.75 g/m*3 11.4 C 0 km/h
673 02-09-2020 08:00:00 11.4 C 9.75 g/m*3 11.4 C 3.2 km/h
674 02-09-2020 08:05:00 11.3 C 9.69 g/m*3 11.3 C 0 km/h
675 02-09-2020 08:10:00 11.4 C 9.75 g/m*3 11.4 C 0 km/h
Sensor: Nr:Datum:Temp:Abs-Feuchte:Windchill:Wind:
Aussen-T/F 676 02-09-2020 08:15:00 11.4 C 9.75 g/m*3 11.4 C 0 km/h
677 02-09-2020 08:20:00 11.4 C 9.75 g/m*3 11.4 C 0 km/h
678 02-09-2020 08:25:00 11.4 C 9.75 g/m*3 11.4 C 0 km/h
679 02-09-2020 08:30:00 11.4 C 9.75 g/m*3 11.4 C 0 km/h
680 02-09-2020 08:35:00 11.5 C 9.92 g/m*3 11.5 C 0 km/h
681 02-09-2020 08:40:00 11.6 C 9.98 g/m*3 11.6 C 0 km/h
682 02-09-2020 08:45:00 11.6 C 9.98 g/m*3 11.6 C 0 km/h
683 02-09-2020 08:50:00 11.7 C 10.04 g/m*3 11.7 C 0 km/h
684 02-09-2020 08:55:00 11.8 C 10.1 g/m*3 11.8 C 0 km/h
685 02-09-2020 09:00:00 12.1 C 10.29 g/m*3 12.1 C 0 km/h
686 02-09-2020 09:05:00 12.2 C 10.36 g/m*3 12.2 C 0 km/h
687 02-09-2020 09:10:00 12.3 C 10.42 g/m*3 12.3 C 0 km/h
688 02-09-2020 09:15:00 12.4 C 10.49 g/m*3 12.4 C 0 km/h
689 02-09-2020 09:20:00 12.6 C 10.62 g/m*3 12.6 C 0 km/h
690 02-09-2020 09:25:00 12.7 C 10.69 g/m*3 12.7 C 0 km/h
691 02-09-2020 09:30:00 12.9 C 10.82 g/m*3 12.9 C 0 km/h
692 02-09-2020 09:35:00 13.1 C 10.95 g/m*3 13.1 C 0 km/h
693 02-09-2020 09:40:00 13.2 C 10.91 g/m*3 13.2 C 0 km/h
694 02-09-2020 09:45:00 13.3 C 10.98 g/m*3 13.3 C 3.2 km/h
695 02-09-2020 09:50:00 13.5 C 10.88 g/m*3 13.5 C 0 km/h
696 02-09-2020 09:55:00 13.7 C 11.01 g/m*3 13.7 C 0 km/h
697 02-09-2020 10:00:00 13.9 C 11.03 g/m*3 13.9 C 0 km/h
698 02-09-2020 10:05:00 14.1 C 11.04 g/m*3 14.1 C 1.6 km/h
699 02-09-2020 10:10:00 14.2 C 10.87 g/m*3 14.2 C 1.6 km/h
700 02-09-2020 10:15:00 14.3 C 10.93 g/m*3 14.3 C 0 km/h
Sensor: Nr:Datum:Temp:Abs-Feuchte:Windchill:Wind:
Aussen-T/F 701 02-09-2020 10:20:00 14.4 C 11 g/m*3 14.4 C 0 km/h
702 02-09-2020 10:25:00 14.6 C 11.01 g/m*3 14.6 C 0 km/h
703 02-09-2020 10:30:00 14.7 C 11.08 g/m*3 14.7 C 1.6 km/h
704 02-09-2020 10:35:00 14.8 C 11.15 g/m*3 14.8 C 1.6 km/h
705 02-09-2020 10:40:00 14.9 C 10.96 g/m*3 14.9 C 0 km/h
706 02-09-2020 10:45:00 15.1 C 11.09 g/m*3 15.1 C 4.8 km/h
707 02-09-2020 10:50:00 15.2 C 11.03 g/m*3 15.2 C 1.6 km/h
708 02-09-2020 10:55:00 15.4 C 11.04 g/m*3 15.4 C 3.2 km/h
709 02-09-2020 11:00:00 15.6 C 11.04 g/m*3 15.6 C 3.2 km/h
710 02-09-2020 11:05:00 15.8 C 11.17 g/m*3 15.8 C 1.6 km/h
711 02-09-2020 11:10:00 15.9 C 11.1 g/m*3 15.9 C 3.2 km/h
712 02-09-2020 11:15:00 16.1 C 11.24 g/m*3 16.1 C 0 km/h
713 02-09-2020 11:20:00 16.3 C 11.24 g/m*3 16.3 C 3.2 km/h
714 02-09-2020 11:25:00 16.4 C 11.31 g/m*3 16.4 C 1.6 km/h
715 02-09-2020 11:30:00 16.5 C 10.95 g/m*3 16.5 C 3.2 km/h
716 02-09-2020 11:35:00 16.6 C 11.16 g/m*3 16.6 C 0 km/h
717 02-09-2020 11:40:00 16.7 C 11.23 g/m*3 16.7 C 0 km/h
718 02-09-2020 11:45:00 16.8 C 11.01 g/m*3 16.8 C 0 km/h
719 02-09-2020 11:50:00 16.8 C 10.72 g/m*3 16.8 C 3.2 km/h
720 02-09-2020 11:55:00 16.9 C 10.79 g/m*3 16.9 C 0 km/h
721 02-09-2020 12:00:00 17.1 C 10.92 g/m*3 17.1 C 6.4 km/h
722 02-09-2020 12:05:00 17.2 C 10.54 g/m*3 17.2 C 3.2 km/h
723 02-09-2020 12:10:00 17.3 C 11.34 g/m*3 17.3 C 0 km/h
724 02-09-2020 12:15:00 17.3 C 11.64 g/m*3 17.3 C 0 km/h
725 02-09-2020 12:20:00 17.3 C 11.79 g/m*3 17.3 C 0 km/h
Sensor: Nr:Datum:Temp:Abs-Feuchte:Windchill:Wind:
Aussen-T/F 726 02-09-2020 12:25:00 17.2 C 11.86 g/m*3 17.2 C 0 km/h
727 02-09-2020 12:30:00 17.1 C 11.65 g/m*3 17.1 C 0 km/h
728 02-09-2020 12:35:00 17 C 11.87 g/m*3 17 C 0 km/h
729 02-09-2020 12:40:00 16.9 C 11.08 g/m*3 16.9 C 0 km/h
730 02-09-2020 12:45:00 17.1 C 11.35 g/m*3 17.1 C 0 km/h
731 02-09-2020 12:50:00 17.3 C 11.64 g/m*3 17.3 C 0 km/h
732 02-09-2020 12:55:00 17.5 C 10.88 g/m*3 17.5 C 6.4 km/h
733 02-09-2020 13:00:00 17.9 C 10.23 g/m*3 17.9 C 4.8 km/h
734 02-09-2020 13:05:00 18.2 C 10.41 g/m*3 18.2 C 3.2 km/h
735 02-09-2020 13:10:00 18.4 C 10.22 g/m*3 18.4 C 4.8 km/h
736 02-09-2020 13:15:00 18.7 C 10.57 g/m*3 18.7 C 3.2 km/h
737 02-09-2020 13:20:00 18.8 C 10.15 g/m*3 18.8 C 8.1 km/h
738 02-09-2020 13:25:00 18.8 C 9.99 g/m*3 18.8 C 8.1 km/h
739 02-09-2020 13:30:00 18.9 C 10.04 g/m*3 18.9 C 4.8 km/h
740 02-09-2020 13:35:00 18.9 C 10.21 g/m*3 18.9 C 6.4 km/h
741 02-09-2020 13:40:00 18.9 C 11.18 g/m*3 18.9 C 1.6 km/h
742 02-09-2020 13:45:00 19 C 11.9 g/m*3 19 C 1.6 km/h
743 02-09-2020 13:50:00 18.9 C 11.5 g/m*3 18.9 C 0 km/h
744 02-09-2020 13:55:00 18.8 C 10.15 g/m*3 18.8 C 0 km/h
745 02-09-2020 14:00:00 18.9 C 10.04 g/m*3 18.9 C 4.8 km/h
746 02-09-2020 14:05:00 19.2 C 9.89 g/m*3 19.2 C 6.4 km/h
747 02-09-2020 14:10:00 19.3 C 9.45 g/m*3 19.3 C 3.2 km/h
748 02-09-2020 14:15:00 19.4 C 9.68 g/m*3 19.4 C 0 km/h
749 02-09-2020 14:20:00 19.6 C 9.96 g/m*3 19.6 C 4.8 km/h
750 02-09-2020 14:25:00 19.7 C 9.51 g/m*3 19.7 C 6.4 km/h
Sensor: Nr:Datum:Temp:Abs-Feuchte:Windchill:Wind:
Aussen-T/F 751 02-09-2020 14:30:00 19.9 C 9.62 g/m*3 19.9 C 8.1 km/h
752 02-09-2020 14:35:00 20 C 9.33 g/m*3 20 C 4.8 km/h
753 02-09-2020 14:40:00 20.1 C 9.56 g/m*3 20.1 C 1.6 km/h
754 02-09-2020 14:45:00 20.3 C 9.32 g/m*3 20.3 C 8.1 km/h
755 02-09-2020 14:50:00 20.6 C 9.49 g/m*3 20.6 C 11.3 km/h
756 02-09-2020 14:55:00 20.9 C 9.83 g/m*3 20.9 C 9.7 km/h
757 02-09-2020 15:00:00 21 C 9.34 g/m*3 21 C 8.1 km/h
758 02-09-2020 15:05:00 20.9 C 9.47 g/m*3 20.9 C 4.8 km/h
759 02-09-2020 15:10:00 20.9 C 9.47 g/m*3 20.9 C 6.4 km/h
760 02-09-2020 15:15:00 20.9 C 9.47 g/m*3 20.9 C 9.7 km/h
761 02-09-2020 15:20:00 21 C 9.89 g/m*3 21 C 6.4 km/h
762 02-09-2020 15:25:00 21 C 9.71 g/m*3 21 C 1.6 km/h
763 02-09-2020 15:30:00 21 C 9.53 g/m*3 21 C 6.4 km/h
764 02-09-2020 15:35:00 21 C 9.16 g/m*3 21 C 4.8 km/h
765 02-09-2020 15:40:00 21.2 C 9.27 g/m*3 21.2 C 9.7 km/h
766 02-09-2020 15:45:00 21.3 C 9.13 g/m*3 21.3 C 8.1 km/h
767 02-09-2020 15:50:00 21.4 C 9.19 g/m*3 21.4 C 4.8 km/h
768 02-09-2020 15:55:00 21.6 C 9.67 g/m*3 21.6 C 6.4 km/h
769 02-09-2020 16:00:00 21.6 C 8.91 g/m*3 21.6 C 11.3 km/h
770 02-09-2020 16:05:00 21.7 C 9.16 g/m*3 21.7 C 8.1 km/h
771 02-09-2020 16:10:00 21.7 C 8.77 g/m*3 21.7 C 14.5 km/h
772 02-09-2020 16:15:00 21.7 C 8.77 g/m*3 21.7 C 8.1 km/h
773 02-09-2020 16:20:00 21.8 C 9.21 g/m*3 21.8 C 0 km/h
774 02-09-2020 16:25:00 21.9 C 9.07 g/m*3 21.9 C 3.2 km/h
775 02-09-2020 16:30:00 21.9 C 10.42 g/m*3 21.9 C 0 km/h
Sensor: Nr:Datum:Temp:Abs-Feuchte:Windchill:Wind:
Aussen-T/F 776 02-09-2020 16:35:00 21.9 C 9.65 g/m*3 21.9 C 0 km/h
777 02-09-2020 16:40:00 21.9 C 9.65 g/m*3 21.9 C 0 km/h
778 02-09-2020 16:45:00 22.3 C 9.87 g/m*3 22.3 C 3.2 km/h
779 02-09-2020 16:50:00 22.7 C 10.3 g/m*3 22.7 C 0 km/h
780 02-09-2020 16:55:00 23.2 C 9.36 g/m*3 23.2 C 1.6 km/h
781 02-09-2020 17:00:00 23.4 C 10.51 g/m*3 23.4 C 0 km/h
782 02-09-2020 17:05:00 23.3 C 11.71 g/m*3 23.3 C 0 km/h
783 02-09-2020 17:10:00 23.2 C 11.85 g/m*3 23.2 C 0 km/h
784 02-09-2020 17:15:00 23.4 C 10.3 g/m*3 23.4 C 0 km/h
785 02-09-2020 17:20:00 23.7 C 8.98 g/m*3 23.7 C 4.8 km/h
786 02-09-2020 17:25:00 23.8 C 8.6 g/m*3 23.8 C 1.6 km/h
787 02-09-2020 17:30:00 23.8 C 9.03 g/m*3 23.8 C 9.7 km/h
788 02-09-2020 17:35:00 23.4 C 9.04 g/m*3 23.4 C 11.3 km/h
789 02-09-2020 17:40:00 22.8 C 8.94 g/m*3 22.8 C 9.7 km/h
790 02-09-2020 17:45:00 22.3 C 9.28 g/m*3 22.3 C 3.2 km/h
791 02-09-2020 17:50:00 21.9 C 9.65 g/m*3 21.9 C 4.8 km/h
792 02-09-2020 17:55:00 21.6 C 10.81 g/m*3 21.6 C 1.6 km/h
793 02-09-2020 18:00:00 21.2 C 10.75 g/m*3 21.2 C 3.2 km/h
794 02-09-2020 18:05:00 20.7 C 10.98 g/m*3 20.7 C 1.6 km/h
795 02-09-2020 18:10:00 20.2 C 11.02 g/m*3 20.2 C 0 km/h
796 02-09-2020 18:15:00 19.9 C 11.17 g/m*3 19.9 C 0 km/h
797 02-09-2020 18:20:00 19.7 C 11.21 g/m*3 19.7 C 4.8 km/h
798 02-09-2020 18:25:00 19.6 C 11.48 g/m*3 19.6 C 0 km/h
799 02-09-2020 18:30:00 19.6 C 11.65 g/m*3 19.6 C 0 km/h
800 02-09-2020 18:35:00 19.7 C 11.38 g/m*3 19.7 C 0 km/h
Sensor: Nr:Datum:Temp:Abs-Feuchte:Windchill:Wind:
Aussen-T/F 801 02-09-2020 18:40:00 19.8 C 11.61 g/m*3 19.8 C 0 km/h
802 02-09-2020 18:45:00 19.9 C 11.51 g/m*3 19.9 C 0 km/h
803 02-09-2020 18:50:00 19.8 C 11.44 g/m*3 19.8 C 0 km/h
804 02-09-2020 18:55:00 19.7 C 11.38 g/m*3 19.7 C 0 km/h
805 02-09-2020 19:00:00 19.4 C 11.35 g/m*3 19.4 C 0 km/h
806 02-09-2020 19:05:00 19.2 C 9.73 g/m*3 19.2 C 0 km/h
807 02-09-2020 19:10:00 19.3 C 11.28 g/m*3 19.3 C 1.6 km/h
808 02-09-2020 19:15:00 19.2 C 11.21 g/m*3 19.2 C 3.2 km/h
809 02-09-2020 19:20:00 19.1 C 10.98 g/m*3 19.1 C 4.8 km/h
810 02-09-2020 19:25:00 18.8 C 10.79 g/m*3 18.8 C 4.8 km/h
811 02-09-2020 19:30:00 18.6 C 10.66 g/m*3 18.6 C 0 km/h
812 02-09-2020 19:35:00 18.3 C 10.48 g/m*3 18.3 C 0 km/h
813 02-09-2020 19:40:00 18.1 C 10.66 g/m*3 18.1 C 6.4 km/h
814 02-09-2020 19:45:00 17.8 C 10.32 g/m*3 17.8 C 8.1 km/h
815 02-09-2020 19:50:00 17.6 C 10.2 g/m*3 17.6 C 8.1 km/h
816 02-09-2020 19:55:00 17.3 C 10.02 g/m*3 17.3 C 8.1 km/h
817 02-09-2020 20:00:00 17.1 C 9.9 g/m*3 17.1 C 8.1 km/h
818 02-09-2020 20:05:00 16.9 C 9.64 g/m*3 16.9 C 8.1 km/h
819 02-09-2020 20:10:00 16.7 C 9.66 g/m*3 16.7 C 8.1 km/h
820 02-09-2020 20:15:00 16.5 C 9.69 g/m*3 16.5 C 8.1 km/h
821 02-09-2020 20:20:00 16.3 C 9.43 g/m*3 16.3 C 8.1 km/h
822 02-09-2020 20:25:00 16.2 C 9.38 g/m*3 16.2 C 8.1 km/h
823 02-09-2020 20:30:00 16.1 C 9.46 g/m*3 16.1 C 6.4 km/h
824 02-09-2020 20:35:00 16.1 C 9.46 g/m*3 16.1 C 8.1 km/h
825 02-09-2020 20:40:00 15.9 C 9.34 g/m*3 15.9 C 6.4 km/h
Sensor: Nr:Datum:Temp:Abs-Feuchte:Windchill:Wind:
Aussen-T/F 826 02-09-2020 20:45:00 15.8 C 9.56 g/m*3 15.8 C 6.4 km/h
827 02-09-2020 20:50:00 15.7 C 9.5 g/m*3 15.7 C 6.4 km/h
828 02-09-2020 20:55:00 15.7 C 9.77 g/m*3 15.7 C 6.4 km/h
829 02-09-2020 21:00:00 15.5 C 9.52 g/m*3 15.5 C 0 km/h
830 02-09-2020 21:05:00 15.4 C 9.46 g/m*3 15.4 C 0 km/h
831 02-09-2020 21:10:00 15.3 C 9.66 g/m*3 15.3 C 0 km/h
832 02-09-2020 21:15:00 15.2 C 9.73 g/m*3 15.2 C 0 km/h
833 02-09-2020 21:20:00 15.1 C 9.8 g/m*3 15.1 C 0 km/h
834 02-09-2020 21:25:00 14.8 C 9.63 g/m*3 14.8 C 0 km/h
835 02-09-2020 21:30:00 14.7 C 9.69 g/m*3 14.7 C 0 km/h
836 02-09-2020 21:35:00 14.5 C 9.58 g/m*3 14.5 C 0 km/h
837 02-09-2020 21:40:00 14.4 C 9.77 g/m*3 14.4 C 0 km/h
838 02-09-2020 21:45:00 14.3 C 9.71 g/m*3 14.3 C 0 km/h
839 02-09-2020 21:50:00 14.2 C 9.89 g/m*3 14.2 C 0 km/h
840 02-09-2020 21:55:00 14.2 C 9.89 g/m*3 14.2 C 0 km/h
841 02-09-2020 22:00:00 14.2 C 9.89 g/m*3 14.2 C 0 km/h
842 02-09-2020 22:05:00 14.1 C 9.95 g/m*3 14.1 C 0 km/h
843 02-09-2020 22:10:00 14.1 C 9.95 g/m*3 14.1 C 0 km/h
844 02-09-2020 22:15:00 14.2 C 10.14 g/m*3 14.2 C 0 km/h
845 02-09-2020 22:20:00 14.2 C 10.01 g/m*3 14.2 C 0 km/h
846 02-09-2020 22:25:00 14.2 C 10.01 g/m*3 14.2 C 0 km/h
847 02-09-2020 22:30:00 14.2 C 10.14 g/m*3 14.2 C 0 km/h
848 02-09-2020 22:35:00 14.2 C 10.14 g/m*3 14.2 C 0 km/h
849 02-09-2020 22:40:00 14.2 C 10.14 g/m*3 14.2 C 0 km/h
850 02-09-2020 22:45:00 14.2 C 10.14 g/m*3 14.2 C 0 km/h
Sensor: Nr:Datum:Temp:Abs-Feuchte:Windchill:Wind:
Aussen-T/F 851 02-09-2020 22:50:00 14.1 C 9.95 g/m*3 14.1 C 0 km/h
852 02-09-2020 22:55:00 14.1 C 10.07 g/m*3 14.1 C 0 km/h
853 02-09-2020 23:00:00 14 C 10.01 g/m*3 14 C 0 km/h
854 02-09-2020 23:05:00 13.9 C 9.95 g/m*3 13.9 C 0 km/h
855 02-09-2020 23:10:00 13.9 C 9.95 g/m*3 13.9 C 0 km/h
856 02-09-2020 23:15:00 13.8 C 9.89 g/m*3 13.8 C 0 km/h
857 02-09-2020 23:20:00 13.7 C 9.71 g/m*3 13.7 C 0 km/h
858 02-09-2020 23:25:00 13.6 C 9.77 g/m*3 13.6 C 0 km/h
859 02-09-2020 23:30:00 13.5 C 9.59 g/m*3 13.5 C 0 km/h
860 02-09-2020 23:35:00 13.3 C 9.47 g/m*3 13.3 C 0 km/h
861 02-09-2020 23:40:00 13.2 C 9.53 g/m*3 13.2 C 0 km/h
862 02-09-2020 23:45:00 13.2 C 9.53 g/m*3 13.2 C 0 km/h
863 02-09-2020 23:50:00 13 C 9.3 g/m*3 13 C 0 km/h
864 02-09-2020 23:55:00 12.9 C 9.35 g/m*3 12.9 C 0 km/h
865 03-09-2020 00:00:00 12.8 C 9.41 g/m*3 12.8 C 0 km/h
866 03-09-2020 00:05:00 12.8 C 9.41 g/m*3 12.8 C 0 km/h
867 03-09-2020 00:10:00 12.7 C 9.35 g/m*3 12.7 C 0 km/h
868 03-09-2020 00:15:00 12.6 C 9.29 g/m*3 12.6 C 0 km/h
869 03-09-2020 00:20:00 12.4 C 9.29 g/m*3 12.4 C 0 km/h
870 03-09-2020 00:25:00 12.4 C 9.29 g/m*3 12.4 C 0 km/h
871 03-09-2020 00:30:00 12.3 C 9.23 g/m*3 12.3 C 0 km/h
872 03-09-2020 00:35:00 12.2 C 9.17 g/m*3 12.2 C 0 km/h
873 03-09-2020 00:40:00 12.1 C 9.22 g/m*3 12.1 C 0 km/h
874 03-09-2020 00:45:00 11.9 C 9.11 g/m*3 11.9 C 0 km/h
875 03-09-2020 00:50:00 11.9 C 9.11 g/m*3 11.9 C 0 km/h
Sensor: Nr:Datum:Temp:Abs-Feuchte:Windchill:Wind:
Aussen-T/F 876 03-09-2020 00:55:00 11.8 C 9.05 g/m*3 11.8 C 0 km/h
877 03-09-2020 01:00:00 11.8 C 9.16 g/m*3 11.8 C 0 km/h
878 03-09-2020 01:05:00 11.7 C 9.1 g/m*3 11.7 C 0 km/h
879 03-09-2020 01:10:00 11.6 C 9.04 g/m*3 11.6 C 0 km/h
880 03-09-2020 01:15:00 11.6 C 9.04 g/m*3 11.6 C 0 km/h
881 03-09-2020 01:20:00 11.5 C 8.99 g/m*3 11.5 C 0 km/h
882 03-09-2020 01:25:00 11.4 C 9.03 g/m*3 11.4 C 0 km/h
883 03-09-2020 01:30:00 11.3 C 8.98 g/m*3 11.3 C 0 km/h
884 03-09-2020 01:35:00 11.3 C 8.98 g/m*3 11.3 C 0 km/h
885 03-09-2020 01:40:00 11.2 C 8.92 g/m*3 11.2 C 0 km/h
886 03-09-2020 01:45:00 11.2 C 8.92 g/m*3 11.2 C 0 km/h
887 03-09-2020 01:50:00 11.1 C 8.96 g/m*3 11.1 C 0 km/h
888 03-09-2020 01:55:00 10.9 C 8.85 g/m*3 10.9 C 0 km/h
889 03-09-2020 02:00:00 10.8 C 8.8 g/m*3 10.8 C 0 km/h
890 03-09-2020 02:05:00 10.8 C 8.8 g/m*3 10.8 C 0 km/h
891 03-09-2020 02:10:00 10.7 C 8.74 g/m*3 10.7 C 0 km/h
892 03-09-2020 02:15:00 10.7 C 8.74 g/m*3 10.7 C 0 km/h
893 03-09-2020 02:20:00 10.6 C 8.78 g/m*3 10.6 C 0 km/h
894 03-09-2020 02:25:00 10.6 C 8.78 g/m*3 10.6 C 0 km/h
895 03-09-2020 02:30:00 10.5 C 8.73 g/m*3 10.5 C 0 km/h
896 03-09-2020 02:35:00 10.4 C 8.67 g/m*3 10.4 C 0 km/h
897 03-09-2020 02:40:00 10.4 C 8.67 g/m*3 10.4 C 0 km/h
898 03-09-2020 02:45:00 10.4 C 8.77 g/m*3 10.4 C 0 km/h
899 03-09-2020 02:50:00 10.4 C 8.77 g/m*3 10.4 C 0 km/h
900 03-09-2020 02:55:00 10.4 C 8.77 g/m*3 10.4 C 0 km/h
Sensor: Nr:Datum:Temp:Abs-Feuchte:Windchill:Wind:
Aussen-T/F 901 03-09-2020 03:00:00 10.4 C 8.77 g/m*3 10.4 C 0 km/h
902 03-09-2020 03:05:00 10.4 C 8.77 g/m*3 10.4 C 0 km/h
903 03-09-2020 03:10:00 10.4 C 8.77 g/m*3 10.4 C 0 km/h
904 03-09-2020 03:15:00 10.3 C 8.71 g/m*3 10.3 C 0 km/h
905 03-09-2020 03:20:00 10.3 C 8.71 g/m*3 10.3 C 0 km/h
906 03-09-2020 03:25:00 10.3 C 8.81 g/m*3 10.3 C 0 km/h
907 03-09-2020 03:30:00 10.2 C 8.76 g/m*3 10.2 C 0 km/h
908 03-09-2020 03:35:00 10.2 C 8.76 g/m*3 10.2 C 0 km/h
909 03-09-2020 03:40:00 10.2 C 8.76 g/m*3 10.2 C 0 km/h
910 03-09-2020 03:45:00 10.2 C 8.76 g/m*3 10.2 C 0 km/h
911 03-09-2020 03:50:00 10.2 C 8.76 g/m*3 10.2 C 0 km/h
912 03-09-2020 03:55:00 10.2 C 8.76 g/m*3 10.2 C 0 km/h
913 03-09-2020 04:00:00 10.1 C 8.7 g/m*3 10.1 C 0 km/h
914 03-09-2020 04:05:00 10.1 C 8.7 g/m*3 10.1 C 0 km/h
915 03-09-2020 04:10:00 10.1 C 8.7 g/m*3 10.1 C 0 km/h
916 03-09-2020 04:15:00 10 C 8.64 g/m*3 10 C 0 km/h
917 03-09-2020 04:20:00 10 C 8.64 g/m*3 10 C 0 km/h
918 03-09-2020 04:25:00 10.1 C 8.79 g/m*3 10.1 C 0 km/h
919 03-09-2020 04:30:00 10.1 C 8.79 g/m*3 10.1 C 0 km/h
920 03-09-2020 04:35:00 10.1 C 8.79 g/m*3 10.1 C 0 km/h
921 03-09-2020 04:40:00 10.1 C 8.79 g/m*3 10.1 C 0 km/h
922 03-09-2020 04:45:00 10.1 C 8.79 g/m*3 10.1 C 0 km/h
923 03-09-2020 04:50:00 10 C 8.74 g/m*3 10 C 0 km/h
924 03-09-2020 04:55:00 9.9 C 8.68 g/m*3 9.9 C 0 km/h
925 03-09-2020 05:00:00 9.9 C 8.68 g/m*3 9.9 C 0 km/h
Sensor: Nr:Datum:Temp:Abs-Feuchte:Windchill:Wind:
Aussen-T/F 926 03-09-2020 05:05:00 9.9 C 8.68 g/m*3 9.9 C 0 km/h
927 03-09-2020 05:10:00 9.8 C 8.63 g/m*3 9.8 C 0 km/h
928 03-09-2020 05:15:00 9.8 C 8.63 g/m*3 9.8 C 0 km/h
929 03-09-2020 05:20:00 9.7 C 8.57 g/m*3 9.7 C 0 km/h
930 03-09-2020 05:25:00 9.7 C 8.57 g/m*3 9.7 C 0 km/h
931 03-09-2020 05:30:00 9.7 C 8.57 g/m*3 9.7 C 0 km/h
932 03-09-2020 05:35:00 9.8 C 8.72 g/m*3 9.8 C 0 km/h
933 03-09-2020 05:40:00 9.8 C 8.72 g/m*3 9.8 C 0 km/h
934 03-09-2020 05:45:00 9.9 C 8.78 g/m*3 9.9 C 1.6 km/h
935 03-09-2020 05:50:00 10 C 8.83 g/m*3 10 C 1.6 km/h
936 03-09-2020 05:55:00 10.1 C 8.89 g/m*3 10.1 C 0 km/h
937 03-09-2020 06:00:00 10.1 C 8.89 g/m*3 10.1 C 0 km/h
938 03-09-2020 06:05:00 10.1 C 8.89 g/m*3 10.1 C 0 km/h
939 03-09-2020 06:10:00 10.1 C 8.89 g/m*3 10.1 C 0 km/h
940 03-09-2020 06:15:00 10.1 C 8.89 g/m*3 10.1 C 0 km/h
941 03-09-2020 06:20:00 10.1 C 8.89 g/m*3 10.1 C 0 km/h
942 03-09-2020 06:25:00 10.1 C 8.89 g/m*3 10.1 C 1.6 km/h
943 03-09-2020 06:30:00 10.2 C 8.95 g/m*3 10.2 C 0 km/h
944 03-09-2020 06:35:00 10.2 C 8.95 g/m*3 10.2 C 0 km/h
945 03-09-2020 06:40:00 10.2 C 8.95 g/m*3 10.2 C 0 km/h
946 03-09-2020 06:45:00 10.2 C 8.95 g/m*3 10.2 C 0 km/h
947 03-09-2020 06:50:00 10.2 C 8.95 g/m*3 10.2 C 0 km/h
948 03-09-2020 06:55:00 10.1 C 8.89 g/m*3 10.1 C 0 km/h
949 03-09-2020 07:00:00 10.2 C 8.95 g/m*3 10.2 C 1.6 km/h
950 03-09-2020 07:05:00 10.2 C 8.95 g/m*3 10.2 C 0 km/h
Sensor: Nr:Datum:Temp:Abs-Feuchte:Windchill:Wind:
Aussen-T/F 951 03-09-2020 07:10:00 10.2 C 8.95 g/m*3 10.2 C 0 km/h
952 03-09-2020 07:15:00 10.3 C 9 g/m*3 10.3 C 0 km/h
953 03-09-2020 07:20:00 10.3 C 9 g/m*3 10.3 C 0 km/h
954 03-09-2020 07:25:00 10.3 C 9 g/m*3 10.3 C 0 km/h
955 03-09-2020 07:30:00 10.4 C 9.06 g/m*3 10.4 C 0 km/h
956 03-09-2020 07:35:00 10.4 C 9.06 g/m*3 10.4 C 0 km/h
957 03-09-2020 07:40:00 10.4 C 9.06 g/m*3 10.4 C 0 km/h
958 03-09-2020 07:45:00 10.5 C 9.12 g/m*3 10.5 C 0 km/h
959 03-09-2020 07:50:00 10.5 C 9.12 g/m*3 10.5 C 0 km/h
960 03-09-2020 07:55:00 10.6 C 9.17 g/m*3 10.6 C 0 km/h
961 03-09-2020 08:00:00 10.7 C 9.23 g/m*3 10.7 C 0 km/h
962 03-09-2020 08:05:00 10.7 C 9.23 g/m*3 10.7 C 0 km/h
963 03-09-2020 08:10:00 10.8 C 9.29 g/m*3 10.8 C 0 km/h
964 03-09-2020 08:15:00 10.9 C 9.35 g/m*3 10.9 C 0 km/h
965 03-09-2020 08:20:00 11.1 C 9.47 g/m*3 11.1 C 0 km/h
966 03-09-2020 08:25:00 11.2 C 9.53 g/m*3 11.2 C 1.6 km/h
967 03-09-2020 08:30:00 11.3 C 9.49 g/m*3 11.3 C 0 km/h
968 03-09-2020 08:35:00 11.4 C 9.55 g/m*3 11.4 C 0 km/h
969 03-09-2020 08:40:00 11.6 C 9.67 g/m*3 11.6 C 0 km/h
970 03-09-2020 08:45:00 11.7 C 9.62 g/m*3 11.7 C 1.6 km/h
971 03-09-2020 08:50:00 11.8 C 9.58 g/m*3 11.8 C 4.8 km/h
972 03-09-2020 08:55:00 11.9 C 9.64 g/m*3 11.9 C 1.6 km/h
973 03-09-2020 09:00:00 12 C 9.59 g/m*3 12 C 3.2 km/h
974 03-09-2020 09:05:00 12.1 C 9.65 g/m*3 12.1 C 1.6 km/h
975 03-09-2020 09:10:00 12.2 C 9.71 g/m*3 12.2 C 0 km/h
Sensor: Nr:Datum:Temp:Abs-Feuchte:Windchill:Wind:
Aussen-T/F 976 03-09-2020 09:15:00 12.3 C 9.66 g/m*3 12.3 C 1.6 km/h
977 03-09-2020 09:20:00 12.5 C 9.78 g/m*3 12.5 C 1.6 km/h
978 03-09-2020 09:25:00 12.7 C 9.91 g/m*3 12.7 C 0 km/h
979 03-09-2020 09:30:00 12.9 C 10.03 g/m*3 12.9 C 1.6 km/h
980 03-09-2020 09:35:00 13 C 9.98 g/m*3 13 C 1.6 km/h
981 03-09-2020 09:40:00 13.2 C 10.1 g/m*3 13.2 C 3.2 km/h
982 03-09-2020 09:45:00 13.3 C 10.17 g/m*3 13.3 C 1.6 km/h
983 03-09-2020 09:50:00 13.4 C 10.11 g/m*3 13.4 C 0 km/h
984 03-09-2020 09:55:00 13.6 C 10.24 g/m*3 13.6 C 0 km/h
985 03-09-2020 10:00:00 13.7 C 10.18 g/m*3 13.7 C 1.6 km/h
986 03-09-2020 10:05:00 13.8 C 10.13 g/m*3 13.8 C 3.2 km/h
987 03-09-2020 10:10:00 13.9 C 10.31 g/m*3 13.9 C 0 km/h
988 03-09-2020 10:15:00 14.1 C 10.32 g/m*3 14.1 C 1.6 km/h
989 03-09-2020 10:20:00 14.2 C 10.26 g/m*3 14.2 C 0 km/h
990 03-09-2020 10:25:00 14.4 C 10.38 g/m*3 14.4 C 0 km/h
991 03-09-2020 10:30:00 14.7 C 10.58 g/m*3 14.7 C 0 km/h
992 03-09-2020 10:35:00 14.9 C 10.58 g/m*3 14.9 C 0 km/h
993 03-09-2020 10:40:00 15.1 C 10.71 g/m*3 15.1 C 0 km/h
994 03-09-2020 10:45:00 15.3 C 10.71 g/m*3 15.3 C 0 km/h
995 03-09-2020 10:50:00 15.5 C 10.84 g/m*3 15.5 C 0 km/h
996 03-09-2020 10:55:00 15.7 C 10.97 g/m*3 15.7 C 0 km/h
997 03-09-2020 11:00:00 16 C 11.04 g/m*3 16 C 0 km/h
998 03-09-2020 11:05:00 16.3 C 11.1 g/m*3 16.3 C 1.6 km/h
999 03-09-2020 11:10:00 16.7 C 11.08 g/m*3 16.7 C 4.8 km/h
1000 03-09-2020 11:15:00 17.1 C 11.21 g/m*3 17.1 C 4.8 km/h
Sensor: Nr:Datum:Temp:Abs-Feuchte:Windchill:Wind:
Aussen-T/F 1001 03-09-2020 11:20:00 17.4 C 11.12 g/m*3 17.4 C 9.7 km/h
1002 03-09-2020 11:25:00 17.7 C 11.16 g/m*3 17.7 C 11.3 km/h
1003 03-09-2020 11:30:00 18 C 11.06 g/m*3 18 C 9.7 km/h
1004 03-09-2020 11:35:00 18.2 C 11.19 g/m*3 18.2 C 8.1 km/h
1005 03-09-2020 11:40:00 18.4 C 11.17 g/m*3 18.4 C 8.1 km/h
1006 03-09-2020 11:45:00 18.5 C 10.92 g/m*3 18.5 C 8.1 km/h
1007 03-09-2020 11:50:00 18.6 C 11.14 g/m*3 18.6 C 6.4 km/h
1008 03-09-2020 11:55:00 18.7 C 11.21 g/m*3 18.7 C 9.7 km/h
1009 03-09-2020 12:00:00 18.8 C 11.11 g/m*3 18.8 C 8.1 km/h
1010 03-09-2020 12:05:00 18.8 C 10.95 g/m*3 18.8 C 6.4 km/h
1011 03-09-2020 12:10:00 19.1 C 11.31 g/m*3 19.1 C 4.8 km/h
1012 03-09-2020 12:15:00 19.2 C 11.21 g/m*3 19.2 C 4.8 km/h
1013 03-09-2020 12:20:00 19.2 C 11.21 g/m*3 19.2 C 11.3 km/h
1014 03-09-2020 12:25:00 19.3 C 11.11 g/m*3 19.3 C 8.1 km/h
1015 03-09-2020 12:30:00 19.4 C 11.01 g/m*3 19.4 C 11.3 km/h
1016 03-09-2020 12:35:00 19.5 C 11.08 g/m*3 19.5 C 8.1 km/h
1017 03-09-2020 12:40:00 19.6 C 11.14 g/m*3 19.6 C 9.7 km/h
1018 03-09-2020 12:45:00 19.7 C 11.04 g/m*3 19.7 C 8.1 km/h
1019 03-09-2020 12:50:00 19.7 C 11.21 g/m*3 19.7 C 9.7 km/h
1020 03-09-2020 12:55:00 19.7 C 11.04 g/m*3 19.7 C 11.3 km/h
1021 03-09-2020 13:00:00 19.7 C 10.87 g/m*3 19.7 C 11.3 km/h
1022 03-09-2020 13:05:00 19.6 C 11.14 g/m*3 19.6 C 9.7 km/h
1023 03-09-2020 13:10:00 19.5 C 11.08 g/m*3 19.5 C 8.1 km/h
1024 03-09-2020 13:15:00 19.5 C 11.08 g/m*3 19.5 C 9.7 km/h
1025 03-09-2020 13:20:00 19.3 C 10.95 g/m*3 19.3 C 11.3 km/h
Sensor: Nr:Datum:Temp:Abs-Feuchte:Windchill:Wind:
Aussen-T/F 1026 03-09-2020 13:25:00 19.3 C 11.11 g/m*3 19.3 C 9.7 km/h
1027 03-09-2020 13:30:00 19.1 C 11.31 g/m*3 19.1 C 6.4 km/h
1028 03-09-2020 13:35:00 18.9 C 11.83 g/m*3 18.9 C 3.2 km/h
1029 03-09-2020 13:40:00 18.8 C 12.24 g/m*3 18.8 C 8.1 km/h
1030 03-09-2020 13:45:00 18.6 C 12.26 g/m*3 18.6 C 4.8 km/h
1031 03-09-2020 13:50:00 18.4 C 12.43 g/m*3 18.4 C 1.6 km/h
1032 03-09-2020 13:55:00 18.3 C 12.35 g/m*3 18.3 C 4.8 km/h
1033 03-09-2020 14:00:00 18.1 C 12.21 g/m*3 18.1 C 8.1 km/h
1034 03-09-2020 14:05:00 17.9 C 11.91 g/m*3 17.9 C 6.4 km/h
1035 03-09-2020 14:10:00 17.8 C 11.99 g/m*3 17.8 C 8.1 km/h
1036 03-09-2020 14:15:00 17.7 C 11.77 g/m*3 17.7 C 6.4 km/h
1037 03-09-2020 14:20:00 17.6 C 11.85 g/m*3 17.6 C 8.1 km/h
1038 03-09-2020 14:25:00 17.6 C 11.85 g/m*3 17.6 C 8.1 km/h
1039 03-09-2020 14:30:00 17.5 C 11.63 g/m*3 17.5 C 3.2 km/h
1040 03-09-2020 14:35:00 17.6 C 11.85 g/m*3 17.6 C 0 km/h
1041 03-09-2020 14:40:00 17.7 C 11.92 g/m*3 17.7 C 0 km/h
1042 03-09-2020 14:45:00 17.7 C 11.92 g/m*3 17.7 C 0 km/h
1043 03-09-2020 14:50:00 17.8 C 11.84 g/m*3 17.8 C 3.2 km/h
1044 03-09-2020 14:55:00 17.8 C 11.99 g/m*3 17.8 C 0 km/h
1045 03-09-2020 15:00:00 17.9 C 12.06 g/m*3 17.9 C 1.6 km/h
1046 03-09-2020 15:05:00 17.9 C 12.06 g/m*3 17.9 C 4.8 km/h
1047 03-09-2020 15:10:00 17.9 C 12.21 g/m*3 17.9 C 1.6 km/h
1048 03-09-2020 15:15:00 18.1 C 12.67 g/m*3 18.1 C 0 km/h
1049 03-09-2020 15:20:00 18.1 C 12.67 g/m*3 18.1 C 0 km/h
1050 03-09-2020 15:25:00 18.2 C 12.75 g/m*3 18.2 C 3.2 km/h
Sensor: Nr:Datum:Temp:Abs-Feuchte:Windchill:Wind:
Aussen-T/F 1051 03-09-2020 15:30:00 18.1 C 12.21 g/m*3 18.1 C 1.6 km/h
1052 03-09-2020 15:35:00 18.1 C 12.36 g/m*3 18.1 C 3.2 km/h
1053 03-09-2020 15:40:00 18.1 C 12.21 g/m*3 18.1 C 1.6 km/h
1054 03-09-2020 15:45:00 18.1 C 12.05 g/m*3 18.1 C 12.9 km/h
1055 03-09-2020 15:50:00 17.9 C 12.21 g/m*3 17.9 C 16.1 km/h
1056 03-09-2020 15:55:00 17.5 C 12.23 g/m*3 17.5 C 16.1 km/h
1057 03-09-2020 16:00:00 17.2 C 12.3 g/m*3 17.2 C 6.4 km/h
1058 03-09-2020 16:05:00 16.7 C 12.08 g/m*3 16.7 C 9.7 km/h
1059 03-09-2020 16:10:00 16.4 C 12.14 g/m*3 16.4 C 6.4 km/h
1060 03-09-2020 16:15:00 16.2 C 12.27 g/m*3 16.2 C 4.8 km/h
1061 03-09-2020 16:20:00 16.1 C 12.2 g/m*3 16.1 C 1.6 km/h
1062 03-09-2020 16:25:00 16.1 C 12.34 g/m*3 16.1 C 0 km/h
1063 03-09-2020 16:30:00 16.1 C 12.47 g/m*3 16.1 C 1.6 km/h
1064 03-09-2020 16:35:00 16.1 C 12.47 g/m*3 16.1 C 1.6 km/h
1065 03-09-2020 16:40:00 16 C 12.4 g/m*3 16 C 4.8 km/h
1066 03-09-2020 16:45:00 15.8 C 12.25 g/m*3 15.8 C 1.6 km/h
1067 03-09-2020 16:50:00 15.8 C 12.38 g/m*3 15.8 C 3.2 km/h
1068 03-09-2020 16:55:00 15.9 C 12.46 g/m*3 15.9 C 0 km/h
1069 03-09-2020 17:00:00 15.9 C 12.59 g/m*3 15.9 C 0 km/h
1070 03-09-2020 17:05:00 15.9 C 12.59 g/m*3 15.9 C 1.6 km/h
1071 03-09-2020 17:10:00 15.9 C 12.46 g/m*3 15.9 C 0 km/h
1072 03-09-2020 17:15:00 15.9 C 12.46 g/m*3 15.9 C 3.2 km/h
1073 03-09-2020 17:20:00 15.8 C 12.38 g/m*3 15.8 C 0 km/h
1074 03-09-2020 17:25:00 15.8 C 12.38 g/m*3 15.8 C 0 km/h
1075 03-09-2020 17:30:00 15.8 C 12.52 g/m*3 15.8 C 1.6 km/h
Sensor: Nr:Datum:Temp:Abs-Feuchte:Windchill:Wind:
Aussen-T/F 1076 03-09-2020 17:35:00 15.8 C 12.52 g/m*3 15.8 C 0 km/h
1077 03-09-2020 17:40:00 15.9 C 12.59 g/m*3 15.9 C 0 km/h
1078 03-09-2020 17:45:00 15.8 C 12.52 g/m*3 15.8 C 3.2 km/h
1079 03-09-2020 17:50:00 15.9 C 12.59 g/m*3 15.9 C 3.2 km/h
1080 03-09-2020 17:55:00 15.9 C 12.59 g/m*3 15.9 C 1.6 km/h
1081 03-09-2020 18:00:00 15.9 C 12.59 g/m*3 15.9 C 1.6 km/h
1082 03-09-2020 18:05:00 15.9 C 12.59 g/m*3 15.9 C 0 km/h
1083 03-09-2020 18:10:00 15.9 C 12.59 g/m*3 15.9 C 0 km/h
1084 03-09-2020 18:15:00 15.9 C 12.59 g/m*3 15.9 C 0 km/h
1085 03-09-2020 18:20:00 16.1 C 12.88 g/m*3 16.1 C 0 km/h
1086 03-09-2020 18:25:00 16.2 C 12.96 g/m*3 16.2 C 1.6 km/h
1087 03-09-2020 18:30:00 16.3 C 13.04 g/m*3 16.3 C 1.6 km/h
1088 03-09-2020 18:35:00 16.3 C 13.04 g/m*3 16.3 C 0 km/h
1089 03-09-2020 18:40:00 16.3 C 13.04 g/m*3 16.3 C 3.2 km/h
1090 03-09-2020 18:45:00 16.2 C 12.82 g/m*3 16.2 C 3.2 km/h
1091 03-09-2020 18:50:00 16.2 C 12.82 g/m*3 16.2 C 1.6 km/h
1092 03-09-2020 18:55:00 16.2 C 12.82 g/m*3 16.2 C 3.2 km/h
1093 03-09-2020 19:00:00 16.1 C 12.75 g/m*3 16.1 C 3.2 km/h
1094 03-09-2020 19:05:00 16.1 C 12.75 g/m*3 16.1 C 0 km/h
1095 03-09-2020 19:10:00 16.1 C 12.88 g/m*3 16.1 C 0 km/h
1096 03-09-2020 19:15:00 16.1 C 12.88 g/m*3 16.1 C 1.6 km/h
1097 03-09-2020 19:20:00 16.1 C 12.88 g/m*3 16.1 C 3.2 km/h
1098 03-09-2020 19:25:00 16 C 12.81 g/m*3 16 C 3.2 km/h
1099 03-09-2020 19:30:00 15.9 C 12.73 g/m*3 15.9 C 3.2 km/h
1100 03-09-2020 19:35:00 15.9 C 12.73 g/m*3 15.9 C 3.2 km/h
Sensor: Nr:Datum:Temp:Abs-Feuchte:Windchill:Wind:
Aussen-T/F 1101 03-09-2020 19:40:00 15.8 C 12.65 g/m*3 15.8 C 3.2 km/h
1102 03-09-2020 19:45:00 15.8 C 12.65 g/m*3 15.8 C 3.2 km/h
1103 03-09-2020 19:50:00 15.8 C 12.65 g/m*3 15.8 C 3.2 km/h
1104 03-09-2020 19:55:00 15.7 C 12.58 g/m*3 15.7 C 3.2 km/h
1105 03-09-2020 20:00:00 15.7 C 12.58 g/m*3 15.7 C 1.6 km/h
1106 03-09-2020 20:05:00 15.7 C 12.58 g/m*3 15.7 C 3.2 km/h
1107 03-09-2020 20:10:00 15.6 C 12.5 g/m*3 15.6 C 0 km/h
1108 03-09-2020 20:15:00 15.6 C 12.5 g/m*3 15.6 C 3.2 km/h
1109 03-09-2020 20:20:00 15.6 C 12.5 g/m*3 15.6 C 4.8 km/h
1110 03-09-2020 20:25:00 15.6 C 12.5 g/m*3 15.6 C 0 km/h
1111 03-09-2020 20:30:00 15.5 C 12.43 g/m*3 15.5 C 0 km/h
1112 03-09-2020 20:35:00 15.4 C 12.35 g/m*3 15.4 C 0 km/h
1113 03-09-2020 20:40:00 15.4 C 12.35 g/m*3 15.4 C 1.6 km/h
1114 03-09-2020 20:45:00 15.3 C 12.28 g/m*3 15.3 C 0 km/h
1115 03-09-2020 20:50:00 15.3 C 12.28 g/m*3 15.3 C 1.6 km/h
1116 03-09-2020 20:55:00 15.3 C 12.28 g/m*3 15.3 C 4.8 km/h
1117 03-09-2020 21:00:00 15.3 C 12.28 g/m*3 15.3 C 4.8 km/h
1118 03-09-2020 21:05:00 15.3 C 12.28 g/m*3 15.3 C 4.8 km/h
1119 03-09-2020 21:10:00 15.2 C 12.2 g/m*3 15.2 C 3.2 km/h
1120 03-09-2020 21:15:00 15.2 C 12.2 g/m*3 15.2 C 3.2 km/h
1121 03-09-2020 21:20:00 15.2 C 12.2 g/m*3 15.2 C 1.6 km/h
1122 03-09-2020 21:25:00 15.3 C 12.41 g/m*3 15.3 C 0 km/h
1123 03-09-2020 21:30:00 15.3 C 12.41 g/m*3 15.3 C 1.6 km/h
1124 03-09-2020 21:35:00 15.3 C 12.41 g/m*3 15.3 C 0 km/h
1125 03-09-2020 21:40:00 15.3 C 12.41 g/m*3 15.3 C 3.2 km/h
Sensor: Nr:Datum:Temp:Abs-Feuchte:Windchill:Wind:
Aussen-T/F 1126 03-09-2020 21:45:00 15.3 C 12.41 g/m*3 15.3 C 1.6 km/h
1127 03-09-2020 21:50:00 15.3 C 12.41 g/m*3 15.3 C 0 km/h
1128 03-09-2020 21:55:00 15.4 C 12.48 g/m*3 15.4 C 0 km/h
1129 03-09-2020 22:00:00 15.4 C 12.48 g/m*3 15.4 C 0 km/h
1130 03-09-2020 22:05:00 15.5 C 12.56 g/m*3 15.5 C 1.6 km/h
1131 03-09-2020 22:10:00 15.6 C 12.5 g/m*3 15.6 C 1.6 km/h
1132 03-09-2020 22:15:00 15.6 C 12.5 g/m*3 15.6 C 0 km/h
1133 03-09-2020 22:20:00 15.6 C 12.63 g/m*3 15.6 C 0 km/h
1134 03-09-2020 22:25:00 15.7 C 12.71 g/m*3 15.7 C 0 km/h
1135 03-09-2020 22:30:00 15.7 C 12.58 g/m*3 15.7 C 1.6 km/h
1136 03-09-2020 22:35:00 15.7 C 12.58 g/m*3 15.7 C 1.6 km/h
1137 03-09-2020 22:40:00 15.7 C 12.58 g/m*3 15.7 C 0 km/h
1138 03-09-2020 22:45:00 15.7 C 12.58 g/m*3 15.7 C 1.6 km/h
1139 03-09-2020 22:50:00 15.7 C 12.58 g/m*3 15.7 C 0 km/h
1140 03-09-2020 22:55:00 15.7 C 12.58 g/m*3 15.7 C 0 km/h
1141 03-09-2020 23:00:00 15.7 C 12.58 g/m*3 15.7 C 0 km/h
1142 03-09-2020 23:05:00 15.7 C 12.58 g/m*3 15.7 C 0 km/h
1143 03-09-2020 23:10:00 15.7 C 12.58 g/m*3 15.7 C 0 km/h
1144 03-09-2020 23:15:00 15.7 C 12.58 g/m*3 15.7 C 0 km/h
1145 03-09-2020 23:20:00 15.7 C 12.58 g/m*3 15.7 C 0 km/h
1146 03-09-2020 23:25:00 15.7 C 12.58 g/m*3 15.7 C 0 km/h
1147 03-09-2020 23:30:00 15.7 C 12.58 g/m*3 15.7 C 0 km/h
1148 03-09-2020 23:35:00 15.8 C 12.65 g/m*3 15.8 C 0 km/h
1149 03-09-2020 23:40:00 15.8 C 12.65 g/m*3 15.8 C 1.6 km/h
1150 03-09-2020 23:45:00 15.8 C 12.65 g/m*3 15.8 C 0 km/h
Sensor: Nr:Datum:Temp:Abs-Feuchte:Windchill:Wind:
Aussen-T/F 1151 03-09-2020 23:50:00 15.9 C 12.73 g/m*3 15.9 C 0 km/h
1152 03-09-2020 23:55:00 15.9 C 12.73 g/m*3 15.9 C 0 km/h
1153 04-09-2020 00:00:00 15.8 C 12.65 g/m*3 15.8 C 0 km/h
1154 04-09-2020 00:05:00 15.8 C 12.65 g/m*3 15.8 C 0 km/h
1155 04-09-2020 00:10:00 15.8 C 12.65 g/m*3 15.8 C 0 km/h
1156 04-09-2020 00:15:00 15.8 C 12.65 g/m*3 15.8 C 0 km/h
1157 04-09-2020 00:20:00 15.8 C 12.65 g/m*3 15.8 C 0 km/h
1158 04-09-2020 00:25:00 15.8 C 12.65 g/m*3 15.8 C 0 km/h
1159 04-09-2020 00:30:00 15.8 C 12.65 g/m*3 15.8 C 0 km/h
1160 04-09-2020 00:35:00 15.8 C 12.65 g/m*3 15.8 C 0 km/h
1161 04-09-2020 00:40:00 15.8 C 12.65 g/m*3 15.8 C 0 km/h
1162 04-09-2020 00:45:00 15.9 C 12.73 g/m*3 15.9 C 0 km/h
1163 04-09-2020 00:50:00 15.9 C 12.73 g/m*3 15.9 C 0 km/h
1164 04-09-2020 00:55:00 15.9 C 12.73 g/m*3 15.9 C 0 km/h
1165 04-09-2020 01:00:00 15.9 C 12.73 g/m*3 15.9 C 0 km/h
1166 04-09-2020 01:05:00 15.8 C 12.65 g/m*3 15.8 C 0 km/h
1167 04-09-2020 01:10:00 15.8 C 12.65 g/m*3 15.8 C 0 km/h
1168 04-09-2020 01:15:00 15.8 C 12.65 g/m*3 15.8 C 0 km/h
1169 04-09-2020 01:20:00 15.8 C 12.65 g/m*3 15.8 C 0 km/h
1170 04-09-2020 01:25:00 15.7 C 12.58 g/m*3 15.7 C 0 km/h
1171 04-09-2020 01:30:00 15.7 C 12.58 g/m*3 15.7 C 0 km/h
1172 04-09-2020 01:35:00 15.7 C 12.58 g/m*3 15.7 C 1.6 km/h
1173 04-09-2020 01:40:00 15.8 C 12.65 g/m*3 15.8 C 1.6 km/h
1174 04-09-2020 01:45:00 15.8 C 12.65 g/m*3 15.8 C 0 km/h
1175 04-09-2020 01:50:00 15.8 C 12.65 g/m*3 15.8 C 1.6 km/h
Sensor: Nr:Datum:Temp:Abs-Feuchte:Windchill:Wind:
Aussen-T/F 1176 04-09-2020 01:55:00 15.8 C 12.65 g/m*3 15.8 C 0 km/h
1177 04-09-2020 02:00:00 15.8 C 12.52 g/m*3 15.8 C 3.2 km/h
1178 04-09-2020 02:05:00 15.7 C 12.44 g/m*3 15.7 C 1.6 km/h
1179 04-09-2020 02:10:00 15.7 C 12.44 g/m*3 15.7 C 1.6 km/h
1180 04-09-2020 02:15:00 15.7 C 12.44 g/m*3 15.7 C 0 km/h
1181 04-09-2020 02:20:00 15.7 C 12.44 g/m*3 15.7 C 0 km/h
1182 04-09-2020 02:25:00 15.7 C 12.44 g/m*3 15.7 C 1.6 km/h
1183 04-09-2020 02:30:00 15.8 C 12.52 g/m*3 15.8 C 1.6 km/h
1184 04-09-2020 02:35:00 15.8 C 12.52 g/m*3 15.8 C 1.6 km/h
1185 04-09-2020 02:40:00 15.9 C 12.59 g/m*3 15.9 C 1.6 km/h
1186 04-09-2020 02:45:00 16 C 12.67 g/m*3 16 C 0 km/h
1187 04-09-2020 02:50:00 16.1 C 12.61 g/m*3 16.1 C 0 km/h
1188 04-09-2020 02:55:00 16.2 C 12.82 g/m*3 16.2 C 0 km/h
1189 04-09-2020 03:00:00 16.3 C 12.9 g/m*3 16.3 C 0 km/h
1190 04-09-2020 03:05:00 16.4 C 12.98 g/m*3 16.4 C 1.6 km/h
1191 04-09-2020 03:10:00 16.4 C 12.84 g/m*3 16.4 C 3.2 km/h
1192 04-09-2020 03:15:00 16.4 C 12.84 g/m*3 16.4 C 4.8 km/h
1193 04-09-2020 03:20:00 16.4 C 12.84 g/m*3 16.4 C 0 km/h
1194 04-09-2020 03:25:00 16.4 C 12.84 g/m*3 16.4 C 0 km/h
1195 04-09-2020 03:30:00 16.4 C 12.7 g/m*3 16.4 C 0 km/h
1196 04-09-2020 03:35:00 16.5 C 12.78 g/m*3 16.5 C 0 km/h
1197 04-09-2020 03:40:00 16.6 C 12.86 g/m*3 16.6 C 0 km/h
1198 04-09-2020 03:45:00 16.6 C 12.86 g/m*3 16.6 C 0 km/h
1199 04-09-2020 03:50:00 16.6 C 12.86 g/m*3 16.6 C 0 km/h
1200 04-09-2020 03:55:00 16.6 C 12.86 g/m*3 16.6 C 0 km/h
Sensor: Nr:Datum:Temp:Abs-Feuchte:Windchill:Wind:
Aussen-T/F 1201 04-09-2020 04:00:00 16.6 C 12.86 g/m*3 16.6 C 0 km/h
1202 04-09-2020 04:05:00 16.6 C 12.71 g/m*3 16.6 C 0 km/h
1203 04-09-2020 04:10:00 16.6 C 12.71 g/m*3 16.6 C 0 km/h
1204 04-09-2020 04:15:00 16.6 C 12.71 g/m*3 16.6 C 0 km/h
1205 04-09-2020 04:20:00 16.7 C 12.79 g/m*3 16.7 C 0 km/h
1206 04-09-2020 04:25:00 16.8 C 13.01 g/m*3 16.8 C 0 km/h
1207 04-09-2020 04:30:00 16.8 C 12.87 g/m*3 16.8 C 0 km/h
1208 04-09-2020 04:35:00 16.8 C 12.87 g/m*3 16.8 C 0 km/h
1209 04-09-2020 04:40:00 16.8 C 12.87 g/m*3 16.8 C 0 km/h
1210 04-09-2020 04:45:00 16.7 C 12.79 g/m*3 16.7 C 0 km/h
1211 04-09-2020 04:50:00 16.7 C 12.79 g/m*3 16.7 C 0 km/h
1212 04-09-2020 04:55:00 16.7 C 12.79 g/m*3 16.7 C 0 km/h
1213 04-09-2020 05:00:00 16.7 C 12.79 g/m*3 16.7 C 0 km/h
1214 04-09-2020 05:05:00 16.7 C 12.79 g/m*3 16.7 C 0 km/h
1215 04-09-2020 05:10:00 16.7 C 12.79 g/m*3 16.7 C 0 km/h
1216 04-09-2020 05:15:00 16.7 C 12.79 g/m*3 16.7 C 0 km/h
1217 04-09-2020 05:20:00 16.7 C 12.79 g/m*3 16.7 C 0 km/h
1218 04-09-2020 05:25:00 16.7 C 12.79 g/m*3 16.7 C 0 km/h
1219 04-09-2020 05:30:00 16.7 C 12.79 g/m*3 16.7 C 0 km/h
1220 04-09-2020 05:35:00 16.7 C 12.93 g/m*3 16.7 C 0 km/h
1221 04-09-2020 05:40:00 16.7 C 12.93 g/m*3 16.7 C 0 km/h
1222 04-09-2020 05:45:00 16.7 C 12.93 g/m*3 16.7 C 0 km/h
1223 04-09-2020 05:50:00 16.7 C 12.93 g/m*3 16.7 C 0 km/h
1224 04-09-2020 05:55:00 16.7 C 12.93 g/m*3 16.7 C 0 km/h
1225 04-09-2020 06:00:00 16.6 C 12.86 g/m*3 16.6 C 0 km/h
Sensor: Nr:Datum:Temp:Abs-Feuchte:Windchill:Wind:
Aussen-T/F 1226 04-09-2020 06:05:00 16.6 C 12.71 g/m*3 16.6 C 0 km/h
1227 04-09-2020 06:10:00 16.6 C 12.71 g/m*3 16.6 C 4.8 km/h
1228 04-09-2020 06:15:00 16.5 C 12.64 g/m*3 16.5 C 4.8 km/h
1229 04-09-2020 06:20:00 16.5 C 12.64 g/m*3 16.5 C 3.2 km/h
1230 04-09-2020 06:25:00 16.5 C 12.64 g/m*3 16.5 C 0 km/h
1231 04-09-2020 06:30:00 16.6 C 12.71 g/m*3 16.6 C 0 km/h
1232 04-09-2020 06:35:00 16.6 C 12.71 g/m*3 16.6 C 3.2 km/h
1233 04-09-2020 06:40:00 16.6 C 12.57 g/m*3 16.6 C 1.6 km/h
1234 04-09-2020 06:45:00 16.6 C 12.71 g/m*3 16.6 C 0 km/h
1235 04-09-2020 06:50:00 16.6 C 12.71 g/m*3 16.6 C 0 km/h
1236 04-09-2020 06:55:00 16.7 C 12.79 g/m*3 16.7 C 3.2 km/h
1237 04-09-2020 07:00:00 16.7 C 12.65 g/m*3 16.7 C 3.2 km/h
1238 04-09-2020 07:05:00 16.7 C 12.65 g/m*3 16.7 C 3.2 km/h
1239 04-09-2020 07:10:00 16.7 C 12.65 g/m*3 16.7 C 0 km/h
1240 04-09-2020 07:15:00 16.7 C 12.65 g/m*3 16.7 C 0 km/h
1241 04-09-2020 07:20:00 16.8 C 12.72 g/m*3 16.8 C 0 km/h
1242 04-09-2020 07:25:00 16.8 C 12.72 g/m*3 16.8 C 0 km/h
1243 04-09-2020 07:30:00 16.8 C 12.72 g/m*3 16.8 C 3.2 km/h
1244 04-09-2020 07:35:00 16.8 C 12.72 g/m*3 16.8 C 0 km/h
1245 04-09-2020 07:40:00 16.8 C 12.58 g/m*3 16.8 C 0 km/h
1246 04-09-2020 07:45:00 16.8 C 12.72 g/m*3 16.8 C 0 km/h
1247 04-09-2020 07:50:00 16.9 C 12.8 g/m*3 16.9 C 0 km/h
1248 04-09-2020 07:55:00 16.9 C 12.8 g/m*3 16.9 C 0 km/h
1249 04-09-2020 08:00:00 17 C 13.02 g/m*3 17 C 0 km/h
1250 04-09-2020 08:05:00 17 C 13.02 g/m*3 17 C 0 km/h
Sensor: Nr:Datum:Temp:Abs-Feuchte:Windchill:Wind:
Aussen-T/F 1251 04-09-2020 08:10:00 17.1 C 12.96 g/m*3 17.1 C 0 km/h
1252 04-09-2020 08:15:00 17.1 C 12.96 g/m*3 17.1 C 3.2 km/h
1253 04-09-2020 08:20:00 17.1 C 12.96 g/m*3 17.1 C 1.6 km/h
1254 04-09-2020 08:25:00 17.1 C 12.96 g/m*3 17.1 C 0 km/h
1255 04-09-2020 08:30:00 17.2 C 13.03 g/m*3 17.2 C 0 km/h
1256 04-09-2020 08:35:00 17.2 C 13.03 g/m*3 17.2 C 0 km/h
1257 04-09-2020 08:40:00 17.2 C 12.89 g/m*3 17.2 C 0 km/h
1258 04-09-2020 08:45:00 17.3 C 12.96 g/m*3 17.3 C 0 km/h
1259 04-09-2020 08:50:00 17.4 C 13.19 g/m*3 17.4 C 0 km/h
1260 04-09-2020 08:55:00 17.4 C 13.04 g/m*3 17.4 C 0 km/h
1261 04-09-2020 09:00:00 17.6 C 13.2 g/m*3 17.6 C 0 km/h
1262 04-09-2020 09:05:00 17.7 C 13.28 g/m*3 17.7 C 0 km/h
1263 04-09-2020 09:10:00 17.9 C 12.98 g/m*3 17.9 C 4.8 km/h
1264 04-09-2020 09:15:00 18.1 C 13.29 g/m*3 18.1 C 1.6 km/h
1265 04-09-2020 09:20:00 18.3 C 13.45 g/m*3 18.3 C 1.6 km/h
1266 04-09-2020 09:25:00 18.4 C 13.37 g/m*3 18.4 C 1.6 km/h
1267 04-09-2020 09:30:00 18.6 C 13.53 g/m*3 18.6 C 1.6 km/h
1268 04-09-2020 09:35:00 18.6 C 13.53 g/m*3 18.6 C 0 km/h
1269 04-09-2020 09:40:00 18.7 C 13.61 g/m*3 18.7 C 0 km/h
1270 04-09-2020 09:45:00 18.7 C 13.61 g/m*3 18.7 C 1.6 km/h
1271 04-09-2020 09:50:00 18.8 C 13.53 g/m*3 18.8 C 1.6 km/h
1272 04-09-2020 09:55:00 18.8 C 13.53 g/m*3 18.8 C 0 km/h
1273 04-09-2020 10:00:00 18.9 C 13.61 g/m*3 18.9 C 0 km/h
1274 04-09-2020 10:05:00 18.9 C 13.61 g/m*3 18.9 C 0 km/h
1275 04-09-2020 10:10:00 18.9 C 13.28 g/m*3 18.9 C 0 km/h
Sensor: Nr:Datum:Temp:Abs-Feuchte:Windchill:Wind:
Aussen-T/F 1276 04-09-2020 10:15:00 19.1 C 13.61 g/m*3 19.1 C 0 km/h
1277 04-09-2020 10:20:00 19.1 C 13.61 g/m*3 19.1 C 0 km/h
1278 04-09-2020 10:25:00 19.2 C 13.52 g/m*3 19.2 C 0 km/h
1279 04-09-2020 10:30:00 19.3 C 13.77 g/m*3 19.3 C 0 km/h
1280 04-09-2020 10:35:00 19.4 C 13.85 g/m*3 19.4 C 0 km/h
1281 04-09-2020 10:40:00 19.4 C 13.68 g/m*3 19.4 C 0 km/h
1282 04-09-2020 10:45:00 19.6 C 13.84 g/m*3 19.6 C 0 km/h
1283 04-09-2020 10:50:00 19.6 C 13.84 g/m*3 19.6 C 0 km/h
1284 04-09-2020 10:55:00 19.7 C 13.92 g/m*3 19.7 C 1.6 km/h
1285 04-09-2020 11:00:00 19.7 C 13.58 g/m*3 19.7 C 4.8 km/h
1286 04-09-2020 11:05:00 19.7 C 13.75 g/m*3 19.7 C 1.6 km/h
1287 04-09-2020 11:10:00 19.8 C 13.66 g/m*3 19.8 C 1.6 km/h
1288 04-09-2020 11:15:00 19.9 C 13.92 g/m*3 19.9 C 0 km/h
1289 04-09-2020 11:20:00 20.1 C 13.91 g/m*3 20.1 C 0 km/h
1290 04-09-2020 11:25:00 20.3 C 14.07 g/m*3 20.3 C 0 km/h
1291 04-09-2020 11:30:00 20.4 C 13.8 g/m*3 20.4 C 3.2 km/h
1292 04-09-2020 11:35:00 20.6 C 13.78 g/m*3 20.6 C 0 km/h
1293 04-09-2020 11:40:00 20.7 C 14.04 g/m*3 20.7 C 0 km/h
1294 04-09-2020 11:45:00 20.9 C 13.66 g/m*3 20.9 C 4.8 km/h
1295 04-09-2020 11:50:00 21.1 C 13.45 g/m*3 21.1 C 3.2 km/h
1296 04-09-2020 11:55:00 21.3 C 13.98 g/m*3 21.3 C 3.2 km/h
1297 04-09-2020 12:00:00 21.5 C 13.77 g/m*3 21.5 C 4.8 km/h
1298 04-09-2020 12:05:00 21.7 C 13.54 g/m*3 21.7 C 12.9 km/h
1299 04-09-2020 12:10:00 21.9 C 13.89 g/m*3 21.9 C 12.9 km/h
1300 04-09-2020 12:15:00 22.1 C 13.86 g/m*3 22.1 C 9.7 km/h
Sensor: Nr:Datum:Temp:Abs-Feuchte:Windchill:Wind:
Aussen-T/F 1301 04-09-2020 12:20:00 22.3 C 14.02 g/m*3 22.3 C 11.3 km/h
1302 04-09-2020 12:25:00 22.4 C 14.1 g/m*3 22.4 C 9.7 km/h
1303 04-09-2020 12:30:00 22.6 C 13.86 g/m*3 22.6 C 9.7 km/h
1304 04-09-2020 12:35:00 22.8 C 14.02 g/m*3 22.8 C 11.3 km/h
1305 04-09-2020 12:40:00 22.9 C 14.51 g/m*3 22.9 C 11.3 km/h
1306 04-09-2020 12:45:00 22.9 C 14.31 g/m*3 22.9 C 9.7 km/h
1307 04-09-2020 12:50:00 23.1 C 14.47 g/m*3 23.1 C 9.7 km/h
1308 04-09-2020 12:55:00 23.2 C 14.34 g/m*3 23.2 C 12.9 km/h
1309 04-09-2020 13:00:00 23.3 C 14.64 g/m*3 23.3 C 11.3 km/h
1310 04-09-2020 13:05:00 23.6 C 14.68 g/m*3 23.6 C 14.5 km/h
1311 04-09-2020 13:10:00 23.8 C 14.41 g/m*3 23.8 C 16.1 km/h
1312 04-09-2020 13:15:00 23.9 C 14.49 g/m*3 23.9 C 12.9 km/h
1313 04-09-2020 13:20:00 24.2 C 14.52 g/m*3 24.2 C 12.9 km/h
1314 04-09-2020 13:25:00 24.4 C 14.47 g/m*3 24.4 C 12.9 km/h
1315 04-09-2020 13:30:00 24.7 C 14.49 g/m*3 24.7 C 19.3 km/h
1316 04-09-2020 13:35:00 24.8 C 14.57 g/m*3 24.8 C 19.3 km/h
1317 04-09-2020 13:40:00 25.1 C 14.35 g/m*3 25.1 C 14.5 km/h
1318 04-09-2020 13:45:00 25.3 C 14.98 g/m*3 25.3 C 11.3 km/h
1319 04-09-2020 13:50:00 25.4 C 14.83 g/m*3 25.4 C 11.3 km/h
1320 04-09-2020 13:55:00 25.5 C 14.91 g/m*3 25.5 C 14.5 km/h
1321 04-09-2020 14:00:00 25.6 C 14.52 g/m*3 25.6 C 12.9 km/h
1322 04-09-2020 14:05:00 25.7 C 14.6 g/m*3 25.7 C 14.5 km/h
1323 04-09-2020 14:10:00 25.6 C 14.76 g/m*3 25.6 C 11.3 km/h
1324 04-09-2020 14:15:00 25.6 C 14.52 g/m*3 25.6 C 12.9 km/h
1325 04-09-2020 14:20:00 25.5 C 14.44 g/m*3 25.5 C 12.9 km/h
Sensor: Nr:Datum:Temp:Abs-Feuchte:Windchill:Wind:
Aussen-T/F 1326 04-09-2020 14:25:00 25.5 C 14.68 g/m*3 25.5 C 12.9 km/h
1327 04-09-2020 14:30:00 25.6 C 14.76 g/m*3 25.6 C 6.4 km/h
1328 04-09-2020 14:35:00 25.7 C 14.6 g/m*3 25.7 C 9.7 km/h
1329 04-09-2020 14:40:00 25.7 C 14.36 g/m*3 25.7 C 9.7 km/h
1330 04-09-2020 14:45:00 25.8 C 14.93 g/m*3 25.8 C 4.8 km/h
1331 04-09-2020 14:50:00 25.9 C 15.49 g/m*3 25.9 C 3.2 km/h
1332 04-09-2020 14:55:00 25.9 C 14.28 g/m*3 25.9 C 11.3 km/h
1333 04-09-2020 15:00:00 25.7 C 14.6 g/m*3 25.7 C 4.8 km/h
1334 04-09-2020 15:05:00 25.7 C 14.6 g/m*3 25.7 C 9.7 km/h
1335 04-09-2020 15:10:00 25.6 C 14.52 g/m*3 25.6 C 3.2 km/h
1336 04-09-2020 15:15:00 25.6 C 14.52 g/m*3 25.6 C 6.4 km/h
1337 04-09-2020 15:20:00 25.6 C 14.52 g/m*3 25.6 C 4.8 km/h
1338 04-09-2020 15:25:00 25.6 C 14.52 g/m*3 25.6 C 6.4 km/h
1339 04-09-2020 15:30:00 25.7 C 14.6 g/m*3 25.7 C 6.4 km/h
1340 04-09-2020 15:35:00 25.8 C 14.93 g/m*3 25.8 C 3.2 km/h
1341 04-09-2020 15:40:00 25.8 C 14.69 g/m*3 25.8 C 6.4 km/h
1342 04-09-2020 15:45:00 25.8 C 14.93 g/m*3 25.8 C 0 km/h
1343 04-09-2020 15:50:00 25.8 C 14.69 g/m*3 25.8 C 3.2 km/h
1344 04-09-2020 15:55:00 25.9 C 14.53 g/m*3 25.9 C 4.8 km/h
1345 04-09-2020 16:00:00 25.9 C 14.53 g/m*3 25.9 C 3.2 km/h
1346 04-09-2020 16:05:00 26 C 14.61 g/m*3 26 C 6.4 km/h
1347 04-09-2020 16:10:00 26.1 C 14.44 g/m*3 26.1 C 3.2 km/h
1348 04-09-2020 16:15:00 26.2 C 14.52 g/m*3 26.2 C 3.2 km/h
1349 04-09-2020 16:20:00 26.3 C 14.85 g/m*3 26.3 C 3.2 km/h
1350 04-09-2020 16:25:00 26.2 C 14.28 g/m*3 26.2 C 4.8 km/h
Sensor: Nr:Datum:Temp:Abs-Feuchte:Windchill:Wind:
Aussen-T/F 1351 04-09-2020 16:30:00 26.2 C 14.52 g/m*3 26.2 C 1.6 km/h
1352 04-09-2020 16:35:00 26.3 C 14.61 g/m*3 26.3 C 3.2 km/h
1353 04-09-2020 16:40:00 26.4 C 14.44 g/m*3 26.4 C 3.2 km/h
1354 04-09-2020 16:45:00 26.5 C 14.77 g/m*3 26.5 C 0 km/h
1355 04-09-2020 16:50:00 26.9 C 15.36 g/m*3 26.9 C 0 km/h
1356 04-09-2020 16:55:00 27.1 C 14.49 g/m*3 27.1 C 3.2 km/h
1357 04-09-2020 17:00:00 27.3 C 14.91 g/m*3 27.3 C 0 km/h
1358 04-09-2020 17:05:00 27.6 C 14.63 g/m*3 27.6 C 1.6 km/h
1359 04-09-2020 17:10:00 28.1 C 15.04 g/m*3 28.1 C 4.8 km/h
1360 04-09-2020 17:15:00 28.4 C 14.73 g/m*3 28.4 C 6.4 km/h
1361 04-09-2020 17:20:00 28.8 C 14.77 g/m*3 28.8 C 6.4 km/h
1362 04-09-2020 17:25:00 28.8 C 14.77 g/m*3 28.8 C 8.1 km/h
1363 04-09-2020 17:30:00 28.7 C 15.26 g/m*3 28.7 C 0 km/h
1364 04-09-2020 17:35:00 28.6 C 16.02 g/m*3 28.6 C 1.6 km/h
1365 04-09-2020 17:40:00 28.3 C 16.59 g/m*3 28.3 C 0 km/h
1366 04-09-2020 17:45:00 28.1 C 15.59 g/m*3 28.1 C 0 km/h
1367 04-09-2020 17:50:00 27.8 C 16.41 g/m*3 27.8 C 0 km/h
1368 04-09-2020 17:55:00 27.4 C 15.79 g/m*3 27.4 C 0 km/h
1369 04-09-2020 18:00:00 27.1 C 16.04 g/m*3 27.1 C 0 km/h
1370 04-09-2020 18:05:00 26.7 C 15.44 g/m*3 26.7 C 9.7 km/h
1371 04-09-2020 18:10:00 26.2 C 15.51 g/m*3 26.2 C 8.1 km/h
1372 04-09-2020 18:15:00 25.8 C 15.41 g/m*3 25.8 C 9.7 km/h
1373 04-09-2020 18:20:00 25.4 C 15.54 g/m*3 25.4 C 9.7 km/h
1374 04-09-2020 18:25:00 25.4 C 15.77 g/m*3 25.4 C 8.1 km/h
1375 04-09-2020 18:30:00 25.4 C 16.01 g/m*3 25.4 C 6.4 km/h
Sensor: Nr:Datum:Temp:Abs-Feuchte:Windchill:Wind:
Aussen-T/F 1376 04-09-2020 18:35:00 25.4 C 16.01 g/m*3 25.4 C 11.3 km/h
1377 04-09-2020 18:40:00 25.2 C 15.83 g/m*3 25.2 C 6.4 km/h
1378 04-09-2020 18:45:00 24.9 C 15.79 g/m*3 24.9 C 8.1 km/h
1379 04-09-2020 18:50:00 24.6 C 15.75 g/m*3 24.6 C 8.1 km/h
1380 04-09-2020 18:55:00 24.4 C 16.02 g/m*3 24.4 C 8.1 km/h
1381 04-09-2020 19:00:00 24.2 C 15.84 g/m*3 24.2 C 6.4 km/h
1382 04-09-2020 19:05:00 24 C 15.88 g/m*3 24 C 3.2 km/h
1383 04-09-2020 19:10:00 23.9 C 15.79 g/m*3 23.9 C 3.2 km/h
1384 04-09-2020 19:15:00 23.8 C 15.92 g/m*3 23.8 C 3.2 km/h
1385 04-09-2020 19:20:00 23.6 C 15.95 g/m*3 23.6 C 4.8 km/h
1386 04-09-2020 19:25:00 23.4 C 15.77 g/m*3 23.4 C 4.8 km/h
1387 04-09-2020 19:30:00 23.3 C 15.68 g/m*3 23.3 C 1.6 km/h
1388 04-09-2020 19:35:00 23.2 C 15.8 g/m*3 23.2 C 4.8 km/h
1389 04-09-2020 19:40:00 23.1 C 15.71 g/m*3 23.1 C 4.8 km/h
1390 04-09-2020 19:45:00 22.9 C 15.74 g/m*3 22.9 C 6.4 km/h
1391 04-09-2020 19:50:00 22.8 C 15.85 g/m*3 22.8 C 4.8 km/h
1392 04-09-2020 19:55:00 22.7 C 15.96 g/m*3 22.7 C 4.8 km/h
1393 04-09-2020 20:00:00 22.5 C 15.78 g/m*3 22.5 C 4.8 km/h
1394 04-09-2020 20:05:00 22.3 C 15.8 g/m*3 22.3 C 8.1 km/h
1395 04-09-2020 20:10:00 22.2 C 15.71 g/m*3 22.2 C 0 km/h
1396 04-09-2020 20:15:00 22 C 15.53 g/m*3 22 C 0 km/h
1397 04-09-2020 20:20:00 21.7 C 15.45 g/m*3 21.7 C 0 km/h
1398 04-09-2020 20:25:00 21.4 C 15.37 g/m*3 21.4 C 0 km/h
1399 04-09-2020 20:30:00 21.2 C 15.2 g/m*3 21.2 C 0 km/h
1400 04-09-2020 20:35:00 20.9 C 15.12 g/m*3 20.9 C 0 km/h
Sensor: Nr:Datum:Temp:Abs-Feuchte:Windchill:Wind:
Aussen-T/F 1401 04-09-2020 20:40:00 20.7 C 15.12 g/m*3 20.7 C 0 km/h
1402 04-09-2020 20:45:00 20.4 C 15.04 g/m*3 20.4 C 0 km/h
1403 04-09-2020 20:50:00 20.3 C 15.3 g/m*3 20.3 C 4.8 km/h
1404 04-09-2020 20:55:00 20.3 C 15.3 g/m*3 20.3 C 0 km/h
1405 04-09-2020 21:00:00 20.2 C 15.21 g/m*3 20.2 C 1.6 km/h
1406 04-09-2020 21:05:00 20.1 C 15.3 g/m*3 20.1 C 4.8 km/h
1407 04-09-2020 21:10:00 20.1 C 15.3 g/m*3 20.1 C 3.2 km/h
1408 04-09-2020 21:15:00 20.1 C 15.3 g/m*3 20.1 C 3.2 km/h
1409 04-09-2020 21:20:00 20.1 C 15.12 g/m*3 20.1 C 3.2 km/h
1410 04-09-2020 21:25:00 20.1 C 15.12 g/m*3 20.1 C 3.2 km/h
1411 04-09-2020 21:30:00 20.1 C 15.12 g/m*3 20.1 C 1.6 km/h
1412 04-09-2020 21:35:00 20.1 C 15.12 g/m*3 20.1 C 1.6 km/h
1413 04-09-2020 21:40:00 20.1 C 15.12 g/m*3 20.1 C 1.6 km/h
1414 04-09-2020 21:45:00 20 C 15.04 g/m*3 20 C 1.6 km/h
1415 04-09-2020 21:50:00 20 C 15.04 g/m*3 20 C 0 km/h
1416 04-09-2020 21:55:00 19.9 C 14.95 g/m*3 19.9 C 0 km/h
1417 04-09-2020 22:00:00 19.9 C 14.95 g/m*3 19.9 C 0 km/h
1418 04-09-2020 22:05:00 19.9 C 14.95 g/m*3 19.9 C 1.6 km/h
1419 04-09-2020 22:10:00 19.8 C 14.86 g/m*3 19.8 C 1.6 km/h
1420 04-09-2020 22:15:00 19.8 C 14.86 g/m*3 19.8 C 1.6 km/h
1421 04-09-2020 22:20:00 19.8 C 14.86 g/m*3 19.8 C 1.6 km/h
1422 04-09-2020 22:25:00 19.7 C 14.77 g/m*3 19.7 C 0 km/h
1423 04-09-2020 22:30:00 19.6 C 14.69 g/m*3 19.6 C 0 km/h
1424 04-09-2020 22:35:00 19.4 C 14.35 g/m*3 19.4 C 0 km/h
1425 04-09-2020 22:40:00 19.2 C 14.35 g/m*3 19.2 C 0 km/h
Sensor: Nr:Datum:Temp:Abs-Feuchte:Windchill:Wind:
Aussen-T/F 1426 04-09-2020 22:45:00 19.1 C 14.26 g/m*3 19.1 C 0 km/h
1427 04-09-2020 22:50:00 19 C 14.34 g/m*3 19 C 0 km/h
1428 04-09-2020 22:55:00 18.9 C 14.42 g/m*3 18.9 C 0 km/h
1429 04-09-2020 23:00:00 18.9 C 14.42 g/m*3 18.9 C 0 km/h
1430 04-09-2020 23:05:00 18.8 C 14.33 g/m*3 18.8 C 0 km/h
1431 04-09-2020 23:10:00 18.8 C 14.49 g/m*3 18.8 C 0 km/h
1432 04-09-2020 23:15:00 18.8 C 14.49 g/m*3 18.8 C 0 km/h
1433 04-09-2020 23:20:00 18.8 C 14.49 g/m*3 18.8 C 0 km/h
1434 04-09-2020 23:25:00 18.8 C 14.49 g/m*3 18.8 C 0 km/h
1435 04-09-2020 23:30:00 18.7 C 14.41 g/m*3 18.7 C 0 km/h
1436 04-09-2020 23:35:00 18.7 C 14.57 g/m*3 18.7 C 0 km/h
1437 04-09-2020 23:40:00 18.7 C 14.57 g/m*3 18.7 C 0 km/h
1438 04-09-2020 23:45:00 18.6 C 14.48 g/m*3 18.6 C 0 km/h
1439 04-09-2020 23:50:00 18.6 C 14.48 g/m*3 18.6 C 0 km/h
1440 04-09-2020 23:55:00 18.5 C 14.4 g/m*3 18.5 C 0 km/h
1441 05-09-2020 00:00:00 18.4 C 14.16 g/m*3 18.4 C 0 km/h
1442 05-09-2020 00:05:00 18.3 C 14.23 g/m*3 18.3 C 1.6 km/h
1443 05-09-2020 00:10:00 18.2 C 13.99 g/m*3 18.2 C 4.8 km/h
1444 05-09-2020 00:15:00 18.1 C 14.06 g/m*3 18.1 C 0 km/h
1445 05-09-2020 00:20:00 17.9 C 13.89 g/m*3 17.9 C 3.2 km/h
1446 05-09-2020 00:25:00 17.8 C 13.81 g/m*3 17.8 C 4.8 km/h
1447 05-09-2020 00:30:00 17.7 C 13.73 g/m*3 17.7 C 3.2 km/h
1448 05-09-2020 00:35:00 17.6 C 13.65 g/m*3 17.6 C 3.2 km/h
1449 05-09-2020 00:40:00 17.6 C 13.8 g/m*3 17.6 C 3.2 km/h
1450 05-09-2020 00:45:00 17.4 C 13.49 g/m*3 17.4 C 0 km/h
Sensor: Nr:Datum:Temp:Abs-Feuchte:Windchill:Wind:
Aussen-T/F 1451 05-09-2020 00:50:00 17.3 C 13.41 g/m*3 17.3 C 0 km/h
1452 05-09-2020 00:55:00 17.2 C 13.47 g/m*3 17.2 C 0 km/h
1453 05-09-2020 01:00:00 17.2 C 13.47 g/m*3 17.2 C 0 km/h
1454 05-09-2020 01:05:00 17.1 C 13.39 g/m*3 17.1 C 0 km/h
1455 05-09-2020 01:10:00 16.9 C 13.23 g/m*3 16.9 C 0 km/h
1456 05-09-2020 01:15:00 16.8 C 13.15 g/m*3 16.8 C 0 km/h
1457 05-09-2020 01:20:00 16.8 C 13.15 g/m*3 16.8 C 0 km/h
1458 05-09-2020 01:25:00 16.7 C 13.07 g/m*3 16.7 C 0 km/h
1459 05-09-2020 01:30:00 16.6 C 13 g/m*3 16.6 C 0 km/h
1460 05-09-2020 01:35:00 16.4 C 12.84 g/m*3 16.4 C 0 km/h
1461 05-09-2020 01:40:00 16.3 C 12.9 g/m*3 16.3 C 0 km/h
1462 05-09-2020 01:45:00 16.3 C 12.9 g/m*3 16.3 C 0 km/h
1463 05-09-2020 01:50:00 16.2 C 12.82 g/m*3 16.2 C 0 km/h
1464 05-09-2020 01:55:00 16.1 C 12.75 g/m*3 16.1 C 0 km/h
1465 05-09-2020 02:00:00 16 C 12.67 g/m*3 16 C 0 km/h
1466 05-09-2020 02:05:00 15.9 C 12.59 g/m*3 15.9 C 0 km/h
1467 05-09-2020 02:10:00 15.9 C 12.59 g/m*3 15.9 C 0 km/h
1468 05-09-2020 02:15:00 15.8 C 12.65 g/m*3 15.8 C 0 km/h
1469 05-09-2020 02:20:00 15.8 C 12.65 g/m*3 15.8 C 0 km/h
1470 05-09-2020 02:25:00 15.8 C 12.65 g/m*3 15.8 C 0 km/h
1471 05-09-2020 02:30:00 15.8 C 12.65 g/m*3 15.8 C 0 km/h
1472 05-09-2020 02:35:00 15.9 C 12.73 g/m*3 15.9 C 0 km/h
1473 05-09-2020 02:40:00 15.9 C 12.73 g/m*3 15.9 C 0 km/h
1474 05-09-2020 02:45:00 15.9 C 12.73 g/m*3 15.9 C 0 km/h
1475 05-09-2020 02:50:00 15.9 C 12.73 g/m*3 15.9 C 0 km/h
Sensor: Nr:Datum:Temp:Abs-Feuchte:Windchill:Wind:
Aussen-T/F 1476 05-09-2020 02:55:00 15.9 C 12.73 g/m*3 15.9 C 0 km/h
1477 05-09-2020 03:00:00 15.9 C 12.87 g/m*3 15.9 C 0 km/h
1478 05-09-2020 03:05:00 15.9 C 12.87 g/m*3 15.9 C 0 km/h
1479 05-09-2020 03:10:00 15.9 C 12.87 g/m*3 15.9 C 0 km/h
1480 05-09-2020 03:15:00 16 C 12.94 g/m*3 16 C 0 km/h
1481 05-09-2020 03:20:00 16 C 12.94 g/m*3 16 C 0 km/h
1482 05-09-2020 03:25:00 16 C 12.94 g/m*3 16 C 0 km/h
1483 05-09-2020 03:30:00 16 C 12.94 g/m*3 16 C 0 km/h
1484 05-09-2020 03:35:00 16.1 C 13.02 g/m*3 16.1 C 0 km/h
1485 05-09-2020 03:40:00 16.1 C 13.02 g/m*3 16.1 C 0 km/h
1486 05-09-2020 03:45:00 16.2 C 13.1 g/m*3 16.2 C 0 km/h
1487 05-09-2020 03:50:00 16.2 C 13.1 g/m*3 16.2 C 0 km/h
1488 05-09-2020 03:55:00 16.2 C 13.1 g/m*3 16.2 C 0 km/h
1489 05-09-2020 04:00:00 16.3 C 13.18 g/m*3 16.3 C 0 km/h
1490 05-09-2020 04:05:00 16.3 C 13.18 g/m*3 16.3 C 0 km/h
1491 05-09-2020 04:10:00 16.3 C 13.32 g/m*3 16.3 C 0 km/h
1492 05-09-2020 04:15:00 16.4 C 13.4 g/m*3 16.4 C 0 km/h
1493 05-09-2020 04:20:00 16.5 C 13.48 g/m*3 16.5 C 0 km/h
1494 05-09-2020 04:25:00 16.6 C 13.56 g/m*3 16.6 C 4.8 km/h
1495 05-09-2020 04:30:00 16.6 C 13.56 g/m*3 16.6 C 0 km/h
1496 05-09-2020 04:35:00 16.6 C 13.56 g/m*3 16.6 C 0 km/h
1497 05-09-2020 04:40:00 16.6 C 13.56 g/m*3 16.6 C 0 km/h
1498 05-09-2020 04:45:00 16.6 C 13.56 g/m*3 16.6 C 0 km/h
1499 05-09-2020 04:50:00 16.6 C 13.56 g/m*3 16.6 C 0 km/h
1500 05-09-2020 04:55:00 16.7 C 13.64 g/m*3 16.7 C 0 km/h
Sensor: Nr:Datum:Temp:Abs-Feuchte:Windchill:Wind:
Aussen-T/F 1501 05-09-2020 05:00:00 16.7 C 13.64 g/m*3 16.7 C 0 km/h
1502 05-09-2020 05:05:00 16.7 C 13.64 g/m*3 16.7 C 0 km/h
1503 05-09-2020 05:10:00 16.7 C 13.64 g/m*3 16.7 C 0 km/h
1504 05-09-2020 05:15:00 16.7 C 13.64 g/m*3 16.7 C 0 km/h
1505 05-09-2020 05:20:00 16.7 C 13.64 g/m*3 16.7 C 0 km/h
1506 05-09-2020 05:25:00 16.7 C 13.64 g/m*3 16.7 C 0 km/h
1507 05-09-2020 05:30:00 16.7 C 13.64 g/m*3 16.7 C 0 km/h
1508 05-09-2020 05:35:00 16.7 C 13.5 g/m*3 16.7 C 0 km/h
1509 05-09-2020 05:40:00 16.7 C 13.5 g/m*3 16.7 C 0 km/h
1510 05-09-2020 05:45:00 16.7 C 13.5 g/m*3 16.7 C 0 km/h
1511 05-09-2020 05:50:00 16.7 C 13.5 g/m*3 16.7 C 0 km/h
1512 05-09-2020 05:55:00 16.7 C 13.5 g/m*3 16.7 C 0 km/h
1513 05-09-2020 06:00:00 16.7 C 13.5 g/m*3 16.7 C 0 km/h
1514 05-09-2020 06:05:00 16.7 C 13.5 g/m*3 16.7 C 0 km/h
1515 05-09-2020 06:10:00 16.7 C 13.5 g/m*3 16.7 C 0 km/h
1516 05-09-2020 06:15:00 16.7 C 13.5 g/m*3 16.7 C 8.1 km/h
1517 05-09-2020 06:20:00 16.6 C 13.42 g/m*3 16.6 C 4.8 km/h
1518 05-09-2020 06:25:00 16.4 C 13.12 g/m*3 16.4 C 9.7 km/h
1519 05-09-2020 06:30:00 16 C 12.4 g/m*3 16 C 12.9 km/h
1520 05-09-2020 06:35:00 15.9 C 12.05 g/m*3 15.9 C 4.8 km/h
1521 05-09-2020 06:40:00 15.8 C 11.85 g/m*3 15.8 C 8.1 km/h
1522 05-09-2020 06:45:00 15.8 C 11.58 g/m*3 15.8 C 12.9 km/h
1523 05-09-2020 06:50:00 15.9 C 11.65 g/m*3 15.9 C 6.4 km/h
1524 05-09-2020 06:55:00 15.9 C 11.51 g/m*3 15.9 C 4.8 km/h
1525 05-09-2020 07:00:00 15.9 C 11.51 g/m*3 15.9 C 3.2 km/h
Sensor: Nr:Datum:Temp:Abs-Feuchte:Windchill:Wind:
Aussen-T/F 1526 05-09-2020 07:05:00 15.9 C 11.51 g/m*3 15.9 C 3.2 km/h
1527 05-09-2020 07:10:00 15.9 C 11.38 g/m*3 15.9 C 1.6 km/h
1528 05-09-2020 07:15:00 15.9 C 11.38 g/m*3 15.9 C 6.4 km/h
1529 05-09-2020 07:20:00 15.9 C 11.51 g/m*3 15.9 C 4.8 km/h
1530 05-09-2020 07:25:00 15.9 C 11.38 g/m*3 15.9 C 1.6 km/h
1531 05-09-2020 07:30:00 15.8 C 11.44 g/m*3 15.8 C 3.2 km/h
1532 05-09-2020 07:35:00 15.8 C 11.44 g/m*3 15.8 C 1.6 km/h
1533 05-09-2020 07:40:00 15.8 C 11.44 g/m*3 15.8 C 6.4 km/h
1534 05-09-2020 07:45:00 15.7 C 11.37 g/m*3 15.7 C 6.4 km/h
1535 05-09-2020 07:50:00 15.7 C 11.37 g/m*3 15.7 C 8.1 km/h
1536 05-09-2020 07:55:00 15.6 C 11.3 g/m*3 15.6 C 1.6 km/h
1537 05-09-2020 08:00:00 15.6 C 11.3 g/m*3 15.6 C 4.8 km/h
1538 05-09-2020 08:05:00 15.6 C 11.3 g/m*3 15.6 C 6.4 km/h
1539 05-09-2020 08:10:00 15.6 C 11.3 g/m*3 15.6 C 3.2 km/h
1540 05-09-2020 08:15:00 15.6 C 11.3 g/m*3 15.6 C 1.6 km/h
1541 05-09-2020 08:20:00 15.5 C 11.24 g/m*3 15.5 C 4.8 km/h
1542 05-09-2020 08:25:00 15.5 C 11.24 g/m*3 15.5 C 1.6 km/h
1543 05-09-2020 08:30:00 15.5 C 11.37 g/m*3 15.5 C 0 km/h
1544 05-09-2020 08:35:00 15.5 C 11.37 g/m*3 15.5 C 0 km/h
1545 05-09-2020 08:40:00 15.4 C 11.3 g/m*3 15.4 C 3.2 km/h
1546 05-09-2020 08:45:00 15.4 C 11.3 g/m*3 15.4 C 0 km/h
1547 05-09-2020 08:50:00 15.4 C 11.3 g/m*3 15.4 C 0 km/h
1548 05-09-2020 08:55:00 15.5 C 11.37 g/m*3 15.5 C 1.6 km/h
1549 05-09-2020 09:00:00 15.6 C 11.44 g/m*3 15.6 C 1.6 km/h
1550 05-09-2020 09:05:00 15.6 C 11.44 g/m*3 15.6 C 1.6 km/h
Sensor: Nr:Datum:Temp:Abs-Feuchte:Windchill:Wind:
Aussen-T/F 1551 05-09-2020 09:10:00 15.7 C 11.37 g/m*3 15.7 C 3.2 km/h
1552 05-09-2020 09:15:00 15.8 C 11.44 g/m*3 15.8 C 3.2 km/h
1553 05-09-2020 09:20:00 15.9 C 11.38 g/m*3 15.9 C 3.2 km/h
1554 05-09-2020 09:25:00 15.9 C 11.24 g/m*3 15.9 C 4.8 km/h
1555 05-09-2020 09:30:00 15.9 C 11.38 g/m*3 15.9 C 1.6 km/h
1556 05-09-2020 09:35:00 15.9 C 11.24 g/m*3 15.9 C 0 km/h
1557 05-09-2020 09:40:00 15.9 C 11.24 g/m*3 15.9 C 1.6 km/h
1558 05-09-2020 09:45:00 16 C 11.44 g/m*3 16 C 6.4 km/h
1559 05-09-2020 09:50:00 16.1 C 11.24 g/m*3 16.1 C 4.8 km/h
1560 05-09-2020 09:55:00 16.2 C 11.31 g/m*3 16.2 C 9.7 km/h
1561 05-09-2020 10:00:00 16.2 C 11.31 g/m*3 16.2 C 4.8 km/h
1562 05-09-2020 10:05:00 16.2 C 11.17 g/m*3 16.2 C 6.4 km/h
1563 05-09-2020 10:10:00 16.2 C 11.17 g/m*3 16.2 C 1.6 km/h
1564 05-09-2020 10:15:00 16.3 C 11.24 g/m*3 16.3 C 3.2 km/h
1565 05-09-2020 10:20:00 16.3 C 11.24 g/m*3 16.3 C 1.6 km/h
1566 05-09-2020 10:25:00 16.4 C 11.31 g/m*3 16.4 C 9.7 km/h
1567 05-09-2020 10:30:00 16.6 C 11.3 g/m*3 16.6 C 9.7 km/h
1568 05-09-2020 10:35:00 16.8 C 11.44 g/m*3 16.8 C 6.4 km/h
1569 05-09-2020 10:40:00 17.1 C 11.79 g/m*3 17.1 C 6.4 km/h
1570 05-09-2020 10:45:00 17.2 C 11.86 g/m*3 17.2 C 11.3 km/h
1571 05-09-2020 10:50:00 17.2 C 11.72 g/m*3 17.2 C 9.7 km/h
1572 05-09-2020 10:55:00 17.2 C 11.57 g/m*3 17.2 C 11.3 km/h
1573 05-09-2020 11:00:00 17.2 C 11.72 g/m*3 17.2 C 9.7 km/h
1574 05-09-2020 11:05:00 17.3 C 11.64 g/m*3 17.3 C 4.8 km/h
1575 05-09-2020 11:10:00 17.4 C 11.56 g/m*3 17.4 C 9.7 km/h
Sensor: Nr:Datum:Temp:Abs-Feuchte:Windchill:Wind:
Aussen-T/F 1576 05-09-2020 11:15:00 17.5 C 11.63 g/m*3 17.5 C 8.1 km/h
1577 05-09-2020 11:20:00 17.6 C 11.4 g/m*3 17.6 C 12.9 km/h
1578 05-09-2020 11:25:00 17.8 C 11.54 g/m*3 17.8 C 8.1 km/h
1579 05-09-2020 11:30:00 17.9 C 11.76 g/m*3 17.9 C 0 km/h
1580 05-09-2020 11:35:00 18.2 C 11.66 g/m*3 18.2 C 8.1 km/h
1581 05-09-2020 11:40:00 18.2 C 11.5 g/m*3 18.2 C 6.4 km/h
1582 05-09-2020 11:45:00 18.2 C 11.5 g/m*3 18.2 C 6.4 km/h
1583 05-09-2020 11:50:00 18.1 C 11.43 g/m*3 18.1 C 8.1 km/h
1584 05-09-2020 11:55:00 18.1 C 11.43 g/m*3 18.1 C 12.9 km/h
1585 05-09-2020 12:00:00 18.1 C 11.59 g/m*3 18.1 C 4.8 km/h
1586 05-09-2020 12:05:00 18.1 C 11.43 g/m*3 18.1 C 14.5 km/h
1587 05-09-2020 12:10:00 18.2 C 11.5 g/m*3 18.2 C 11.3 km/h
1588 05-09-2020 12:15:00 18.3 C 11.41 g/m*3 18.3 C 9.7 km/h
1589 05-09-2020 12:20:00 18.3 C 11.41 g/m*3 18.3 C 11.3 km/h
1590 05-09-2020 12:25:00 18.3 C 11.26 g/m*3 18.3 C 11.3 km/h
1591 05-09-2020 12:30:00 18.4 C 11.48 g/m*3 18.4 C 9.7 km/h
1592 05-09-2020 12:35:00 18.5 C 11.39 g/m*3 18.5 C 6.4 km/h
1593 05-09-2020 12:40:00 18.6 C 11.14 g/m*3 18.6 C 12.9 km/h
1594 05-09-2020 12:45:00 18.6 C 11.14 g/m*3 18.6 C 17.7 km/h
1595 05-09-2020 12:50:00 18.5 C 11.23 g/m*3 18.5 C 11.3 km/h
1596 05-09-2020 12:55:00 18.5 C 11.39 g/m*3 18.5 C 12.9 km/h
1597 05-09-2020 13:00:00 18.6 C 11.3 g/m*3 18.6 C 11.3 km/h
1598 05-09-2020 13:05:00 18.6 C 11.3 g/m*3 18.6 C 12.9 km/h
1599 05-09-2020 13:10:00 18.6 C 11.3 g/m*3 18.6 C 8.1 km/h
1600 05-09-2020 13:15:00 18.6 C 11.3 g/m*3 18.6 C 8.1 km/h
Sensor: Nr:Datum:Temp:Abs-Feuchte:Windchill:Wind:
Aussen-T/F 1601 05-09-2020 13:20:00 18.6 C 11.3 g/m*3 18.6 C 17.7 km/h
1602 05-09-2020 13:25:00 18.6 C 11.3 g/m*3 18.6 C 14.5 km/h
1603 05-09-2020 13:30:00 18.7 C 11.53 g/m*3 18.7 C 9.7 km/h
1604 05-09-2020 13:35:00 18.7 C 11.21 g/m*3 18.7 C 12.9 km/h
1605 05-09-2020 13:40:00 18.7 C 11.37 g/m*3 18.7 C 11.3 km/h
1606 05-09-2020 13:45:00 18.6 C 11.3 g/m*3 18.6 C 11.3 km/h
1607 05-09-2020 13:50:00 18.7 C 11.37 g/m*3 18.7 C 8.1 km/h
1608 05-09-2020 13:55:00 18.7 C 11.21 g/m*3 18.7 C 6.4 km/h
1609 05-09-2020 14:00:00 18.8 C 10.95 g/m*3 18.8 C 12.9 km/h
1610 05-09-2020 14:05:00 18.8 C 10.95 g/m*3 18.8 C 14.5 km/h
1611 05-09-2020 14:10:00 18.8 C 11.11 g/m*3 18.8 C 6.4 km/h
1612 05-09-2020 14:15:00 18.9 C 11.18 g/m*3 18.9 C 14.5 km/h
1613 05-09-2020 14:20:00 19 C 11.24 g/m*3 19 C 12.9 km/h
1614 05-09-2020 14:25:00 19.1 C 11.15 g/m*3 19.1 C 12.9 km/h
1615 05-09-2020 14:30:00 19.2 C 11.21 g/m*3 19.2 C 11.3 km/h
1616 05-09-2020 14:35:00 19.1 C 11.15 g/m*3 19.1 C 12.9 km/h
1617 05-09-2020 14:40:00 18.9 C 11.18 g/m*3 18.9 C 12.9 km/h
1618 05-09-2020 14:45:00 18.7 C 11.37 g/m*3 18.7 C 17.7 km/h
1619 05-09-2020 14:50:00 18.4 C 11.32 g/m*3 18.4 C 12.9 km/h
1620 05-09-2020 14:55:00 18.2 C 11.19 g/m*3 18.2 C 12.9 km/h
1621 05-09-2020 15:00:00 18 C 11.21 g/m*3 18 C 16.1 km/h
1622 05-09-2020 15:05:00 17.8 C 11.23 g/m*3 17.8 C 8.1 km/h
1623 05-09-2020 15:10:00 17.7 C 11.32 g/m*3 17.7 C 14.5 km/h
1624 05-09-2020 15:15:00 17.6 C 11.1 g/m*3 17.6 C 9.7 km/h
1625 05-09-2020 15:20:00 17.6 C 11.1 g/m*3 17.6 C 8.1 km/h
Sensor: Nr:Datum:Temp:Abs-Feuchte:Windchill:Wind:
Aussen-T/F 1626 05-09-2020 15:25:00 17.5 C 11.03 g/m*3 17.5 C 8.1 km/h
1627 05-09-2020 15:30:00 17.4 C 10.97 g/m*3 17.4 C 11.3 km/h
1628 05-09-2020 15:35:00 17.5 C 11.03 g/m*3 17.5 C 11.3 km/h
1629 05-09-2020 15:40:00 17.7 C 11.01 g/m*3 17.7 C 11.3 km/h
1630 05-09-2020 15:45:00 18 C 11.21 g/m*3 18 C 9.7 km/h
1631 05-09-2020 15:50:00 18.2 C 10.88 g/m*3 18.2 C 16.1 km/h
1632 05-09-2020 15:55:00 18.2 C 10.72 g/m*3 18.2 C 11.3 km/h
1633 05-09-2020 16:00:00 18.2 C 10.88 g/m*3 18.2 C 11.3 km/h
1634 05-09-2020 16:05:00 18.2 C 10.72 g/m*3 18.2 C 11.3 km/h
1635 05-09-2020 16:10:00 18.2 C 10.57 g/m*3 18.2 C 9.7 km/h
1636 05-09-2020 16:15:00 18.3 C 10.63 g/m*3 18.3 C 11.3 km/h
1637 05-09-2020 16:20:00 18.5 C 10.76 g/m*3 18.5 C 8.1 km/h
1638 05-09-2020 16:25:00 18.7 C 10.73 g/m*3 18.7 C 11.3 km/h
1639 05-09-2020 16:30:00 18.8 C 10.63 g/m*3 18.8 C 8.1 km/h
1640 05-09-2020 16:35:00 18.9 C 10.85 g/m*3 18.9 C 11.3 km/h
1641 05-09-2020 16:40:00 19.1 C 10.66 g/m*3 19.1 C 6.4 km/h
1642 05-09-2020 16:45:00 19.1 C 10.66 g/m*3 19.1 C 8.1 km/h
1643 05-09-2020 16:50:00 19.1 C 10.49 g/m*3 19.1 C 9.7 km/h
1644 05-09-2020 16:55:00 19.1 C 10.49 g/m*3 19.1 C 9.7 km/h
1645 05-09-2020 17:00:00 19 C 10.27 g/m*3 19 C 9.7 km/h
1646 05-09-2020 17:05:00 19 C 10.43 g/m*3 19 C 8.1 km/h
1647 05-09-2020 17:10:00 19.2 C 10.39 g/m*3 19.2 C 9.7 km/h
1648 05-09-2020 17:15:00 19.3 C 10.12 g/m*3 19.3 C 11.3 km/h
1649 05-09-2020 17:20:00 19.4 C 10.34 g/m*3 19.4 C 9.7 km/h
1650 05-09-2020 17:25:00 19.5 C 10.07 g/m*3 19.5 C 8.1 km/h
Sensor: Nr:Datum:Temp:Abs-Feuchte:Windchill:Wind:
Aussen-T/F 1651 05-09-2020 17:30:00 19.6 C 9.96 g/m*3 19.6 C 9.7 km/h
1652 05-09-2020 17:35:00 19.6 C 9.96 g/m*3 19.6 C 11.3 km/h
1653 05-09-2020 17:40:00 19.6 C 9.79 g/m*3 19.6 C 9.7 km/h
1654 05-09-2020 17:45:00 19.7 C 9.68 g/m*3 19.7 C 11.3 km/h
1655 05-09-2020 17:50:00 19.7 C 9.68 g/m*3 19.7 C 6.4 km/h
1656 05-09-2020 17:55:00 19.7 C 9.85 g/m*3 19.7 C 8.1 km/h
1657 05-09-2020 18:00:00 19.7 C 9.51 g/m*3 19.7 C 12.9 km/h
1658 05-09-2020 18:05:00 19.6 C 9.28 g/m*3 19.6 C 9.7 km/h
1659 05-09-2020 18:10:00 19.5 C 9.57 g/m*3 19.5 C 4.8 km/h
1660 05-09-2020 18:15:00 19.5 C 9.57 g/m*3 19.5 C 6.4 km/h
1661 05-09-2020 18:20:00 19.8 C 9.22 g/m*3 19.8 C 8.1 km/h
1662 05-09-2020 18:25:00 20.3 C 9.15 g/m*3 20.3 C 6.4 km/h
1663 05-09-2020 18:30:00 20.7 C 9.36 g/m*3 20.7 C 6.4 km/h
1664 05-09-2020 18:35:00 20.7 C 8.82 g/m*3 20.7 C 11.3 km/h
1665 05-09-2020 18:40:00 20.8 C 8.51 g/m*3 20.8 C 9.7 km/h
1666 05-09-2020 18:45:00 20.8 C 8.33 g/m*3 20.8 C 12.9 km/h
1667 05-09-2020 18:50:00 20.7 C 9 g/m*3 20.7 C 1.6 km/h
1668 05-09-2020 18:55:00 20.3 C 8.44 g/m*3 20.3 C 4.8 km/h
1669 05-09-2020 19:00:00 19.9 C 8.59 g/m*3 19.9 C 3.2 km/h
1670 05-09-2020 19:05:00 19.6 C 8.44 g/m*3 19.6 C 8.1 km/h
1671 05-09-2020 19:10:00 19.5 C 9.57 g/m*3 19.5 C 4.8 km/h
1672 05-09-2020 19:15:00 19.4 C 10.01 g/m*3 19.4 C 0 km/h
1673 05-09-2020 19:20:00 19.1 C 9.34 g/m*3 19.1 C 0 km/h
1674 05-09-2020 19:25:00 18.8 C 9.18 g/m*3 18.8 C 0 km/h
1675 05-09-2020 19:30:00 18.6 C 9.23 g/m*3 18.6 C 0 km/h
Sensor: Nr:Datum:Temp:Abs-Feuchte:Windchill:Wind:
Aussen-T/F 1676 05-09-2020 19:35:00 18.3 C 9.69 g/m*3 18.3 C 0 km/h
1677 05-09-2020 19:40:00 18 C 9.68 g/m*3 18 C 3.2 km/h
1678 05-09-2020 19:45:00 17.6 C 9.15 g/m*3 17.6 C 1.6 km/h
1679 05-09-2020 19:50:00 17.3 C 8.69 g/m*3 17.3 C 0 km/h
1680 05-09-2020 19:55:00 17.1 C 9.03 g/m*3 17.1 C 0 km/h
1681 05-09-2020 20:00:00 16.8 C 9.29 g/m*3 16.8 C 0 km/h
1682 05-09-2020 20:05:00 16.7 C 8.81 g/m*3 16.7 C 6.4 km/h
1683 05-09-2020 20:10:00 16.7 C 8.81 g/m*3 16.7 C 8.1 km/h
1684 05-09-2020 20:15:00 16.7 C 8.95 g/m*3 16.7 C 4.8 km/h
1685 05-09-2020 20:20:00 16.7 C 8.95 g/m*3 16.7 C 0 km/h
1686 05-09-2020 20:25:00 16.7 C 9.38 g/m*3 16.7 C 0 km/h
1687 05-09-2020 20:30:00 16.6 C 9.18 g/m*3 16.6 C 6.4 km/h
1688 05-09-2020 20:35:00 16.5 C 9.27 g/m*3 16.5 C 4.8 km/h
1689 05-09-2020 20:40:00 16.3 C 9.3 g/m*3 16.3 C 3.2 km/h
1690 05-09-2020 20:45:00 16.1 C 9.46 g/m*3 16.1 C 4.8 km/h
1691 05-09-2020 20:50:00 15.7 C 9.37 g/m*3 15.7 C 4.8 km/h
1692 05-09-2020 20:55:00 15.4 C 9.46 g/m*3 15.4 C 0 km/h
1693 05-09-2020 21:00:00 15.1 C 9.42 g/m*3 15.1 C 6.4 km/h
1694 05-09-2020 21:05:00 14.9 C 9.43 g/m*3 14.9 C 4.8 km/h
1695 05-09-2020 21:10:00 14.7 C 9.44 g/m*3 14.7 C 0 km/h
1696 05-09-2020 21:15:00 14.5 C 9.33 g/m*3 14.5 C 0 km/h
1697 05-09-2020 21:20:00 14.4 C 9.39 g/m*3 14.4 C 3.2 km/h
1698 05-09-2020 21:25:00 14.3 C 9.46 g/m*3 14.3 C 3.2 km/h
1699 05-09-2020 21:30:00 14.2 C 9.28 g/m*3 14.2 C 3.2 km/h
1700 05-09-2020 21:35:00 14.2 C 9.28 g/m*3 14.2 C 0 km/h
Sensor: Nr:Datum:Temp:Abs-Feuchte:Windchill:Wind:
Aussen-T/F 1701 05-09-2020 21:40:00 14.2 C 9.4 g/m*3 14.2 C 4.8 km/h
1702 05-09-2020 21:45:00 14.1 C 9.22 g/m*3 14.1 C 1.6 km/h
1703 05-09-2020 21:50:00 13.9 C 9.23 g/m*3 13.9 C 4.8 km/h
1704 05-09-2020 21:55:00 13.8 C 9.29 g/m*3 13.8 C 4.8 km/h
1705 05-09-2020 22:00:00 13.8 C 9.29 g/m*3 13.8 C 3.2 km/h
1706 05-09-2020 22:05:00 13.7 C 9.12 g/m*3 13.7 C 6.4 km/h
1707 05-09-2020 22:10:00 13.7 C 9.24 g/m*3 13.7 C 4.8 km/h
1708 05-09-2020 22:15:00 13.7 C 9.24 g/m*3 13.7 C 4.8 km/h
1709 05-09-2020 22:20:00 13.7 C 9.24 g/m*3 13.7 C 4.8 km/h
1710 05-09-2020 22:25:00 13.7 C 9.24 g/m*3 13.7 C 4.8 km/h
1711 05-09-2020 22:30:00 13.6 C 9.18 g/m*3 13.6 C 4.8 km/h
1712 05-09-2020 22:35:00 13.7 C 9.24 g/m*3 13.7 C 6.4 km/h
1713 05-09-2020 22:40:00 13.8 C 9.29 g/m*3 13.8 C 3.2 km/h
1714 05-09-2020 22:45:00 13.8 C 9.41 g/m*3 13.8 C 0 km/h
1715 05-09-2020 22:50:00 13.8 C 9.41 g/m*3 13.8 C 0 km/h
1716 05-09-2020 22:55:00 13.7 C 9.35 g/m*3 13.7 C 0 km/h
1717 05-09-2020 23:00:00 13.6 C 9.3 g/m*3 13.6 C 0 km/h
1718 05-09-2020 23:05:00 13.4 C 9.18 g/m*3 13.4 C 4.8 km/h
1719 05-09-2020 23:10:00 13.3 C 9.24 g/m*3 13.3 C 4.8 km/h
1720 05-09-2020 23:15:00 13.2 C 9.19 g/m*3 13.2 C 3.2 km/h
1721 05-09-2020 23:20:00 13.1 C 9.24 g/m*3 13.1 C 6.4 km/h
1722 05-09-2020 23:25:00 13.1 C 9.24 g/m*3 13.1 C 4.8 km/h
1723 05-09-2020 23:30:00 13.1 C 9.36 g/m*3 13.1 C 6.4 km/h
1724 05-09-2020 23:35:00 12.9 C 9.24 g/m*3 12.9 C 4.8 km/h
1725 05-09-2020 23:40:00 12.9 C 9.24 g/m*3 12.9 C 4.8 km/h
Sensor: Nr:Datum:Temp:Abs-Feuchte:Windchill:Wind:
Aussen-T/F 1726 05-09-2020 23:45:00 12.8 C 9.07 g/m*3 12.8 C 4.8 km/h
1727 05-09-2020 23:50:00 12.8 C 9.18 g/m*3 12.8 C 4.8 km/h
1728 05-09-2020 23:55:00 12.8 C 9.18 g/m*3 12.8 C 4.8 km/h
1729 06-09-2020 00:00:00 12.8 C 9.18 g/m*3 12.8 C 3.2 km/h
1730 06-09-2020 00:05:00 12.8 C 9.18 g/m*3 12.8 C 3.2 km/h
1731 06-09-2020 00:10:00 12.7 C 9.24 g/m*3 12.7 C 3.2 km/h
1732 06-09-2020 00:15:00 12.7 C 9.24 g/m*3 12.7 C 4.8 km/h
1733 06-09-2020 00:20:00 12.7 C 9.24 g/m*3 12.7 C 4.8 km/h
1734 06-09-2020 00:25:00 12.6 C 9.18 g/m*3 12.6 C 3.2 km/h
1735 06-09-2020 00:30:00 12.6 C 9.18 g/m*3 12.6 C 0 km/h
1736 06-09-2020 00:35:00 12.5 C 9.13 g/m*3 12.5 C 3.2 km/h
1737 06-09-2020 00:40:00 12.4 C 9.18 g/m*3 12.4 C 1.6 km/h
1738 06-09-2020 00:45:00 12.3 C 9.12 g/m*3 12.3 C 4.8 km/h
1739 06-09-2020 00:50:00 12.3 C 9.23 g/m*3 12.3 C 1.6 km/h
1740 06-09-2020 00:55:00 12.2 C 9.17 g/m*3 12.2 C 0 km/h
1741 06-09-2020 01:00:00 12.2 C 9.17 g/m*3 12.2 C 0 km/h
1742 06-09-2020 01:05:00 12.1 C 9.22 g/m*3 12.1 C 0 km/h
1743 06-09-2020 01:10:00 11.9 C 9.11 g/m*3 11.9 C 0 km/h
1744 06-09-2020 01:15:00 11.9 C 9.11 g/m*3 11.9 C 0 km/h
1745 06-09-2020 01:20:00 11.8 C 9.16 g/m*3 11.8 C 0 km/h
1746 06-09-2020 01:25:00 11.8 C 9.16 g/m*3 11.8 C 0 km/h
1747 06-09-2020 01:30:00 11.8 C 9.16 g/m*3 11.8 C 0 km/h
1748 06-09-2020 01:35:00 11.7 C 9.1 g/m*3 11.7 C 0 km/h
1749 06-09-2020 01:40:00 11.6 C 9.04 g/m*3 11.6 C 0 km/h
1750 06-09-2020 01:45:00 11.4 C 8.93 g/m*3 11.4 C 0 km/h
Sensor: Nr:Datum:Temp:Abs-Feuchte:Windchill:Wind:
Aussen-T/F 1751 06-09-2020 01:50:00 11.3 C 8.87 g/m*3 11.3 C 0 km/h
1752 06-09-2020 01:55:00 11.2 C 8.92 g/m*3 11.2 C 0 km/h
1753 06-09-2020 02:00:00 11.1 C 8.76 g/m*3 11.1 C 0 km/h
1754 06-09-2020 02:05:00 10.9 C 8.75 g/m*3 10.9 C 0 km/h
1755 06-09-2020 02:10:00 10.8 C 8.7 g/m*3 10.8 C 0 km/h
1756 06-09-2020 02:15:00 10.7 C 8.64 g/m*3 10.7 C 1.6 km/h
1757 06-09-2020 02:20:00 10.6 C 8.69 g/m*3 10.6 C 0 km/h
1758 06-09-2020 02:25:00 10.5 C 8.63 g/m*3 10.5 C 0 km/h
1759 06-09-2020 02:30:00 10.4 C 8.58 g/m*3 10.4 C 0 km/h
1760 06-09-2020 02:35:00 10.4 C 8.58 g/m*3 10.4 C 0 km/h
1761 06-09-2020 02:40:00 10.3 C 8.52 g/m*3 10.3 C 0 km/h
1762 06-09-2020 02:45:00 10.2 C 8.47 g/m*3 10.2 C 0 km/h
1763 06-09-2020 02:50:00 10.2 C 8.56 g/m*3 10.2 C 0 km/h
1764 06-09-2020 02:55:00 10.1 C 8.51 g/m*3 10.1 C 0 km/h
1765 06-09-2020 03:00:00 10 C 8.46 g/m*3 10 C 0 km/h
1766 06-09-2020 03:05:00 9.9 C 8.4 g/m*3 9.9 C 0 km/h
1767 06-09-2020 03:10:00 9.9 C 8.4 g/m*3 9.9 C 0 km/h
1768 06-09-2020 03:15:00 9.8 C 8.35 g/m*3 9.8 C 1.6 km/h
1769 06-09-2020 03:20:00 9.7 C 8.3 g/m*3 9.7 C 0 km/h
1770 06-09-2020 03:25:00 9.7 C 8.39 g/m*3 9.7 C 0 km/h
1771 06-09-2020 03:30:00 9.6 C 8.34 g/m*3 9.6 C 0 km/h
1772 06-09-2020 03:35:00 9.6 C 8.34 g/m*3 9.6 C 0 km/h
1773 06-09-2020 03:40:00 9.5 C 8.28 g/m*3 9.5 C 0 km/h
1774 06-09-2020 03:45:00 9.4 C 8.23 g/m*3 9.4 C 1.6 km/h
1775 06-09-2020 03:50:00 9.4 C 8.32 g/m*3 9.4 C 0 km/h
Sensor: Nr:Datum:Temp:Abs-Feuchte:Windchill:Wind:
Aussen-T/F 1776 06-09-2020 03:55:00 9.3 C 8.27 g/m*3 9.3 C 0 km/h
1777 06-09-2020 04:00:00 9.3 C 8.27 g/m*3 9.3 C 0 km/h
1778 06-09-2020 04:05:00 9.3 C 8.36 g/m*3 9.3 C 0 km/h
1779 06-09-2020 04:10:00 9.3 C 8.27 g/m*3 9.3 C 0 km/h
1780 06-09-2020 04:15:00 9.3 C 8.27 g/m*3 9.3 C 0 km/h
1781 06-09-2020 04:20:00 9.2 C 8.22 g/m*3 9.2 C 0 km/h
1782 06-09-2020 04:25:00 9.1 C 8.16 g/m*3 9.1 C 0 km/h
1783 06-09-2020 04:30:00 9.1 C 8.16 g/m*3 9.1 C 0 km/h
1784 06-09-2020 04:35:00 8.9 C 8.06 g/m*3 8.9 C 0 km/h
1785 06-09-2020 04:40:00 8.9 C 8.06 g/m*3 8.9 C 0 km/h
1786 06-09-2020 04:45:00 8.8 C 8.01 g/m*3 8.8 C 1.6 km/h
1787 06-09-2020 04:50:00 8.8 C 8.09 g/m*3 8.8 C 0 km/h
1788 06-09-2020 04:55:00 8.8 C 8.09 g/m*3 8.8 C 0 km/h
1789 06-09-2020 05:00:00 8.7 C 8.04 g/m*3 8.7 C 1.6 km/h
1790 06-09-2020 05:05:00 8.7 C 8.04 g/m*3 8.7 C 0 km/h
1791 06-09-2020 05:10:00 8.7 C 8.04 g/m*3 8.7 C 0 km/h
1792 06-09-2020 05:15:00 8.7 C 8.04 g/m*3 8.7 C 0 km/h
1793 06-09-2020 05:20:00 8.6 C 7.99 g/m*3 8.6 C 1.6 km/h
1794 06-09-2020 05:25:00 8.6 C 7.99 g/m*3 8.6 C 1.6 km/h
1795 06-09-2020 05:30:00 8.6 C 8.08 g/m*3 8.6 C 0 km/h
1796 06-09-2020 05:35:00 8.7 C 8.13 g/m*3 8.7 C 0 km/h
1797 06-09-2020 05:40:00 8.6 C 8.08 g/m*3 8.6 C 0 km/h
1798 06-09-2020 05:45:00 8.6 C 7.99 g/m*3 8.6 C 0 km/h
1799 06-09-2020 05:50:00 8.4 C 7.97 g/m*3 8.4 C 0 km/h
1800 06-09-2020 05:55:00 8.4 C 7.97 g/m*3 8.4 C 0 km/h
Sensor: Nr:Datum:Temp:Abs-Feuchte:Windchill:Wind:
Aussen-T/F 1801 06-09-2020 06:00:00 8.3 C 7.84 g/m*3 8.3 C 0 km/h
1802 06-09-2020 06:05:00 8.3 C 7.84 g/m*3 8.3 C 0 km/h
1803 06-09-2020 06:10:00 8.2 C 7.87 g/m*3 8.2 C 0 km/h
1804 06-09-2020 06:15:00 8.2 C 7.87 g/m*3 8.2 C 0 km/h
1805 06-09-2020 06:20:00 8.1 C 7.82 g/m*3 8.1 C 0 km/h
1806 06-09-2020 06:25:00 8.1 C 7.82 g/m*3 8.1 C 0 km/h
1807 06-09-2020 06:30:00 8 C 7.77 g/m*3 8 C 0 km/h
1808 06-09-2020 06:35:00 8.1 C 7.82 g/m*3 8.1 C 0 km/h
1809 06-09-2020 06:40:00 8.2 C 7.87 g/m*3 8.2 C 0 km/h
1810 06-09-2020 06:45:00 8.2 C 7.87 g/m*3 8.2 C 0 km/h
1811 06-09-2020 06:50:00 8.2 C 7.87 g/m*3 8.2 C 0 km/h
1812 06-09-2020 06:55:00 8.2 C 7.87 g/m*3 8.2 C 0 km/h
1813 06-09-2020 07:00:00 8.1 C 7.82 g/m*3 8.1 C 0 km/h
1814 06-09-2020 07:05:00 7.9 C 7.72 g/m*3 7.9 C 0 km/h
1815 06-09-2020 07:10:00 7.9 C 7.72 g/m*3 7.9 C 1.6 km/h
1816 06-09-2020 07:15:00 7.9 C 7.8 g/m*3 7.9 C 0 km/h
1817 06-09-2020 07:20:00 8 C 7.85 g/m*3 8 C 0 km/h
1818 06-09-2020 07:25:00 8 C 7.85 g/m*3 8 C 0 km/h
1819 06-09-2020 07:30:00 8.1 C 7.9 g/m*3 8.1 C 0 km/h
1820 06-09-2020 07:35:00 8.1 C 7.9 g/m*3 8.1 C 0 km/h
1821 06-09-2020 07:40:00 8.1 C 7.9 g/m*3 8.1 C 0 km/h
1822 06-09-2020 07:45:00 8.1 C 7.9 g/m*3 8.1 C 0 km/h
1823 06-09-2020 07:50:00 8.1 C 7.9 g/m*3 8.1 C 0 km/h
1824 06-09-2020 07:55:00 8.1 C 7.9 g/m*3 8.1 C 0 km/h
1825 06-09-2020 08:00:00 8 C 7.85 g/m*3 8 C 0 km/h
Sensor: Nr:Datum:Temp:Abs-Feuchte:Windchill:Wind:
Aussen-T/F 1826 06-09-2020 08:05:00 8 C 7.85 g/m*3 8 C 0 km/h
1827 06-09-2020 08:10:00 8 C 7.85 g/m*3 8 C 0 km/h
1828 06-09-2020 08:15:00 8 C 7.85 g/m*3 8 C 0 km/h
1829 06-09-2020 08:20:00 8.1 C 7.9 g/m*3 8.1 C 0 km/h
1830 06-09-2020 08:25:00 8.1 C 7.9 g/m*3 8.1 C 0 km/h
1831 06-09-2020 08:30:00 8.1 C 7.9 g/m*3 8.1 C 0 km/h
1832 06-09-2020 08:35:00 8.1 C 7.9 g/m*3 8.1 C 3.2 km/h
1833 06-09-2020 08:40:00 8.2 C 7.96 g/m*3 8.2 C 3.2 km/h
1834 06-09-2020 08:45:00 8.2 C 7.96 g/m*3 8.2 C 0 km/h
1835 06-09-2020 08:50:00 8.3 C 8.01 g/m*3 8.3 C 0 km/h
1836 06-09-2020 08:55:00 8.4 C 8.06 g/m*3 8.4 C 0 km/h
1837 06-09-2020 09:00:00 8.5 C 8.2 g/m*3 8.5 C 0 km/h
1838 06-09-2020 09:05:00 8.6 C 8.25 g/m*3 8.6 C 1.6 km/h
1839 06-09-2020 09:10:00 8.7 C 8.22 g/m*3 8.7 C 0 km/h
1840 06-09-2020 09:15:00 8.7 C 8.22 g/m*3 8.7 C 0 km/h
1841 06-09-2020 09:20:00 8.8 C 8.27 g/m*3 8.8 C 3.2 km/h
1842 06-09-2020 09:25:00 8.8 C 8.36 g/m*3 8.8 C 3.2 km/h
1843 06-09-2020 09:30:00 8.9 C 8.41 g/m*3 8.9 C 0 km/h
1844 06-09-2020 09:35:00 9.1 C 8.52 g/m*3 9.1 C 0 km/h
1845 06-09-2020 09:40:00 9.2 C 8.57 g/m*3 9.2 C 0 km/h
1846 06-09-2020 09:45:00 9.3 C 8.63 g/m*3 9.3 C 3.2 km/h
1847 06-09-2020 09:50:00 9.4 C 8.68 g/m*3 9.4 C 4.8 km/h
1848 06-09-2020 09:55:00 9.6 C 8.79 g/m*3 9.6 C 0 km/h
1849 06-09-2020 10:00:00 9.7 C 8.85 g/m*3 9.7 C 0 km/h
1850 06-09-2020 10:05:00 9.8 C 8.91 g/m*3 9.8 C 1.6 km/h
Sensor: Nr:Datum:Temp:Abs-Feuchte:Windchill:Wind:
Aussen-T/F 1851 06-09-2020 10:10:00 9.9 C 8.96 g/m*3 9.9 C 1.6 km/h
1852 06-09-2020 10:15:00 10.1 C 9.08 g/m*3 10.1 C 1.6 km/h
1853 06-09-2020 10:20:00 10.3 C 9.19 g/m*3 10.3 C 0 km/h
1854 06-09-2020 10:25:00 10.4 C 9.25 g/m*3 10.4 C 0 km/h
1855 06-09-2020 10:30:00 10.6 C 9.37 g/m*3 10.6 C 0 km/h
1856 06-09-2020 10:35:00 10.8 C 9.39 g/m*3 10.8 C 0 km/h
1857 06-09-2020 10:40:00 11.1 C 9.57 g/m*3 11.1 C 0 km/h
1858 06-09-2020 10:45:00 11.3 C 9.59 g/m*3 11.3 C 0 km/h
1859 06-09-2020 10:50:00 11.6 C 9.77 g/m*3 11.6 C 0 km/h
1860 06-09-2020 10:55:00 11.8 C 9.79 g/m*3 11.8 C 0 km/h
1861 06-09-2020 11:00:00 12.1 C 9.76 g/m*3 12.1 C 0 km/h
1862 06-09-2020 11:05:00 12.4 C 9.83 g/m*3 12.4 C 0 km/h
1863 06-09-2020 11:10:00 12.7 C 9.68 g/m*3 12.7 C 0 km/h
1864 06-09-2020 11:15:00 12.9 C 9.81 g/m*3 12.9 C 0 km/h
1865 06-09-2020 11:20:00 13.3 C 9.82 g/m*3 13.3 C 0 km/h
1866 06-09-2020 11:25:00 13.6 C 9.77 g/m*3 13.6 C 0 km/h
1867 06-09-2020 11:30:00 14 C 9.53 g/m*3 14 C 0 km/h
1868 06-09-2020 11:35:00 14.4 C 9.52 g/m*3 14.4 C 0 km/h
1869 06-09-2020 11:40:00 14.7 C 9.32 g/m*3 14.7 C 0 km/h
1870 06-09-2020 11:45:00 15 C 9.23 g/m*3 15 C 0 km/h
1871 06-09-2020 11:50:00 15.3 C 9.4 g/m*3 15.3 C 0 km/h
1872 06-09-2020 11:55:00 15.7 C 9.5 g/m*3 15.7 C 6.4 km/h
1873 06-09-2020 12:00:00 15.8 C 9.29 g/m*3 15.8 C 4.8 km/h
1874 06-09-2020 12:05:00 16 C 9.4 g/m*3 16 C 4.8 km/h
1875 06-09-2020 12:10:00 16.1 C 9.32 g/m*3 16.1 C 0 km/h
Sensor: Nr:Datum:Temp:Abs-Feuchte:Windchill:Wind:
Aussen-T/F 1876 06-09-2020 12:15:00 16.2 C 9.38 g/m*3 16.2 C 3.2 km/h
1877 06-09-2020 12:20:00 16.3 C 9.3 g/m*3 16.3 C 6.4 km/h
1878 06-09-2020 12:25:00 16.3 C 9.16 g/m*3 16.3 C 3.2 km/h
1879 06-09-2020 12:30:00 16.4 C 9.07 g/m*3 16.4 C 9.7 km/h
1880 06-09-2020 12:35:00 16.6 C 9.04 g/m*3 16.6 C 8.1 km/h
1881 06-09-2020 12:40:00 16.7 C 9.1 g/m*3 16.7 C 3.2 km/h
1882 06-09-2020 12:45:00 16.8 C 9.01 g/m*3 16.8 C 0 km/h
1883 06-09-2020 12:50:00 16.9 C 8.92 g/m*3 16.9 C 6.4 km/h
1884 06-09-2020 12:55:00 17.1 C 9.17 g/m*3 17.1 C 8.1 km/h
1885 06-09-2020 13:00:00 17.2 C 9.23 g/m*3 17.2 C 8.1 km/h
1886 06-09-2020 13:05:00 17.3 C 8.99 g/m*3 17.3 C 8.1 km/h
1887 06-09-2020 13:10:00 17.4 C 8.89 g/m*3 17.4 C 3.2 km/h
1888 06-09-2020 13:15:00 17.4 C 8.89 g/m*3 17.4 C 8.1 km/h
1889 06-09-2020 13:20:00 17.5 C 8.8 g/m*3 17.5 C 6.4 km/h
1890 06-09-2020 13:25:00 17.5 C 8.65 g/m*3 17.5 C 0 km/h
1891 06-09-2020 13:30:00 17.4 C 8.89 g/m*3 17.4 C 0 km/h
1892 06-09-2020 13:35:00 17.4 C 8.74 g/m*3 17.4 C 0 km/h
1893 06-09-2020 13:40:00 17.4 C 8.74 g/m*3 17.4 C 0 km/h
1894 06-09-2020 13:45:00 17.5 C 8.65 g/m*3 17.5 C 0 km/h
1895 06-09-2020 13:50:00 17.6 C 8.85 g/m*3 17.6 C 6.4 km/h
1896 06-09-2020 13:55:00 17.8 C 8.65 g/m*3 17.8 C 8.1 km/h
1897 06-09-2020 14:00:00 17.9 C 8.7 g/m*3 17.9 C 8.1 km/h
1898 06-09-2020 14:05:00 18.1 C 8.65 g/m*3 18.1 C 3.2 km/h
1899 06-09-2020 14:10:00 18.2 C 8.86 g/m*3 18.2 C 6.4 km/h
1900 06-09-2020 14:15:00 18.4 C 8.81 g/m*3 18.4 C 4.8 km/h
Sensor: Nr:Datum:Temp:Abs-Feuchte:Windchill:Wind:
Aussen-T/F 1901 06-09-2020 14:20:00 18.6 C 8.44 g/m*3 18.6 C 4.8 km/h
1902 06-09-2020 14:25:00 18.7 C 8.65 g/m*3 18.7 C 3.2 km/h
1903 06-09-2020 14:30:00 18.8 C 8.86 g/m*3 18.8 C 6.4 km/h
1904 06-09-2020 14:35:00 18.8 C 8.86 g/m*3 18.8 C 8.1 km/h
1905 06-09-2020 14:40:00 18.8 C 8.86 g/m*3 18.8 C 3.2 km/h
1906 06-09-2020 14:45:00 18.9 C 8.91 g/m*3 18.9 C 6.4 km/h
1907 06-09-2020 14:50:00 19.1 C 9.02 g/m*3 19.1 C 0 km/h
1908 06-09-2020 14:55:00 19.1 C 9.02 g/m*3 19.1 C 0 km/h
1909 06-09-2020 15:00:00 19.2 C 8.74 g/m*3 19.2 C 9.7 km/h
1910 06-09-2020 15:05:00 19.1 C 8.52 g/m*3 19.1 C 11.3 km/h
1911 06-09-2020 15:10:00 18.9 C 8.42 g/m*3 18.9 C 4.8 km/h
1912 06-09-2020 15:15:00 18.9 C 8.59 g/m*3 18.9 C 6.4 km/h
1913 06-09-2020 15:20:00 19 C 8.64 g/m*3 19 C 6.4 km/h
1914 06-09-2020 15:25:00 19.1 C 8.52 g/m*3 19.1 C 0 km/h
1915 06-09-2020 15:30:00 19.2 C 8.74 g/m*3 19.2 C 0 km/h
1916 06-09-2020 15:35:00 19.2 C 8.41 g/m*3 19.2 C 6.4 km/h
1917 06-09-2020 15:40:00 19.1 C 8.85 g/m*3 19.1 C 6.4 km/h
1918 06-09-2020 15:45:00 19.1 C 8.69 g/m*3 19.1 C 8.1 km/h
1919 06-09-2020 15:50:00 18.9 C 8.59 g/m*3 18.9 C 8.1 km/h
1920 06-09-2020 15:55:00 18.8 C 8.54 g/m*3 18.8 C 8.1 km/h
1921 06-09-2020 16:00:00 18.7 C 8.49 g/m*3 18.7 C 9.7 km/h
1922 06-09-2020 16:05:00 18.6 C 8.44 g/m*3 18.6 C 4.8 km/h
1923 06-09-2020 16:10:00 18.5 C 8.54 g/m*3 18.5 C 0 km/h
1924 06-09-2020 16:15:00 18.4 C 8.34 g/m*3 18.4 C 1.6 km/h
1925 06-09-2020 16:20:00 18.4 C 8.34 g/m*3 18.4 C 3.2 km/h
Sensor: Nr:Datum:Temp:Abs-Feuchte:Windchill:Wind:
Aussen-T/F 1926 06-09-2020 16:25:00 18.4 C 8.34 g/m*3 18.4 C 0 km/h
1927 06-09-2020 16:30:00 18.4 C 8.34 g/m*3 18.4 C 8.1 km/h
1928 06-09-2020 16:35:00 18.4 C 8.34 g/m*3 18.4 C 6.4 km/h
1929 06-09-2020 16:40:00 18.5 C 8.39 g/m*3 18.5 C 4.8 km/h
1930 06-09-2020 16:45:00 18.5 C 8.39 g/m*3 18.5 C 8.1 km/h
1931 06-09-2020 16:50:00 18.6 C 8.59 g/m*3 18.6 C 11.3 km/h
1932 06-09-2020 16:55:00 18.6 C 8.59 g/m*3 18.6 C 8.1 km/h
1933 06-09-2020 17:00:00 18.6 C 8.59 g/m*3 18.6 C 9.7 km/h
1934 06-09-2020 17:05:00 18.7 C 8.49 g/m*3 18.7 C 8.1 km/h
1935 06-09-2020 17:10:00 18.7 C 8.49 g/m*3 18.7 C 8.1 km/h
1936 06-09-2020 17:15:00 18.7 C 8.65 g/m*3 18.7 C 3.2 km/h
1937 06-09-2020 17:20:00 18.7 C 8.65 g/m*3 18.7 C 6.4 km/h
1938 06-09-2020 17:25:00 18.7 C 8.49 g/m*3 18.7 C 4.8 km/h
1939 06-09-2020 17:30:00 18.6 C 8.59 g/m*3 18.6 C 9.7 km/h
1940 06-09-2020 17:35:00 18.6 C 8.91 g/m*3 18.6 C 8.1 km/h
1941 06-09-2020 17:40:00 18.5 C 8.86 g/m*3 18.5 C 9.7 km/h
1942 06-09-2020 17:45:00 18.4 C 8.97 g/m*3 18.4 C 9.7 km/h
1943 06-09-2020 17:50:00 18.3 C 8.6 g/m*3 18.3 C 8.1 km/h
1944 06-09-2020 17:55:00 18.3 C 8.91 g/m*3 18.3 C 4.8 km/h
1945 06-09-2020 18:00:00 18.3 C 8.76 g/m*3 18.3 C 6.4 km/h
1946 06-09-2020 18:05:00 18.3 C 8.76 g/m*3 18.3 C 4.8 km/h
1947 06-09-2020 18:10:00 18.3 C 8.76 g/m*3 18.3 C 4.8 km/h
1948 06-09-2020 18:15:00 18.4 C 8.81 g/m*3 18.4 C 1.6 km/h
1949 06-09-2020 18:20:00 18.9 C 8.91 g/m*3 18.9 C 0 km/h
1950 06-09-2020 18:25:00 19.3 C 8.79 g/m*3 19.3 C 0 km/h
Sensor: Nr:Datum:Temp:Abs-Feuchte:Windchill:Wind:
Aussen-T/F 1951 06-09-2020 18:30:00 19.6 C 8.78 g/m*3 19.6 C 0 km/h
1952 06-09-2020 18:35:00 19.7 C 8.66 g/m*3 19.7 C 9.7 km/h
1953 06-09-2020 18:40:00 19.6 C 8.61 g/m*3 19.6 C 4.8 km/h
1954 06-09-2020 18:45:00 19.6 C 8.95 g/m*3 19.6 C 1.6 km/h
1955 06-09-2020 18:50:00 19.7 C 8.49 g/m*3 19.7 C 3.2 km/h
1956 06-09-2020 18:55:00 19.7 C 8.83 g/m*3 19.7 C 3.2 km/h
1957 06-09-2020 19:00:00 19.8 C 8.71 g/m*3 19.8 C 0 km/h
1958 06-09-2020 19:05:00 19.8 C 8.37 g/m*3 19.8 C 4.8 km/h
1959 06-09-2020 19:10:00 19.6 C 8.61 g/m*3 19.6 C 6.4 km/h
1960 06-09-2020 19:15:00 19.3 C 8.46 g/m*3 19.3 C 3.2 km/h
1961 06-09-2020 19:20:00 19.2 C 8.74 g/m*3 19.2 C 4.8 km/h
1962 06-09-2020 19:25:00 18.9 C 8.91 g/m*3 18.9 C 4.8 km/h
1963 06-09-2020 19:30:00 18.7 C 8.65 g/m*3 18.7 C 4.8 km/h
1964 06-09-2020 19:35:00 18.4 C 9.28 g/m*3 18.4 C 0 km/h
1965 06-09-2020 19:40:00 18.2 C 9.33 g/m*3 18.2 C 0 km/h
1966 06-09-2020 19:45:00 17.8 C 9.11 g/m*3 17.8 C 0 km/h
1967 06-09-2020 19:50:00 17.3 C 8.99 g/m*3 17.3 C 0 km/h
1968 06-09-2020 19:55:00 16.8 C 9.01 g/m*3 16.8 C 0 km/h
1969 06-09-2020 20:00:00 16.4 C 8.93 g/m*3 16.4 C 0 km/h
1970 06-09-2020 20:05:00 15.9 C 8.8 g/m*3 15.9 C 0 km/h
1971 06-09-2020 20:10:00 15.6 C 8.91 g/m*3 15.6 C 0 km/h
1972 06-09-2020 20:15:00 15.2 C 8.7 g/m*3 15.2 C 0 km/h
1973 06-09-2020 20:20:00 14.9 C 8.54 g/m*3 14.9 C 0 km/h
1974 06-09-2020 20:25:00 14.7 C 8.56 g/m*3 14.7 C 0 km/h
1975 06-09-2020 20:30:00 14.4 C 8.41 g/m*3 14.4 C 0 km/h
Sensor: Nr:Datum:Temp:Abs-Feuchte:Windchill:Wind:
Aussen-T/F 1976 06-09-2020 20:35:00 14.2 C 8.43 g/m*3 14.2 C 0 km/h
1977 06-09-2020 20:40:00 14.1 C 8.37 g/m*3 14.1 C 0 km/h
1978 06-09-2020 20:45:00 13.9 C 8.39 g/m*3 13.9 C 0 km/h
1979 06-09-2020 20:50:00 13.7 C 8.41 g/m*3 13.7 C 0 km/h
1980 06-09-2020 20:55:00 13.6 C 8.47 g/m*3 13.6 C 0 km/h
1981 06-09-2020 21:00:00 13.4 C 8.49 g/m*3 13.4 C 0 km/h
1982 06-09-2020 21:05:00 13.3 C 8.55 g/m*3 13.3 C 0 km/h
1983 06-09-2020 21:10:00 13.2 C 8.5 g/m*3 13.2 C 0 km/h
1984 06-09-2020 21:15:00 13.1 C 8.56 g/m*3 13.1 C 0 km/h
1985 06-09-2020 21:20:00 13 C 8.62 g/m*3 13 C 0 km/h
1986 06-09-2020 21:25:00 12.8 C 8.51 g/m*3 12.8 C 0 km/h
1987 06-09-2020 21:30:00 12.7 C 8.57 g/m*3 12.7 C 0 km/h
1988 06-09-2020 21:35:00 12.6 C 8.63 g/m*3 12.6 C 0 km/h
1989 06-09-2020 21:40:00 12.6 C 8.74 g/m*3 12.6 C 0 km/h
1990 06-09-2020 21:45:00 12.5 C 8.69 g/m*3 12.5 C 0 km/h
1991 06-09-2020 21:50:00 12.4 C 8.74 g/m*3 12.4 C 0 km/h
1992 06-09-2020 21:55:00 12.4 C 8.85 g/m*3 12.4 C 0 km/h
1993 06-09-2020 22:00:00 12.4 C 8.85 g/m*3 12.4 C 0 km/h
1994 06-09-2020 22:05:00 12.4 C 8.85 g/m*3 12.4 C 0 km/h
1995 06-09-2020 22:10:00 12.3 C 8.9 g/m*3 12.3 C 0 km/h
1996 06-09-2020 22:15:00 12.3 C 8.9 g/m*3 12.3 C 0 km/h
1997 06-09-2020 22:20:00 12.3 C 8.8 g/m*3 12.3 C 0 km/h
1998 06-09-2020 22:25:00 12.3 C 8.9 g/m*3 12.3 C 0 km/h
1999 06-09-2020 22:30:00 12.3 C 8.9 g/m*3 12.3 C 0 km/h
2000 06-09-2020 22:35:00 12.4 C 8.96 g/m*3 12.4 C 0 km/h
Sensor: Nr:Datum:Temp:Abs-Feuchte:Windchill:Wind:
Aussen-T/F 2001 06-09-2020 22:40:00 12.3 C 8.8 g/m*3 12.3 C 0 km/h
2002 06-09-2020 22:45:00 12.4 C 8.85 g/m*3 12.4 C 0 km/h
2003 06-09-2020 22:50:00 12.4 C 8.96 g/m*3 12.4 C 0 km/h
2004 06-09-2020 22:55:00 12.4 C 8.96 g/m*3 12.4 C 0 km/h
2005 06-09-2020 23:00:00 12.5 C 9.02 g/m*3 12.5 C 0 km/h
2006 06-09-2020 23:05:00 12.5 C 9.02 g/m*3 12.5 C 0 km/h
2007 06-09-2020 23:10:00 12.5 C 9.02 g/m*3 12.5 C 0 km/h
2008 06-09-2020 23:15:00 12.6 C 9.07 g/m*3 12.6 C 0 km/h
2009 06-09-2020 23:20:00 12.6 C 9.07 g/m*3 12.6 C 0 km/h
2010 06-09-2020 23:25:00 12.6 C 9.07 g/m*3 12.6 C 0 km/h
2011 06-09-2020 23:30:00 12.5 C 8.91 g/m*3 12.5 C 0 km/h
2012 06-09-2020 23:35:00 12.6 C 8.96 g/m*3 12.6 C 3.2 km/h
2013 06-09-2020 23:40:00 12.6 C 8.96 g/m*3 12.6 C 0 km/h
2014 06-09-2020 23:45:00 12.6 C 8.96 g/m*3 12.6 C 0 km/h
2015 06-09-2020 23:50:00 12.6 C 9.07 g/m*3 12.6 C 0 km/h
2016 06-09-2020 23:55:00 12.7 C 9.13 g/m*3 12.7 C 0 km/h
2017 07-09-2020 00:00:00 12.6 C 9.07 g/m*3 12.6 C 0 km/h
2018 07-09-2020 00:05:00 12.6 C 9.07 g/m*3 12.6 C 0 km/h
2019 07-09-2020 00:10:00 12.6 C 8.96 g/m*3 12.6 C 1.6 km/h
2020 07-09-2020 00:15:00 12.6 C 8.96 g/m*3 12.6 C 0 km/h
2021 07-09-2020 00:20:00 12.6 C 8.96 g/m*3 12.6 C 0 km/h
2022 07-09-2020 00:25:00 12.6 C 8.96 g/m*3 12.6 C 0 km/h
2023 07-09-2020 00:30:00 12.6 C 9.07 g/m*3 12.6 C 0 km/h
2024 07-09-2020 00:35:00 12.6 C 9.07 g/m*3 12.6 C 0 km/h
2025 07-09-2020 00:40:00 12.6 C 9.07 g/m*3 12.6 C 0 km/h
Sensor: Nr:Datum:Temp:Abs-Feuchte:Windchill:Wind:
Aussen-T/F 2026 07-09-2020 00:45:00 12.6 C 9.07 g/m*3 12.6 C 0 km/h
2027 07-09-2020 00:50:00 12.6 C 9.07 g/m*3 12.6 C 0 km/h
2028 07-09-2020 00:55:00 12.5 C 9.02 g/m*3 12.5 C 0 km/h
2029 07-09-2020 01:00:00 12.5 C 9.02 g/m*3 12.5 C 0 km/h
2030 07-09-2020 01:05:00 12.5 C 9.02 g/m*3 12.5 C 0 km/h
2031 07-09-2020 01:10:00 12.4 C 9.07 g/m*3 12.4 C 0 km/h
2032 07-09-2020 01:15:00 12.4 C 9.07 g/m*3 12.4 C 0 km/h
2033 07-09-2020 01:20:00 12.4 C 9.07 g/m*3 12.4 C 0 km/h
2034 07-09-2020 01:25:00 12.3 C 9.01 g/m*3 12.3 C 0 km/h
2035 07-09-2020 01:30:00 12.3 C 9.01 g/m*3 12.3 C 0 km/h
2036 07-09-2020 01:35:00 12.2 C 8.96 g/m*3 12.2 C 0 km/h
2037 07-09-2020 01:40:00 12 C 8.85 g/m*3 12 C 0 km/h
2038 07-09-2020 01:45:00 11.9 C 8.79 g/m*3 11.9 C 0 km/h
2039 07-09-2020 01:50:00 11.8 C 8.84 g/m*3 11.8 C 0 km/h
2040 07-09-2020 01:55:00 11.6 C 8.73 g/m*3 11.6 C 0 km/h
2041 07-09-2020 02:00:00 11.5 C 8.68 g/m*3 11.5 C 0 km/h
2042 07-09-2020 02:05:00 11.3 C 8.57 g/m*3 11.3 C 0 km/h
2043 07-09-2020 02:10:00 11.2 C 8.51 g/m*3 11.2 C 0 km/h
2044 07-09-2020 02:15:00 11.1 C 8.56 g/m*3 11.1 C 0 km/h
2045 07-09-2020 02:20:00 10.9 C 8.45 g/m*3 10.9 C 1.6 km/h
2046 07-09-2020 02:25:00 10.8 C 8.5 g/m*3 10.8 C 0 km/h
2047 07-09-2020 02:30:00 10.6 C 8.39 g/m*3 10.6 C 0 km/h
2048 07-09-2020 02:35:00 10.5 C 8.44 g/m*3 10.5 C 0 km/h
2049 07-09-2020 02:40:00 10.4 C 8.38 g/m*3 10.4 C 0 km/h
2050 07-09-2020 02:45:00 10.3 C 8.33 g/m*3 10.3 C 0 km/h
Sensor: Nr:Datum:Temp:Abs-Feuchte:Windchill:Wind:
Aussen-T/F 2051 07-09-2020 02:50:00 10.1 C 8.23 g/m*3 10.1 C 0 km/h
2052 07-09-2020 02:55:00 10 C 8.27 g/m*3 10 C 0 km/h
2053 07-09-2020 03:00:00 9.9 C 8.22 g/m*3 9.9 C 0 km/h
2054 07-09-2020 03:05:00 9.8 C 8.16 g/m*3 9.8 C 0 km/h
2055 07-09-2020 03:10:00 9.7 C 8.11 g/m*3 9.7 C 0 km/h
2056 07-09-2020 03:15:00 9.6 C 8.15 g/m*3 9.6 C 1.6 km/h
2057 07-09-2020 03:20:00 9.6 C 8.15 g/m*3 9.6 C 0 km/h
2058 07-09-2020 03:25:00 9.4 C 8.05 g/m*3 9.4 C 0 km/h
2059 07-09-2020 03:30:00 9.4 C 8.05 g/m*3 9.4 C 0 km/h
2060 07-09-2020 03:35:00 9.3 C 8.09 g/m*3 9.3 C 0 km/h
2061 07-09-2020 03:40:00 9.3 C 8.09 g/m*3 9.3 C 0 km/h
2062 07-09-2020 03:45:00 9.3 C 8.09 g/m*3 9.3 C 0 km/h
2063 07-09-2020 03:50:00 9.2 C 8.04 g/m*3 9.2 C 0 km/h
2064 07-09-2020 03:55:00 9.2 C 8.04 g/m*3 9.2 C 0 km/h
2065 07-09-2020 04:00:00 9.1 C 7.99 g/m*3 9.1 C 0 km/h
2066 07-09-2020 04:05:00 9 C 8.02 g/m*3 9 C 0 km/h
2067 07-09-2020 04:10:00 9 C 8.02 g/m*3 9 C 0 km/h
2068 07-09-2020 04:15:00 8.9 C 7.97 g/m*3 8.9 C 0 km/h
2069 07-09-2020 04:20:00 8.9 C 7.97 g/m*3 8.9 C 0 km/h
2070 07-09-2020 04:25:00 8.8 C 7.92 g/m*3 8.8 C 0 km/h
2071 07-09-2020 04:30:00 8.8 C 7.92 g/m*3 8.8 C 0 km/h
2072 07-09-2020 04:35:00 8.8 C 7.92 g/m*3 8.8 C 0 km/h
2073 07-09-2020 04:40:00 8.7 C 7.87 g/m*3 8.7 C 0 km/h
2074 07-09-2020 04:45:00 8.6 C 7.82 g/m*3 8.6 C 0 km/h
2075 07-09-2020 04:50:00 8.6 C 7.91 g/m*3 8.6 C 0 km/h
Sensor: Nr:Datum:Temp:Abs-Feuchte:Windchill:Wind:
Aussen-T/F 2076 07-09-2020 04:55:00 8.5 C 7.85 g/m*3 8.5 C 1.6 km/h
2077 07-09-2020 05:00:00 8.5 C 7.85 g/m*3 8.5 C 0 km/h
2078 07-09-2020 05:05:00 8.4 C 7.8 g/m*3 8.4 C 1.6 km/h
2079 07-09-2020 05:10:00 8.4 C 7.8 g/m*3 8.4 C 3.2 km/h
2080 07-09-2020 05:15:00 8.4 C 7.89 g/m*3 8.4 C 0 km/h
2081 07-09-2020 05:20:00 8.3 C 7.75 g/m*3 8.3 C 0 km/h
2082 07-09-2020 05:25:00 8.3 C 7.75 g/m*3 8.3 C 0 km/h
2083 07-09-2020 05:30:00 8.3 C 7.75 g/m*3 8.3 C 0 km/h
2084 07-09-2020 05:35:00 8.2 C 7.7 g/m*3 8.2 C 0 km/h
2085 07-09-2020 05:40:00 8.1 C 7.74 g/m*3 8.1 C 0 km/h
2086 07-09-2020 05:45:00 8.1 C 7.74 g/m*3 8.1 C 0 km/h
2087 07-09-2020 05:50:00 8 C 7.69 g/m*3 8 C 0 km/h
2088 07-09-2020 05:55:00 7.9 C 7.64 g/m*3 7.9 C 0 km/h
2089 07-09-2020 06:00:00 7.9 C 7.64 g/m*3 7.9 C 0 km/h
2090 07-09-2020 06:05:00 7.9 C 7.64 g/m*3 7.9 C 0 km/h
2091 07-09-2020 06:10:00 7.8 C 7.59 g/m*3 7.8 C 0 km/h
2092 07-09-2020 06:15:00 7.8 C 7.59 g/m*3 7.8 C 1.6 km/h
2093 07-09-2020 06:20:00 7.9 C 7.72 g/m*3 7.9 C 3.2 km/h
2094 07-09-2020 06:25:00 7.9 C 7.72 g/m*3 7.9 C 1.6 km/h
2095 07-09-2020 06:30:00 7.9 C 7.72 g/m*3 7.9 C 0 km/h
2096 07-09-2020 06:35:00 7.9 C 7.64 g/m*3 7.9 C 0 km/h
2097 07-09-2020 06:40:00 7.8 C 7.59 g/m*3 7.8 C 0 km/h
2098 07-09-2020 06:45:00 7.7 C 7.54 g/m*3 7.7 C 0 km/h
2099 07-09-2020 06:50:00 7.7 C 7.54 g/m*3 7.7 C 0 km/h
2100 07-09-2020 06:55:00 7.6 C 7.49 g/m*3 7.6 C 0 km/h
Sensor: Nr:Datum:Temp:Abs-Feuchte:Windchill:Wind:
Aussen-T/F 2101 07-09-2020 07:00:00 7.6 C 7.57 g/m*3 7.6 C 0 km/h
2102 07-09-2020 07:05:00 7.7 C 7.62 g/m*3 7.7 C 0 km/h
2103 07-09-2020 07:10:00 7.6 C 7.57 g/m*3 7.6 C 0 km/h
2104 07-09-2020 07:15:00 7.6 C 7.57 g/m*3 7.6 C 0 km/h
2105 07-09-2020 07:20:00 7.5 C 7.52 g/m*3 7.5 C 0 km/h
2106 07-09-2020 07:25:00 7.5 C 7.52 g/m*3 7.5 C 0 km/h
2107 07-09-2020 07:30:00 7.5 C 7.52 g/m*3 7.5 C 0 km/h
2108 07-09-2020 07:35:00 7.6 C 7.57 g/m*3 7.6 C 0 km/h
2109 07-09-2020 07:40:00 7.6 C 7.57 g/m*3 7.6 C 0 km/h
2110 07-09-2020 07:45:00 7.6 C 7.57 g/m*3 7.6 C 0 km/h
2111 07-09-2020 07:50:00 7.7 C 7.62 g/m*3 7.7 C 0 km/h
2112 07-09-2020 07:55:00 7.7 C 7.62 g/m*3 7.7 C 0 km/h
2113 07-09-2020 08:00:00 7.7 C 7.7 g/m*3 7.7 C 0 km/h
2114 07-09-2020 08:05:00 7.8 C 7.75 g/m*3 7.8 C 0 km/h
2115 07-09-2020 08:10:00 7.8 C 7.75 g/m*3 7.8 C 0 km/h
2116 07-09-2020 08:15:00 7.8 C 7.75 g/m*3 7.8 C 0 km/h
2117 07-09-2020 08:20:00 7.9 C 7.8 g/m*3 7.9 C 0 km/h
2118 07-09-2020 08:25:00 7.9 C 7.8 g/m*3 7.9 C 0 km/h
2119 07-09-2020 08:30:00 8 C 7.85 g/m*3 8 C 0 km/h
2120 07-09-2020 08:35:00 8.1 C 7.9 g/m*3 8.1 C 1.6 km/h
2121 07-09-2020 08:40:00 8.1 C 7.9 g/m*3 8.1 C 1.6 km/h
2122 07-09-2020 08:45:00 8.2 C 7.96 g/m*3 8.2 C 0 km/h
2123 07-09-2020 08:50:00 8.2 C 7.96 g/m*3 8.2 C 0 km/h
2124 07-09-2020 08:55:00 8.3 C 8.01 g/m*3 8.3 C 0 km/h
2125 07-09-2020 09:00:00 8.4 C 8.06 g/m*3 8.4 C 0 km/h
Sensor: Nr:Datum:Temp:Abs-Feuchte:Windchill:Wind:
Aussen-T/F 2126 07-09-2020 09:05:00 8.4 C 8.06 g/m*3 8.4 C 0 km/h
2127 07-09-2020 09:10:00 8.6 C 8.16 g/m*3 8.6 C 0 km/h
2128 07-09-2020 09:15:00 8.7 C 8.22 g/m*3 8.7 C 1.6 km/h
2129 07-09-2020 09:20:00 8.8 C 8.36 g/m*3 8.8 C 0 km/h
2130 07-09-2020 09:25:00 8.9 C 8.32 g/m*3 8.9 C 0 km/h
2131 07-09-2020 09:30:00 9.1 C 8.52 g/m*3 9.1 C 0 km/h
2132 07-09-2020 09:35:00 9.2 C 8.57 g/m*3 9.2 C 0 km/h
2133 07-09-2020 09:40:00 9.2 C 8.57 g/m*3 9.2 C 1.6 km/h
2134 07-09-2020 09:45:00 9.3 C 8.54 g/m*3 9.3 C 0 km/h
2135 07-09-2020 09:50:00 9.4 C 8.59 g/m*3 9.4 C 0 km/h
2136 07-09-2020 09:55:00 9.5 C 8.74 g/m*3 9.5 C 1.6 km/h
2137 07-09-2020 10:00:00 9.7 C 8.85 g/m*3 9.7 C 3.2 km/h
2138 07-09-2020 10:05:00 9.8 C 8.91 g/m*3 9.8 C 3.2 km/h
2139 07-09-2020 10:10:00 9.9 C 8.96 g/m*3 9.9 C 3.2 km/h
2140 07-09-2020 10:15:00 10.1 C 9.08 g/m*3 10.1 C 0 km/h
2141 07-09-2020 10:20:00 10.2 C 9.14 g/m*3 10.2 C 0 km/h
2142 07-09-2020 10:25:00 10.4 C 9.25 g/m*3 10.4 C 0 km/h
2143 07-09-2020 10:30:00 10.6 C 9.37 g/m*3 10.6 C 0 km/h
2144 07-09-2020 10:35:00 10.8 C 9.39 g/m*3 10.8 C 0 km/h
2145 07-09-2020 10:40:00 11 C 9.51 g/m*3 11 C 0 km/h
2146 07-09-2020 10:45:00 11.2 C 9.63 g/m*3 11.2 C 0 km/h
2147 07-09-2020 10:50:00 11.4 C 9.65 g/m*3 11.4 C 0 km/h
2148 07-09-2020 10:55:00 11.7 C 9.83 g/m*3 11.7 C 1.6 km/h
2149 07-09-2020 11:00:00 12.1 C 9.97 g/m*3 12.1 C 0 km/h
2150 07-09-2020 11:05:00 12.3 C 9.99 g/m*3 12.3 C 3.2 km/h
Sensor: Nr:Datum:Temp:Abs-Feuchte:Windchill:Wind:
Aussen-T/F 2151 07-09-2020 11:10:00 12.7 C 10.13 g/m*3 12.7 C 0 km/h
2152 07-09-2020 11:15:00 12.9 C 10.14 g/m*3 12.9 C 1.6 km/h
2153 07-09-2020 11:20:00 13.3 C 10.28 g/m*3 13.3 C 3.2 km/h
2154 07-09-2020 11:25:00 13.6 C 10.36 g/m*3 13.6 C 0 km/h
2155 07-09-2020 11:30:00 13.8 C 10.13 g/m*3 13.8 C 1.6 km/h
2156 07-09-2020 11:35:00 14.2 C 10.26 g/m*3 14.2 C 6.4 km/h
2157 07-09-2020 11:40:00 14.4 C 10.26 g/m*3 14.4 C 0 km/h
2158 07-09-2020 11:45:00 14.7 C 10.45 g/m*3 14.7 C 0 km/h
2159 07-09-2020 11:50:00 14.9 C 10.32 g/m*3 14.9 C 1.6 km/h
2160 07-09-2020 11:55:00 15.1 C 10.32 g/m*3 15.1 C 3.2 km/h
2161 07-09-2020 12:00:00 15.3 C 10.32 g/m*3 15.3 C 1.6 km/h
2162 07-09-2020 12:05:00 15.5 C 10.18 g/m*3 15.5 C 0 km/h
2163 07-09-2020 12:10:00 15.8 C 10.36 g/m*3 15.8 C 0 km/h
2164 07-09-2020 12:15:00 15.9 C 10.02 g/m*3 15.9 C 4.8 km/h
2165 07-09-2020 12:20:00 16.3 C 10.13 g/m*3 16.3 C 4.8 km/h
2166 07-09-2020 12:25:00 16.5 C 10.11 g/m*3 16.5 C 0 km/h
2167 07-09-2020 12:30:00 16.7 C 10.09 g/m*3 16.7 C 1.6 km/h
2168 07-09-2020 12:35:00 16.8 C 9.87 g/m*3 16.8 C 4.8 km/h
2169 07-09-2020 12:40:00 17 C 9.69 g/m*3 17 C 3.2 km/h
2170 07-09-2020 12:45:00 17.2 C 9.81 g/m*3 17.2 C 4.8 km/h
2171 07-09-2020 12:50:00 17.3 C 9.72 g/m*3 17.3 C 6.4 km/h
2172 07-09-2020 12:55:00 17.4 C 9.48 g/m*3 17.4 C 8.1 km/h
2173 07-09-2020 13:00:00 17.6 C 9.6 g/m*3 17.6 C 6.4 km/h
2174 07-09-2020 13:05:00 17.8 C 9.87 g/m*3 17.8 C 3.2 km/h
2175 07-09-2020 13:10:00 17.9 C 9.62 g/m*3 17.9 C 4.8 km/h
Sensor: Nr:Datum:Temp:Abs-Feuchte:Windchill:Wind:
Aussen-T/F 2176 07-09-2020 13:15:00 18 C 9.52 g/m*3 18 C 1.6 km/h
2177 07-09-2020 13:20:00 18.1 C 9.58 g/m*3 18.1 C 9.7 km/h
2178 07-09-2020 13:25:00 18.2 C 9.64 g/m*3 18.2 C 6.4 km/h
2179 07-09-2020 13:30:00 18.2 C 9.79 g/m*3 18.2 C 0 km/h
2180 07-09-2020 13:35:00 18.3 C 9.22 g/m*3 18.3 C 3.2 km/h
2181 07-09-2020 13:40:00 18.3 C 9.38 g/m*3 18.3 C 3.2 km/h
2182 07-09-2020 13:45:00 18.3 C 9.07 g/m*3 18.3 C 3.2 km/h
2183 07-09-2020 13:50:00 18.4 C 8.97 g/m*3 18.4 C 3.2 km/h
2184 07-09-2020 13:55:00 18.5 C 9.02 g/m*3 18.5 C 1.6 km/h
2185 07-09-2020 14:00:00 18.7 C 8.97 g/m*3 18.7 C 4.8 km/h
2186 07-09-2020 14:05:00 18.8 C 8.54 g/m*3 18.8 C 8.1 km/h
2187 07-09-2020 14:10:00 19 C 8.96 g/m*3 19 C 8.1 km/h
2188 07-09-2020 14:15:00 19.2 C 8.9 g/m*3 19.2 C 9.7 km/h
2189 07-09-2020 14:20:00 19.3 C 8.96 g/m*3 19.3 C 8.1 km/h
2190 07-09-2020 14:25:00 19.3 C 8.79 g/m*3 19.3 C 0 km/h
2191 07-09-2020 14:30:00 19.4 C 8.68 g/m*3 19.4 C 6.4 km/h
2192 07-09-2020 14:35:00 19.5 C 9.06 g/m*3 19.5 C 6.4 km/h
2193 07-09-2020 14:40:00 19.7 C 8.83 g/m*3 19.7 C 9.7 km/h
2194 07-09-2020 14:45:00 19.9 C 8.93 g/m*3 19.9 C 6.4 km/h
2195 07-09-2020 14:50:00 20.1 C 8.87 g/m*3 20.1 C 1.6 km/h
2196 07-09-2020 14:55:00 20.3 C 8.62 g/m*3 20.3 C 11.3 km/h
2197 07-09-2020 15:00:00 20.3 C 8.79 g/m*3 20.3 C 4.8 km/h
2198 07-09-2020 15:05:00 20.4 C 8.49 g/m*3 20.4 C 4.8 km/h
2199 07-09-2020 15:10:00 20.5 C 9.07 g/m*3 20.5 C 6.4 km/h
2200 07-09-2020 15:15:00 20.5 C 8.72 g/m*3 20.5 C 6.4 km/h
Sensor: Nr:Datum:Temp:Abs-Feuchte:Windchill:Wind:
Aussen-T/F 2201 07-09-2020 15:20:00 20.6 C 8.95 g/m*3 20.6 C 1.6 km/h
2202 07-09-2020 15:25:00 20.6 C 8.95 g/m*3 20.6 C 4.8 km/h
2203 07-09-2020 15:30:00 20.7 C 8.82 g/m*3 20.7 C 9.7 km/h
2204 07-09-2020 15:35:00 20.8 C 8.87 g/m*3 20.8 C 3.2 km/h
2205 07-09-2020 15:40:00 20.8 C 8.87 g/m*3 20.8 C 6.4 km/h
2206 07-09-2020 15:45:00 20.9 C 8.92 g/m*3 20.9 C 6.4 km/h
2207 07-09-2020 15:50:00 21.1 C 8.84 g/m*3 21.1 C 6.4 km/h
2208 07-09-2020 15:55:00 21.2 C 8.71 g/m*3 21.2 C 4.8 km/h
2209 07-09-2020 16:00:00 21.2 C 8.71 g/m*3 21.2 C 4.8 km/h
2210 07-09-2020 16:05:00 21.1 C 8.66 g/m*3 21.1 C 0 km/h
2211 07-09-2020 16:10:00 21.1 C 8.84 g/m*3 21.1 C 8.1 km/h
2212 07-09-2020 16:15:00 21.2 C 9.08 g/m*3 21.2 C 6.4 km/h
2213 07-09-2020 16:20:00 21.4 C 9 g/m*3 21.4 C 6.4 km/h
2214 07-09-2020 16:25:00 21.7 C 9.16 g/m*3 21.7 C 4.8 km/h
2215 07-09-2020 16:30:00 21.8 C 8.63 g/m*3 21.8 C 6.4 km/h
2216 07-09-2020 16:35:00 22 C 8.93 g/m*3 22 C 6.4 km/h
2217 07-09-2020 16:40:00 22.2 C 9.03 g/m*3 22.2 C 9.7 km/h
2218 07-09-2020 16:45:00 22.4 C 8.74 g/m*3 22.4 C 6.4 km/h
2219 07-09-2020 16:50:00 22.3 C 8.69 g/m*3 22.3 C 1.6 km/h
2220 07-09-2020 16:55:00 21.9 C 8.88 g/m*3 21.9 C 3.2 km/h
2221 07-09-2020 17:00:00 21.7 C 8.97 g/m*3 21.7 C 6.4 km/h
2222 07-09-2020 17:05:00 21.6 C 9.1 g/m*3 21.6 C 4.8 km/h
2223 07-09-2020 17:10:00 22.1 C 8.98 g/m*3 22.1 C 0 km/h
2224 07-09-2020 17:15:00 22.6 C 8.84 g/m*3 22.6 C 0 km/h
2225 07-09-2020 17:20:00 22.7 C 8.89 g/m*3 22.7 C 6.4 km/h
Sensor: Nr:Datum:Temp:Abs-Feuchte:Windchill:Wind:
Aussen-T/F 2226 07-09-2020 17:25:00 22.9 C 8.99 g/m*3 22.9 C 3.2 km/h
2227 07-09-2020 17:30:00 23.3 C 9.41 g/m*3 23.3 C 1.6 km/h
2228 07-09-2020 17:35:00 23.5 C 9.09 g/m*3 23.5 C 8.1 km/h
2229 07-09-2020 17:40:00 23.6 C 9.15 g/m*3 23.6 C 1.6 km/h
2230 07-09-2020 17:45:00 23.6 C 8.72 g/m*3 23.6 C 6.4 km/h
2231 07-09-2020 17:50:00 23.3 C 9.2 g/m*3 23.3 C 6.4 km/h
2232 07-09-2020 17:55:00 23.3 C 8.78 g/m*3 23.3 C 0 km/h
2233 07-09-2020 18:00:00 23.5 C 8.88 g/m*3 23.5 C 1.6 km/h
2234 07-09-2020 18:05:00 23.4 C 10.09 g/m*3 23.4 C 0 km/h
2235 07-09-2020 18:10:00 23.1 C 10.34 g/m*3 23.1 C 0 km/h
2236 07-09-2020 18:15:00 22.6 C 10.04 g/m*3 22.6 C 0 km/h
2237 07-09-2020 18:20:00 22.1 C 10.15 g/m*3 22.1 C 0 km/h
2238 07-09-2020 18:25:00 21.6 C 10.43 g/m*3 21.6 C 0 km/h
2239 07-09-2020 18:30:00 21.3 C 10.44 g/m*3 21.3 C 0 km/h
2240 07-09-2020 18:35:00 21.6 C 10.43 g/m*3 21.6 C 0 km/h
2241 07-09-2020 18:40:00 22 C 10.09 g/m*3 22 C 0 km/h
2242 07-09-2020 18:45:00 22.4 C 9.73 g/m*3 22.4 C 0 km/h
2243 07-09-2020 18:50:00 22.8 C 10.16 g/m*3 22.8 C 0 km/h
2244 07-09-2020 18:55:00 22.7 C 9.09 g/m*3 22.7 C 6.4 km/h
2245 07-09-2020 19:00:00 22.6 C 9.84 g/m*3 22.6 C 4.8 km/h
2246 07-09-2020 19:05:00 22.6 C 10.65 g/m*3 22.6 C 0 km/h
2247 07-09-2020 19:10:00 22.4 C 10.53 g/m*3 22.4 C 0 km/h
2248 07-09-2020 19:15:00 22.2 C 10.41 g/m*3 22.2 C 0 km/h
2249 07-09-2020 19:20:00 21.8 C 10.36 g/m*3 21.8 C 1.6 km/h
2250 07-09-2020 19:25:00 21.4 C 10.31 g/m*3 21.4 C 3.2 km/h
Sensor: Nr:Datum:Temp:Abs-Feuchte:Windchill:Wind:
Aussen-T/F 2251 07-09-2020 19:30:00 20.8 C 10.14 g/m*3 20.8 C 6.4 km/h
2252 07-09-2020 19:35:00 20.3 C 9.85 g/m*3 20.3 C 4.8 km/h
2253 07-09-2020 19:40:00 19.8 C 9.91 g/m*3 19.8 C 4.8 km/h
2254 07-09-2020 19:45:00 19.2 C 9.56 g/m*3 19.2 C 4.8 km/h
2255 07-09-2020 19:50:00 18.8 C 9.5 g/m*3 18.8 C 0 km/h
2256 07-09-2020 19:55:00 18.3 C 9.38 g/m*3 18.3 C 0 km/h
2257 07-09-2020 20:00:00 17.9 C 9.16 g/m*3 17.9 C 4.8 km/h
2258 07-09-2020 20:05:00 17.6 C 9.3 g/m*3 17.6 C 1.6 km/h
2259 07-09-2020 20:10:00 17.3 C 9.13 g/m*3 17.3 C 4.8 km/h
2260 07-09-2020 20:15:00 17.1 C 9.17 g/m*3 17.1 C 4.8 km/h
2261 07-09-2020 20:20:00 16.8 C 9.15 g/m*3 16.8 C 6.4 km/h
2262 07-09-2020 20:25:00 16.7 C 9.1 g/m*3 16.7 C 6.4 km/h
2263 07-09-2020 20:30:00 16.4 C 9.07 g/m*3 16.4 C 4.8 km/h
2264 07-09-2020 20:35:00 16.3 C 9.16 g/m*3 16.3 C 4.8 km/h
2265 07-09-2020 20:40:00 16.1 C 9.18 g/m*3 16.1 C 0 km/h
2266 07-09-2020 20:45:00 15.9 C 9.34 g/m*3 15.9 C 0 km/h
2267 07-09-2020 20:50:00 15.6 C 9.18 g/m*3 15.6 C 0 km/h
2268 07-09-2020 20:55:00 15.3 C 9.14 g/m*3 15.3 C 6.4 km/h
2269 07-09-2020 21:00:00 15.1 C 9.16 g/m*3 15.1 C 6.4 km/h
2270 07-09-2020 21:05:00 14.9 C 9.18 g/m*3 14.9 C 0 km/h
2271 07-09-2020 21:10:00 14.8 C 9.25 g/m*3 14.8 C 0 km/h
2272 07-09-2020 21:15:00 14.7 C 9.32 g/m*3 14.7 C 0 km/h
2273 07-09-2020 21:20:00 14.5 C 9.33 g/m*3 14.5 C 0 km/h
2274 07-09-2020 21:25:00 14.3 C 9.21 g/m*3 14.3 C 0 km/h
2275 07-09-2020 21:30:00 14.1 C 9.1 g/m*3 14.1 C 0 km/h
Sensor: Nr:Datum:Temp:Abs-Feuchte:Windchill:Wind:
Aussen-T/F 2276 07-09-2020 21:35:00 13.9 C 9.11 g/m*3 13.9 C 0 km/h
2277 07-09-2020 21:40:00 13.8 C 9.17 g/m*3 13.8 C 0 km/h
2278 07-09-2020 21:45:00 13.6 C 9.06 g/m*3 13.6 C 0 km/h
2279 07-09-2020 21:50:00 13.5 C 9.12 g/m*3 13.5 C 0 km/h
2280 07-09-2020 21:55:00 13.4 C 9.07 g/m*3 13.4 C 0 km/h
2281 07-09-2020 22:00:00 13.3 C 9.01 g/m*3 13.3 C 0 km/h
2282 07-09-2020 22:05:00 13.2 C 9.07 g/m*3 13.2 C 0 km/h
2283 07-09-2020 22:10:00 13.1 C 9.01 g/m*3 13.1 C 0 km/h
2284 07-09-2020 22:15:00 13 C 9.07 g/m*3 13 C 0 km/h
2285 07-09-2020 22:20:00 12.8 C 8.96 g/m*3 12.8 C 0 km/h
2286 07-09-2020 22:25:00 12.7 C 8.91 g/m*3 12.7 C 0 km/h
2287 07-09-2020 22:30:00 12.6 C 8.96 g/m*3 12.6 C 0 km/h
2288 07-09-2020 22:35:00 12.5 C 8.91 g/m*3 12.5 C 0 km/h
2289 07-09-2020 22:40:00 12.4 C 8.85 g/m*3 12.4 C 0 km/h
2290 07-09-2020 22:45:00 12.3 C 8.9 g/m*3 12.3 C 0 km/h
2291 07-09-2020 22:50:00 12.3 C 8.9 g/m*3 12.3 C 0 km/h
2292 07-09-2020 22:55:00 12.2 C 8.85 g/m*3 12.2 C 0 km/h
2293 07-09-2020 23:00:00 12.1 C 8.9 g/m*3 12.1 C 0 km/h
2294 07-09-2020 23:05:00 12 C 8.74 g/m*3 12 C 0 km/h
2295 07-09-2020 23:10:00 11.9 C 8.79 g/m*3 11.9 C 0 km/h
2296 07-09-2020 23:15:00 11.8 C 8.74 g/m*3 11.8 C 0 km/h
2297 07-09-2020 23:20:00 11.8 C 8.74 g/m*3 11.8 C 0 km/h
2298 07-09-2020 23:25:00 11.7 C 8.68 g/m*3 11.7 C 0 km/h
2299 07-09-2020 23:30:00 11.7 C 8.68 g/m*3 11.7 C 0 km/h
2300 07-09-2020 23:35:00 11.6 C 8.63 g/m*3 11.6 C 0 km/h
Sensor: Nr:Datum:Temp:Abs-Feuchte:Windchill:Wind:
Aussen-T/F 2301 07-09-2020 23:40:00 11.5 C 8.57 g/m*3 11.5 C 0 km/h
2302 07-09-2020 23:45:00 11.4 C 8.62 g/m*3 11.4 C 0 km/h
2303 07-09-2020 23:50:00 11.3 C 8.57 g/m*3 11.3 C 0 km/h
2304 07-09-2020 23:55:00 11.3 C 8.57 g/m*3 11.3 C 0 km/h
2305 08-09-2020 00:00:00 11.2 C 8.51 g/m*3 11.2 C 0 km/h
2306 08-09-2020 00:05:00 11.2 C 8.62 g/m*3 11.2 C 0 km/h
2307 08-09-2020 00:10:00 11.1 C 8.56 g/m*3 11.1 C 0 km/h
2308 08-09-2020 00:15:00 11 C 8.51 g/m*3 11 C 0 km/h
2309 08-09-2020 00:20:00 10.9 C 8.45 g/m*3 10.9 C 0 km/h
2310 08-09-2020 00:25:00 10.9 C 8.45 g/m*3 10.9 C 0 km/h
2311 08-09-2020 00:30:00 10.8 C 8.5 g/m*3 10.8 C 0 km/h
2312 08-09-2020 00:35:00 10.8 C 8.5 g/m*3 10.8 C 0 km/h
2313 08-09-2020 00:40:00 10.7 C 8.45 g/m*3 10.7 C 0 km/h
2314 08-09-2020 00:45:00 10.7 C 8.45 g/m*3 10.7 C 0 km/h
2315 08-09-2020 00:50:00 10.6 C 8.49 g/m*3 10.6 C 0 km/h
2316 08-09-2020 00:55:00 10.6 C 8.39 g/m*3 10.6 C 0 km/h
2317 08-09-2020 01:00:00 10.6 C 8.49 g/m*3 10.6 C 0 km/h
2318 08-09-2020 01:05:00 10.5 C 8.44 g/m*3 10.5 C 0 km/h
2319 08-09-2020 01:10:00 10.4 C 8.38 g/m*3 10.4 C 0 km/h
2320 08-09-2020 01:15:00 10.5 C 8.53 g/m*3 10.5 C 0 km/h
2321 08-09-2020 01:20:00 10.6 C 8.49 g/m*3 10.6 C 0 km/h
2322 08-09-2020 01:25:00 10.6 C 8.49 g/m*3 10.6 C 0 km/h
2323 08-09-2020 01:30:00 10.5 C 8.44 g/m*3 10.5 C 0 km/h
2324 08-09-2020 01:35:00 10.4 C 8.38 g/m*3 10.4 C 0 km/h
2325 08-09-2020 01:40:00 10.3 C 8.33 g/m*3 10.3 C 1.6 km/h
Sensor: Nr:Datum:Temp:Abs-Feuchte:Windchill:Wind:
Aussen-T/F 2326 08-09-2020 01:45:00 10.3 C 8.43 g/m*3 10.3 C 0 km/h
2327 08-09-2020 01:50:00 10.2 C 8.37 g/m*3 10.2 C 0 km/h
2328 08-09-2020 01:55:00 10.2 C 8.37 g/m*3 10.2 C 0 km/h
2329 08-09-2020 02:00:00 10.1 C 8.32 g/m*3 10.1 C 0 km/h
2330 08-09-2020 02:05:00 10 C 8.27 g/m*3 10 C 0 km/h
2331 08-09-2020 02:10:00 9.9 C 8.22 g/m*3 9.9 C 0 km/h
2332 08-09-2020 02:15:00 9.9 C 8.31 g/m*3 9.9 C 0 km/h
2333 08-09-2020 02:20:00 9.8 C 8.26 g/m*3 9.8 C 0 km/h
2334 08-09-2020 02:25:00 9.8 C 8.26 g/m*3 9.8 C 0 km/h
2335 08-09-2020 02:30:00 9.7 C 8.2 g/m*3 9.7 C 0 km/h
2336 08-09-2020 02:35:00 9.7 C 8.2 g/m*3 9.7 C 0 km/h
2337 08-09-2020 02:40:00 9.7 C 8.2 g/m*3 9.7 C 0 km/h
2338 08-09-2020 02:45:00 9.6 C 8.15 g/m*3 9.6 C 0 km/h
2339 08-09-2020 02:50:00 9.6 C 8.24 g/m*3 9.6 C 0 km/h
2340 08-09-2020 02:55:00 9.5 C 8.19 g/m*3 9.5 C 0 km/h
2341 08-09-2020 03:00:00 9.5 C 8.19 g/m*3 9.5 C 0 km/h
2342 08-09-2020 03:05:00 9.4 C 8.14 g/m*3 9.4 C 0 km/h
2343 08-09-2020 03:10:00 9.4 C 8.14 g/m*3 9.4 C 0 km/h
2344 08-09-2020 03:15:00 9.4 C 8.14 g/m*3 9.4 C 0 km/h
2345 08-09-2020 03:20:00 9.3 C 8.09 g/m*3 9.3 C 0 km/h
2346 08-09-2020 03:25:00 9.3 C 8.09 g/m*3 9.3 C 0 km/h
2347 08-09-2020 03:30:00 9.2 C 8.04 g/m*3 9.2 C 0 km/h
2348 08-09-2020 03:35:00 9.2 C 8.13 g/m*3 9.2 C 0 km/h
2349 08-09-2020 03:40:00 9.1 C 8.07 g/m*3 9.1 C 0 km/h
2350 08-09-2020 03:45:00 9.1 C 8.07 g/m*3 9.1 C 0 km/h
Sensor: Nr:Datum:Temp:Abs-Feuchte:Windchill:Wind:
Aussen-T/F 2351 08-09-2020 03:50:00 9.1 C 8.07 g/m*3 9.1 C 0 km/h
2352 08-09-2020 03:55:00 9 C 8.02 g/m*3 9 C 0 km/h
2353 08-09-2020 04:00:00 8.9 C 7.97 g/m*3 8.9 C 0 km/h
2354 08-09-2020 04:05:00 8.9 C 7.97 g/m*3 8.9 C 0 km/h
2355 08-09-2020 04:10:00 8.8 C 7.92 g/m*3 8.8 C 0 km/h
2356 08-09-2020 04:15:00 8.8 C 7.92 g/m*3 8.8 C 0 km/h
2357 08-09-2020 04:20:00 8.8 C 7.92 g/m*3 8.8 C 0 km/h
2358 08-09-2020 04:25:00 8.7 C 7.96 g/m*3 8.7 C 0 km/h
2359 08-09-2020 04:30:00 8.7 C 7.96 g/m*3 8.7 C 0 km/h
2360 08-09-2020 04:35:00 8.7 C 7.96 g/m*3 8.7 C 0 km/h
2361 08-09-2020 04:40:00 8.7 C 7.96 g/m*3 8.7 C 0 km/h
2362 08-09-2020 04:45:00 8.6 C 7.91 g/m*3 8.6 C 0 km/h
2363 08-09-2020 04:50:00 8.6 C 7.91 g/m*3 8.6 C 0 km/h
2364 08-09-2020 04:55:00 8.5 C 7.85 g/m*3 8.5 C 0 km/h
2365 08-09-2020 05:00:00 8.4 C 7.8 g/m*3 8.4 C 0 km/h
2366 08-09-2020 05:05:00 8.4 C 7.8 g/m*3 8.4 C 0 km/h
2367 08-09-2020 05:10:00 8.4 C 7.8 g/m*3 8.4 C 0 km/h
2368 08-09-2020 05:15:00 8.5 C 7.94 g/m*3 8.5 C 0 km/h
2369 08-09-2020 05:20:00 8.6 C 7.99 g/m*3 8.6 C 0 km/h
2370 08-09-2020 05:25:00 8.6 C 7.99 g/m*3 8.6 C 0 km/h
2371 08-09-2020 05:30:00 8.5 C 7.94 g/m*3 8.5 C 0 km/h
2372 08-09-2020 05:35:00 8.4 C 7.89 g/m*3 8.4 C 0 km/h
2373 08-09-2020 05:40:00 8.4 C 7.8 g/m*3 8.4 C 0 km/h
2374 08-09-2020 05:45:00 8.3 C 7.84 g/m*3 8.3 C 0 km/h
2375 08-09-2020 05:50:00 8.3 C 7.75 g/m*3 8.3 C 0 km/h
Sensor: Nr:Datum:Temp:Abs-Feuchte:Windchill:Wind:
Aussen-T/F 2376 08-09-2020 05:55:00 8.2 C 7.7 g/m*3 8.2 C 0 km/h
2377 08-09-2020 06:00:00 8.2 C 7.79 g/m*3 8.2 C 0 km/h
2378 08-09-2020 06:05:00 8.2 C 7.79 g/m*3 8.2 C 0 km/h
2379 08-09-2020 06:10:00 8.1 C 7.74 g/m*3 8.1 C 0 km/h
2380 08-09-2020 06:15:00 8.1 C 7.74 g/m*3 8.1 C 0 km/h
2381 08-09-2020 06:20:00 8.1 C 7.74 g/m*3 8.1 C 0 km/h
2382 08-09-2020 06:25:00 8.1 C 7.74 g/m*3 8.1 C 0 km/h
2383 08-09-2020 06:30:00 8.1 C 7.74 g/m*3 8.1 C 0 km/h
2384 08-09-2020 06:35:00 8.1 C 7.74 g/m*3 8.1 C 0 km/h
2385 08-09-2020 06:40:00 8 C 7.69 g/m*3 8 C 0 km/h
2386 08-09-2020 06:45:00 7.9 C 7.64 g/m*3 7.9 C 0 km/h
2387 08-09-2020 06:50:00 7.9 C 7.64 g/m*3 7.9 C 0 km/h
2388 08-09-2020 06:55:00 7.9 C 7.64 g/m*3 7.9 C 0 km/h
2389 08-09-2020 07:00:00 7.9 C 7.64 g/m*3 7.9 C 0 km/h
2390 08-09-2020 07:05:00 7.9 C 7.72 g/m*3 7.9 C 0 km/h
2391 08-09-2020 07:10:00 7.9 C 7.72 g/m*3 7.9 C 0 km/h
2392 08-09-2020 07:15:00 7.9 C 7.72 g/m*3 7.9 C 0 km/h
2393 08-09-2020 07:20:00 7.9 C 7.72 g/m*3 7.9 C 0 km/h
2394 08-09-2020 07:25:00 8.1 C 7.82 g/m*3 8.1 C 0 km/h
2395 08-09-2020 07:30:00 8.2 C 7.87 g/m*3 8.2 C 0 km/h
2396 08-09-2020 07:35:00 8.2 C 7.87 g/m*3 8.2 C 0 km/h
2397 08-09-2020 07:40:00 8.3 C 7.92 g/m*3 8.3 C 0 km/h
2398 08-09-2020 07:45:00 8.4 C 7.97 g/m*3 8.4 C 0 km/h
2399 08-09-2020 07:50:00 8.4 C 7.97 g/m*3 8.4 C 0 km/h
2400 08-09-2020 07:55:00 8.4 C 7.97 g/m*3 8.4 C 0 km/h
Sensor: Nr:Datum:Temp:Abs-Feuchte:Windchill:Wind:
Aussen-T/F 2401 08-09-2020 08:00:00 8.4 C 7.97 g/m*3 8.4 C 0 km/h
2402 08-09-2020 08:05:00 8.4 C 7.97 g/m*3 8.4 C 0 km/h
2403 08-09-2020 08:10:00 8.5 C 8.03 g/m*3 8.5 C 0 km/h
2404 08-09-2020 08:15:00 8.6 C 8.08 g/m*3 8.6 C 0 km/h
2405 08-09-2020 08:20:00 8.7 C 8.13 g/m*3 8.7 C 0 km/h
2406 08-09-2020 08:25:00 8.7 C 8.13 g/m*3 8.7 C 0 km/h
2407 08-09-2020 08:30:00 8.8 C 8.18 g/m*3 8.8 C 0 km/h
2408 08-09-2020 08:35:00 8.9 C 8.32 g/m*3 8.9 C 0 km/h
2409 08-09-2020 08:40:00 9 C 8.29 g/m*3 9 C 0 km/h
2410 08-09-2020 08:45:00 9 C 8.29 g/m*3 9 C 0 km/h
2411 08-09-2020 08:50:00 9.1 C 8.34 g/m*3 9.1 C 0 km/h
2412 08-09-2020 08:55:00 9.1 C 8.34 g/m*3 9.1 C 0 km/h
2413 08-09-2020 09:00:00 9.2 C 8.39 g/m*3 9.2 C 0 km/h
2414 08-09-2020 09:05:00 9.2 C 8.39 g/m*3 9.2 C 0 km/h
2415 08-09-2020 09:10:00 9.3 C 8.45 g/m*3 9.3 C 0 km/h
2416 08-09-2020 09:15:00 9.4 C 8.5 g/m*3 9.4 C 0 km/h
2417 08-09-2020 09:20:00 9.5 C 8.56 g/m*3 9.5 C 0 km/h
2418 08-09-2020 09:25:00 9.6 C 8.61 g/m*3 9.6 C 0 km/h
2419 08-09-2020 09:30:00 9.6 C 8.61 g/m*3 9.6 C 3.2 km/h
2420 08-09-2020 09:35:00 9.8 C 8.72 g/m*3 9.8 C 3.2 km/h
2421 08-09-2020 09:40:00 9.9 C 8.78 g/m*3 9.9 C 1.6 km/h
2422 08-09-2020 09:45:00 10.2 C 8.95 g/m*3 10.2 C 1.6 km/h
2423 08-09-2020 09:50:00 10.4 C 9.06 g/m*3 10.4 C 0 km/h
2424 08-09-2020 09:55:00 10.6 C 9.17 g/m*3 10.6 C 0 km/h
2425 08-09-2020 10:00:00 10.7 C 9.23 g/m*3 10.7 C 1.6 km/h
Sensor: Nr:Datum:Temp:Abs-Feuchte:Windchill:Wind:
Aussen-T/F 2426 08-09-2020 10:05:00 10.9 C 9.25 g/m*3 10.9 C 1.6 km/h
2427 08-09-2020 10:10:00 11.1 C 9.37 g/m*3 11.1 C 3.2 km/h
2428 08-09-2020 10:15:00 11.3 C 9.49 g/m*3 11.3 C 3.2 km/h
2429 08-09-2020 10:20:00 11.6 C 9.56 g/m*3 11.6 C 4.8 km/h
2430 08-09-2020 10:25:00 11.9 C 9.74 g/m*3 11.9 C 3.2 km/h
2431 08-09-2020 10:30:00 12.2 C 9.82 g/m*3 12.2 C 1.6 km/h
2432 08-09-2020 10:35:00 12.6 C 9.96 g/m*3 12.6 C 0 km/h
2433 08-09-2020 10:40:00 13 C 10.09 g/m*3 13 C 1.6 km/h
2434 08-09-2020 10:45:00 13.3 C 10.17 g/m*3 13.3 C 0 km/h
2435 08-09-2020 10:50:00 13.7 C 10.18 g/m*3 13.7 C 3.2 km/h
2436 08-09-2020 10:55:00 14.2 C 10.26 g/m*3 14.2 C 6.4 km/h
2437 08-09-2020 11:00:00 14.7 C 10.2 g/m*3 14.7 C 6.4 km/h
2438 08-09-2020 11:05:00 15.3 C 10.19 g/m*3 15.3 C 3.2 km/h
2439 08-09-2020 11:10:00 15.8 C 10.23 g/m*3 15.8 C 1.6 km/h
2440 08-09-2020 11:15:00 16.3 C 10.41 g/m*3 16.3 C 1.6 km/h
2441 08-09-2020 11:20:00 16.7 C 10.23 g/m*3 16.7 C 8.1 km/h
2442 08-09-2020 11:25:00 17.3 C 10.46 g/m*3 17.3 C 8.1 km/h
2443 08-09-2020 11:30:00 17.8 C 10.32 g/m*3 17.8 C 8.1 km/h
2444 08-09-2020 11:35:00 18.3 C 10.16 g/m*3 18.3 C 6.4 km/h
2445 08-09-2020 11:40:00 18.7 C 10.41 g/m*3 18.7 C 8.1 km/h
2446 08-09-2020 11:45:00 19.1 C 10.33 g/m*3 19.1 C 9.7 km/h
2447 08-09-2020 11:50:00 19.3 C 10.12 g/m*3 19.3 C 11.3 km/h
2448 08-09-2020 11:55:00 19.6 C 10.3 g/m*3 19.6 C 11.3 km/h
2449 08-09-2020 12:00:00 19.8 C 10.59 g/m*3 19.8 C 8.1 km/h
2450 08-09-2020 12:05:00 19.9 C 10.31 g/m*3 19.9 C 8.1 km/h
Sensor: Nr:Datum:Temp:Abs-Feuchte:Windchill:Wind:
Aussen-T/F 2451 08-09-2020 12:10:00 20.2 C 10.32 g/m*3 20.2 C 16.1 km/h
2452 08-09-2020 12:15:00 20.4 C 10.26 g/m*3 20.4 C 8.1 km/h
2453 08-09-2020 12:20:00 20.6 C 10.38 g/m*3 20.6 C 11.3 km/h
2454 08-09-2020 12:25:00 20.7 C 10.44 g/m*3 20.7 C 8.1 km/h
2455 08-09-2020 12:30:00 20.8 C 10.14 g/m*3 20.8 C 12.9 km/h
2456 08-09-2020 12:35:00 21 C 10.44 g/m*3 21 C 6.4 km/h
2457 08-09-2020 12:40:00 21.1 C 10.32 g/m*3 21.1 C 9.7 km/h
2458 08-09-2020 12:45:00 21.3 C 10.25 g/m*3 21.3 C 12.9 km/h
2459 08-09-2020 12:50:00 21.3 C 10.07 g/m*3 21.3 C 14.5 km/h
2460 08-09-2020 12:55:00 21.4 C 10.31 g/m*3 21.4 C 14.5 km/h
2461 08-09-2020 13:00:00 21.6 C 10.05 g/m*3 21.6 C 14.5 km/h
2462 08-09-2020 13:05:00 21.7 C 10.11 g/m*3 21.7 C 11.3 km/h
2463 08-09-2020 13:10:00 21.8 C 10.17 g/m*3 21.8 C 11.3 km/h
2464 08-09-2020 13:15:00 21.9 C 10.23 g/m*3 21.9 C 8.1 km/h
2465 08-09-2020 13:20:00 22.1 C 10.35 g/m*3 22.1 C 14.5 km/h
2466 08-09-2020 13:25:00 22.1 C 10.15 g/m*3 22.1 C 9.7 km/h
2467 08-09-2020 13:30:00 22.1 C 10.35 g/m*3 22.1 C 11.3 km/h
2468 08-09-2020 13:35:00 22.2 C 10.41 g/m*3 22.2 C 6.4 km/h
2469 08-09-2020 13:40:00 22.3 C 10.07 g/m*3 22.3 C 14.5 km/h
2470 08-09-2020 13:45:00 22.4 C 10.13 g/m*3 22.4 C 6.4 km/h
2471 08-09-2020 13:50:00 22.5 C 10.19 g/m*3 22.5 C 9.7 km/h
2472 08-09-2020 13:55:00 22.6 C 10.45 g/m*3 22.6 C 8.1 km/h
2473 08-09-2020 14:00:00 22.6 C 10.25 g/m*3 22.6 C 11.3 km/h
2474 08-09-2020 14:05:00 22.6 C 10.04 g/m*3 22.6 C 8.1 km/h
2475 08-09-2020 14:10:00 22.7 C 10.3 g/m*3 22.7 C 11.3 km/h
Sensor: Nr:Datum:Temp:Abs-Feuchte:Windchill:Wind:
Aussen-T/F 2476 08-09-2020 14:15:00 22.7 C 10.3 g/m*3 22.7 C 8.1 km/h
2477 08-09-2020 14:20:00 22.8 C 10.16 g/m*3 22.8 C 9.7 km/h
2478 08-09-2020 14:25:00 23 C 10.28 g/m*3 23 C 8.1 km/h
2479 08-09-2020 14:30:00 23.1 C 10.54 g/m*3 23.1 C 6.4 km/h
2480 08-09-2020 14:35:00 23.2 C 10.19 g/m*3 23.2 C 8.1 km/h
2481 08-09-2020 14:40:00 23.3 C 10.45 g/m*3 23.3 C 11.3 km/h
2482 08-09-2020 14:45:00 23.5 C 10.15 g/m*3 23.5 C 14.5 km/h
2483 08-09-2020 14:50:00 23.6 C 10.21 g/m*3 23.6 C 8.1 km/h
2484 08-09-2020 14:55:00 23.7 C 10.27 g/m*3 23.7 C 9.7 km/h
2485 08-09-2020 15:00:00 23.9 C 10.17 g/m*3 23.9 C 9.7 km/h
2486 08-09-2020 15:05:00 24 C 10.44 g/m*3 24 C 6.4 km/h
2487 08-09-2020 15:10:00 24 C 10.23 g/m*3 24 C 14.5 km/h
2488 08-09-2020 15:15:00 24.1 C 10.28 g/m*3 24.1 C 12.9 km/h
2489 08-09-2020 15:20:00 24.1 C 10.28 g/m*3 24.1 C 11.3 km/h
2490 08-09-2020 15:25:00 24.3 C 10.4 g/m*3 24.3 C 12.9 km/h
2491 08-09-2020 15:30:00 24.3 C 10.18 g/m*3 24.3 C 11.3 km/h
2492 08-09-2020 15:35:00 24.3 C 10.4 g/m*3 24.3 C 6.4 km/h
2493 08-09-2020 15:40:00 24.3 C 10.18 g/m*3 24.3 C 9.7 km/h
2494 08-09-2020 15:45:00 24.4 C 10.24 g/m*3 24.4 C 6.4 km/h
2495 08-09-2020 15:50:00 24.5 C 10.3 g/m*3 24.5 C 14.5 km/h
2496 08-09-2020 15:55:00 24.6 C 10.13 g/m*3 24.6 C 12.9 km/h
2497 08-09-2020 16:00:00 24.7 C 10.41 g/m*3 24.7 C 8.1 km/h
2498 08-09-2020 16:05:00 24.8 C 10.02 g/m*3 24.8 C 12.9 km/h
2499 08-09-2020 16:10:00 24.9 C 10.07 g/m*3 24.9 C 8.1 km/h
2500 08-09-2020 16:15:00 24.9 C 10.3 g/m*3 24.9 C 6.4 km/h
Sensor: Nr:Datum:Temp:Abs-Feuchte:Windchill:Wind:
Aussen-T/F 2501 08-09-2020 16:20:00 25.2 C 10.24 g/m*3 25.2 C 11.3 km/h
2502 08-09-2020 16:25:00 25.4 C 10.36 g/m*3 25.4 C 9.7 km/h
2503 08-09-2020 16:30:00 25.8 C 10.59 g/m*3 25.8 C 11.3 km/h
2504 08-09-2020 16:35:00 25.9 C 10.65 g/m*3 25.9 C 1.6 km/h
2505 08-09-2020 16:40:00 26.2 C 10.34 g/m*3 26.2 C 11.3 km/h
2506 08-09-2020 16:45:00 26.3 C 10.4 g/m*3 26.3 C 6.4 km/h
2507 08-09-2020 16:50:00 26.6 C 10.32 g/m*3 26.6 C 12.9 km/h
2508 08-09-2020 16:55:00 26.9 C 10.75 g/m*3 26.9 C 9.7 km/h
2509 08-09-2020 17:00:00 27.1 C 10.35 g/m*3 27.1 C 14.5 km/h
2510 08-09-2020 17:05:00 27.2 C 10.41 g/m*3 27.2 C 8.1 km/h
2511 08-09-2020 17:10:00 27.3 C 10.47 g/m*3 27.3 C 9.7 km/h
2512 08-09-2020 17:15:00 27.4 C 10.52 g/m*3 27.4 C 4.8 km/h
2513 08-09-2020 17:20:00 27.6 C 10.64 g/m*3 27.6 C 6.4 km/h
2514 08-09-2020 17:25:00 27.8 C 10.49 g/m*3 27.8 C 4.8 km/h
2515 08-09-2020 17:30:00 27.9 C 10.55 g/m*3 27.9 C 6.4 km/h
2516 08-09-2020 17:35:00 27.9 C 10.82 g/m*3 27.9 C 8.1 km/h
2517 08-09-2020 17:40:00 27.7 C 10.97 g/m*3 27.7 C 8.1 km/h
2518 08-09-2020 17:45:00 27.7 C 10.7 g/m*3 27.7 C 9.7 km/h
2519 08-09-2020 17:50:00 27.7 C 10.7 g/m*3 27.7 C 12.9 km/h
2520 08-09-2020 17:55:00 27.7 C 10.97 g/m*3 27.7 C 14.5 km/h
2521 08-09-2020 18:00:00 27.8 C 11.3 g/m*3 27.8 C 4.8 km/h
2522 08-09-2020 18:05:00 28 C 10.61 g/m*3 28 C 6.4 km/h
2523 08-09-2020 18:10:00 28.2 C 11.82 g/m*3 28.2 C 3.2 km/h
2524 08-09-2020 18:15:00 28.2 C 11 g/m*3 28.2 C 8.1 km/h
2525 08-09-2020 18:20:00 28.1 C 10.94 g/m*3 28.1 C 9.7 km/h
Sensor: Nr:Datum:Temp:Abs-Feuchte:Windchill:Wind:
Aussen-T/F 2526 08-09-2020 18:25:00 27.8 C 10.76 g/m*3 27.8 C 11.3 km/h
2527 08-09-2020 18:30:00 27.6 C 11.17 g/m*3 27.6 C 9.7 km/h
2528 08-09-2020 18:35:00 27.5 C 10.32 g/m*3 27.5 C 3.2 km/h
2529 08-09-2020 18:40:00 27.6 C 11.71 g/m*3 27.6 C 3.2 km/h
2530 08-09-2020 18:45:00 27.8 C 11.3 g/m*3 27.8 C 4.8 km/h
2531 08-09-2020 18:50:00 27.8 C 11.3 g/m*3 27.8 C 6.4 km/h
2532 08-09-2020 18:55:00 27.6 C 11.97 g/m*3 27.6 C 6.4 km/h
2533 08-09-2020 19:00:00 27.2 C 11.97 g/m*3 27.2 C 6.4 km/h
2534 08-09-2020 19:05:00 26.7 C 11.9 g/m*3 26.7 C 8.1 km/h
2535 08-09-2020 19:10:00 26.3 C 12.13 g/m*3 26.3 C 9.7 km/h
2536 08-09-2020 19:15:00 25.9 C 12.1 g/m*3 25.9 C 6.4 km/h
2537 08-09-2020 19:20:00 25.5 C 12.31 g/m*3 25.5 C 6.4 km/h
2538 08-09-2020 19:25:00 25.1 C 12.5 g/m*3 25.1 C 6.4 km/h
2539 08-09-2020 19:30:00 24.9 C 12.59 g/m*3 24.9 C 4.8 km/h
2540 08-09-2020 19:35:00 24.6 C 12.38 g/m*3 24.6 C 3.2 km/h
2541 08-09-2020 19:40:00 24.4 C 12.91 g/m*3 24.4 C 3.2 km/h
2542 08-09-2020 19:45:00 24.2 C 12.76 g/m*3 24.2 C 1.6 km/h
2543 08-09-2020 19:50:00 23.7 C 12.83 g/m*3 23.7 C 3.2 km/h
2544 08-09-2020 19:55:00 23.1 C 12.61 g/m*3 23.1 C 0 km/h
2545 08-09-2020 20:00:00 22.5 C 12.58 g/m*3 22.5 C 0 km/h
2546 08-09-2020 20:05:00 22 C 12.62 g/m*3 22 C 4.8 km/h
2547 08-09-2020 20:10:00 21.6 C 12.52 g/m*3 21.6 C 0 km/h
2548 08-09-2020 20:15:00 21.2 C 12.42 g/m*3 21.2 C 0 km/h
2549 08-09-2020 20:20:00 20.8 C 12.31 g/m*3 20.8 C 0 km/h
2550 08-09-2020 20:25:00 20.6 C 12.53 g/m*3 20.6 C 0 km/h
Sensor: Nr:Datum:Temp:Abs-Feuchte:Windchill:Wind:
Aussen-T/F 2551 08-09-2020 20:30:00 20.3 C 12.31 g/m*3 20.3 C 0 km/h
2552 08-09-2020 20:35:00 20.1 C 12.34 g/m*3 20.1 C 3.2 km/h
2553 08-09-2020 20:40:00 19.9 C 12.37 g/m*3 19.9 C 0 km/h
2554 08-09-2020 20:45:00 19.7 C 12.4 g/m*3 19.7 C 4.8 km/h
2555 08-09-2020 20:50:00 19.5 C 12.42 g/m*3 19.5 C 0 km/h
2556 08-09-2020 20:55:00 19.3 C 12.27 g/m*3 19.3 C 4.8 km/h
2557 08-09-2020 21:00:00 19.2 C 12.37 g/m*3 19.2 C 0 km/h
2558 08-09-2020 21:05:00 19.1 C 12.29 g/m*3 19.1 C 0 km/h
2559 08-09-2020 21:10:00 18.9 C 12.31 g/m*3 18.9 C 0 km/h
2560 08-09-2020 21:15:00 18.8 C 12.24 g/m*3 18.8 C 4.8 km/h
2561 08-09-2020 21:20:00 18.7 C 12.33 g/m*3 18.7 C 0 km/h
2562 08-09-2020 21:25:00 18.7 C 12.33 g/m*3 18.7 C 3.2 km/h
2563 08-09-2020 21:30:00 18.6 C 12.26 g/m*3 18.6 C 1.6 km/h
2564 08-09-2020 21:35:00 18.6 C 12.26 g/m*3 18.6 C 3.2 km/h
2565 08-09-2020 21:40:00 18.5 C 12.18 g/m*3 18.5 C 3.2 km/h
2566 08-09-2020 21:45:00 18.4 C 12.27 g/m*3 18.4 C 0 km/h
2567 08-09-2020 21:50:00 18.3 C 12.2 g/m*3 18.3 C 6.4 km/h
2568 08-09-2020 21:55:00 18.2 C 12.12 g/m*3 18.2 C 4.8 km/h
2569 08-09-2020 22:00:00 18.1 C 12.21 g/m*3 18.1 C 1.6 km/h
2570 08-09-2020 22:05:00 17.9 C 12.06 g/m*3 17.9 C 6.4 km/h
2571 08-09-2020 22:10:00 17.9 C 12.06 g/m*3 17.9 C 3.2 km/h
2572 08-09-2020 22:15:00 17.8 C 12.14 g/m*3 17.8 C 6.4 km/h
2573 08-09-2020 22:20:00 17.7 C 12.07 g/m*3 17.7 C 0 km/h
2574 08-09-2020 22:25:00 17.6 C 12 g/m*3 17.6 C 1.6 km/h
2575 08-09-2020 22:30:00 17.5 C 12.08 g/m*3 17.5 C 3.2 km/h
Sensor: Nr:Datum:Temp:Abs-Feuchte:Windchill:Wind:
Aussen-T/F 2576 08-09-2020 22:35:00 17.4 C 12 g/m*3 17.4 C 6.4 km/h
2577 08-09-2020 22:40:00 17.3 C 11.93 g/m*3 17.3 C 3.2 km/h
2578 08-09-2020 22:45:00 17.3 C 11.93 g/m*3 17.3 C 0 km/h
2579 08-09-2020 22:50:00 17.2 C 12.01 g/m*3 17.2 C 0 km/h
2580 08-09-2020 22:55:00 17.1 C 11.94 g/m*3 17.1 C 0 km/h
2581 08-09-2020 23:00:00 16.9 C 11.79 g/m*3 16.9 C 0 km/h
2582 08-09-2020 23:05:00 16.8 C 11.87 g/m*3 16.8 C 0 km/h
2583 08-09-2020 23:10:00 16.7 C 11.8 g/m*3 16.7 C 0 km/h
2584 08-09-2020 23:15:00 16.5 C 11.8 g/m*3 16.5 C 0 km/h
2585 08-09-2020 23:20:00 16.4 C 11.72 g/m*3 16.4 C 0 km/h
2586 08-09-2020 23:25:00 16.3 C 11.79 g/m*3 16.3 C 0 km/h
2587 08-09-2020 23:30:00 16.2 C 11.72 g/m*3 16.2 C 0 km/h
2588 08-09-2020 23:35:00 16 C 11.58 g/m*3 16 C 0 km/h
2589 08-09-2020 23:40:00 15.9 C 11.65 g/m*3 15.9 C 0 km/h
2590 08-09-2020 23:45:00 15.8 C 11.71 g/m*3 15.8 C 0 km/h
2591 08-09-2020 23:50:00 15.7 C 11.64 g/m*3 15.7 C 0 km/h
2592 08-09-2020 23:55:00 15.7 C 11.64 g/m*3 15.7 C 0 km/h
2593 09-09-2020 00:00:00 15.6 C 11.57 g/m*3 15.6 C 0 km/h
2594 09-09-2020 00:05:00 15.5 C 11.5 g/m*3 15.5 C 0 km/h
2595 09-09-2020 00:10:00 15.4 C 11.43 g/m*3 15.4 C 0 km/h
2596 09-09-2020 00:15:00 15.3 C 11.49 g/m*3 15.3 C 0 km/h
2597 09-09-2020 00:20:00 15.2 C 11.42 g/m*3 15.2 C 0 km/h
2598 09-09-2020 00:25:00 15.2 C 11.42 g/m*3 15.2 C 0 km/h
2599 09-09-2020 00:30:00 15.1 C 11.35 g/m*3 15.1 C 0 km/h
2600 09-09-2020 00:35:00 15.1 C 11.35 g/m*3 15.1 C 0 km/h
Sensor: Nr:Datum:Temp:Abs-Feuchte:Windchill:Wind:
Aussen-T/F 2601 09-09-2020 00:40:00 15 C 11.41 g/m*3 15 C 0 km/h
2602 09-09-2020 00:45:00 14.9 C 11.34 g/m*3 14.9 C 0 km/h
2603 09-09-2020 00:50:00 14.8 C 11.27 g/m*3 14.8 C 0 km/h
2604 09-09-2020 00:55:00 14.8 C 11.4 g/m*3 14.8 C 0 km/h
2605 09-09-2020 01:00:00 14.8 C 11.4 g/m*3 14.8 C 0 km/h
2606 09-09-2020 01:05:00 14.7 C 11.33 g/m*3 14.7 C 0 km/h
2607 09-09-2020 01:10:00 14.7 C 11.33 g/m*3 14.7 C 0 km/h
2608 09-09-2020 01:15:00 14.6 C 11.26 g/m*3 14.6 C 0 km/h
2609 09-09-2020 01:20:00 14.5 C 11.19 g/m*3 14.5 C 0 km/h
2610 09-09-2020 01:25:00 14.4 C 11.13 g/m*3 14.4 C 0 km/h
2611 09-09-2020 01:30:00 14.4 C 11.25 g/m*3 14.4 C 0 km/h
2612 09-09-2020 01:35:00 14.4 C 11.25 g/m*3 14.4 C 0 km/h
2613 09-09-2020 01:40:00 14.3 C 11.18 g/m*3 14.3 C 0 km/h
2614 09-09-2020 01:45:00 14.3 C 11.18 g/m*3 14.3 C 0 km/h
2615 09-09-2020 01:50:00 14.3 C 11.18 g/m*3 14.3 C 0 km/h
2616 09-09-2020 01:55:00 14.2 C 11.11 g/m*3 14.2 C 0 km/h
2617 09-09-2020 02:00:00 14.2 C 11.11 g/m*3 14.2 C 0 km/h
2618 09-09-2020 02:05:00 14.1 C 11.04 g/m*3 14.1 C 0 km/h
2619 09-09-2020 02:10:00 14.1 C 11.04 g/m*3 14.1 C 0 km/h
2620 09-09-2020 02:15:00 14.1 C 11.04 g/m*3 14.1 C 0 km/h
2621 09-09-2020 02:20:00 13.9 C 10.91 g/m*3 13.9 C 0 km/h
2622 09-09-2020 02:25:00 13.9 C 11.03 g/m*3 13.9 C 0 km/h
2623 09-09-2020 02:30:00 13.8 C 10.96 g/m*3 13.8 C 0 km/h
2624 09-09-2020 02:35:00 13.8 C 10.96 g/m*3 13.8 C 0 km/h
2625 09-09-2020 02:40:00 13.8 C 10.96 g/m*3 13.8 C 0 km/h
Sensor: Nr:Datum:Temp:Abs-Feuchte:Windchill:Wind:
Aussen-T/F 2626 09-09-2020 02:45:00 13.8 C 10.96 g/m*3 13.8 C 0 km/h
2627 09-09-2020 02:50:00 13.7 C 10.89 g/m*3 13.7 C 0 km/h
2628 09-09-2020 02:55:00 13.7 C 10.89 g/m*3 13.7 C 0 km/h
2629 09-09-2020 03:00:00 13.7 C 11.01 g/m*3 13.7 C 0 km/h
2630 09-09-2020 03:05:00 13.6 C 10.95 g/m*3 13.6 C 0 km/h
2631 09-09-2020 03:10:00 13.6 C 10.95 g/m*3 13.6 C 0 km/h
2632 09-09-2020 03:15:00 13.4 C 10.69 g/m*3 13.4 C 0 km/h
2633 09-09-2020 03:20:00 13.4 C 10.69 g/m*3 13.4 C 0 km/h
2634 09-09-2020 03:25:00 13.4 C 10.81 g/m*3 13.4 C 0 km/h
2635 09-09-2020 03:30:00 13.3 C 10.74 g/m*3 13.3 C 0 km/h
2636 09-09-2020 03:35:00 13.2 C 10.68 g/m*3 13.2 C 0 km/h
2637 09-09-2020 03:40:00 13.2 C 10.68 g/m*3 13.2 C 0 km/h
2638 09-09-2020 03:45:00 13.2 C 10.68 g/m*3 13.2 C 0 km/h
2639 09-09-2020 03:50:00 13.1 C 10.61 g/m*3 13.1 C 0 km/h
2640 09-09-2020 03:55:00 13.1 C 10.61 g/m*3 13.1 C 0 km/h
2641 09-09-2020 04:00:00 13.1 C 10.61 g/m*3 13.1 C 0 km/h
2642 09-09-2020 04:05:00 13.1 C 10.61 g/m*3 13.1 C 0 km/h
2643 09-09-2020 04:10:00 13 C 10.55 g/m*3 13 C 0 km/h
2644 09-09-2020 04:15:00 12.9 C 10.48 g/m*3 12.9 C 0 km/h
2645 09-09-2020 04:20:00 12.9 C 10.48 g/m*3 12.9 C 0 km/h
2646 09-09-2020 04:25:00 12.9 C 10.48 g/m*3 12.9 C 0 km/h
2647 09-09-2020 04:30:00 12.9 C 10.48 g/m*3 12.9 C 0 km/h
2648 09-09-2020 04:35:00 12.8 C 10.42 g/m*3 12.8 C 0 km/h
2649 09-09-2020 04:40:00 12.8 C 10.42 g/m*3 12.8 C 0 km/h
2650 09-09-2020 04:45:00 12.7 C 10.46 g/m*3 12.7 C 0 km/h
Sensor: Nr:Datum:Temp:Abs-Feuchte:Windchill:Wind:
Aussen-T/F 2651 09-09-2020 04:50:00 12.7 C 10.46 g/m*3 12.7 C 0 km/h
2652 09-09-2020 04:55:00 12.6 C 10.4 g/m*3 12.6 C 0 km/h
2653 09-09-2020 05:00:00 12.6 C 10.4 g/m*3 12.6 C 0 km/h
2654 09-09-2020 05:05:00 12.6 C 10.4 g/m*3 12.6 C 0 km/h
2655 09-09-2020 05:10:00 12.6 C 10.4 g/m*3 12.6 C 0 km/h
2656 09-09-2020 05:15:00 12.6 C 10.4 g/m*3 12.6 C 0 km/h
2657 09-09-2020 05:20:00 12.6 C 10.4 g/m*3 12.6 C 0 km/h
2658 09-09-2020 05:25:00 12.5 C 10.33 g/m*3 12.5 C 0 km/h
2659 09-09-2020 05:30:00 12.4 C 10.27 g/m*3 12.4 C 0 km/h
2660 09-09-2020 05:35:00 12.4 C 10.27 g/m*3 12.4 C 0 km/h
2661 09-09-2020 05:40:00 12.4 C 10.27 g/m*3 12.4 C 0 km/h
2662 09-09-2020 05:45:00 12.3 C 10.21 g/m*3 12.3 C 0 km/h
2663 09-09-2020 05:50:00 12.3 C 10.32 g/m*3 12.3 C 0 km/h
2664 09-09-2020 05:55:00 12.3 C 10.21 g/m*3 12.3 C 0 km/h
2665 09-09-2020 06:00:00 12.4 C 10.38 g/m*3 12.4 C 0 km/h
2666 09-09-2020 06:05:00 12.3 C 10.21 g/m*3 12.3 C 0 km/h
2667 09-09-2020 06:10:00 12.3 C 10.21 g/m*3 12.3 C 0 km/h
2668 09-09-2020 06:15:00 12.3 C 10.21 g/m*3 12.3 C 0 km/h
2669 09-09-2020 06:20:00 12.2 C 10.14 g/m*3 12.2 C 0 km/h
2670 09-09-2020 06:25:00 12.2 C 10.14 g/m*3 12.2 C 0 km/h
2671 09-09-2020 06:30:00 12.1 C 10.19 g/m*3 12.1 C 0 km/h
2672 09-09-2020 06:35:00 12.1 C 10.19 g/m*3 12.1 C 0 km/h
2673 09-09-2020 06:40:00 12.1 C 10.19 g/m*3 12.1 C 0 km/h
2674 09-09-2020 06:45:00 12.1 C 10.19 g/m*3 12.1 C 0 km/h
2675 09-09-2020 06:50:00 12.1 C 10.19 g/m*3 12.1 C 0 km/h
Sensor: Nr:Datum:Temp:Abs-Feuchte:Windchill:Wind:
Aussen-T/F 2676 09-09-2020 06:55:00 12 C 10.12 g/m*3 12 C 0 km/h
2677 09-09-2020 07:00:00 11.9 C 10.06 g/m*3 11.9 C 0 km/h
2678 09-09-2020 07:05:00 11.9 C 10.06 g/m*3 11.9 C 0 km/h
2679 09-09-2020 07:10:00 11.9 C 10.06 g/m*3 11.9 C 0 km/h
2680 09-09-2020 07:15:00 11.9 C 10.06 g/m*3 11.9 C 0 km/h
2681 09-09-2020 07:20:00 11.9 C 10.06 g/m*3 11.9 C 0 km/h
2682 09-09-2020 07:25:00 11.9 C 10.06 g/m*3 11.9 C 0 km/h
2683 09-09-2020 07:30:00 11.9 C 10.06 g/m*3 11.9 C 0 km/h
2684 09-09-2020 07:35:00 12.1 C 10.19 g/m*3 12.1 C 1.6 km/h
2685 09-09-2020 07:40:00 12.2 C 10.25 g/m*3 12.2 C 0 km/h
2686 09-09-2020 07:45:00 12.2 C 10.25 g/m*3 12.2 C 0 km/h
2687 09-09-2020 07:50:00 12.2 C 10.36 g/m*3 12.2 C 0 km/h
2688 09-09-2020 07:55:00 12.2 C 10.25 g/m*3 12.2 C 0 km/h
2689 09-09-2020 08:00:00 12.2 C 10.25 g/m*3 12.2 C 0 km/h
2690 09-09-2020 08:05:00 12.2 C 10.36 g/m*3 12.2 C 0 km/h
2691 09-09-2020 08:10:00 12.2 C 10.25 g/m*3 12.2 C 0 km/h
2692 09-09-2020 08:15:00 12.2 C 10.25 g/m*3 12.2 C 0 km/h
2693 09-09-2020 08:20:00 12.2 C 10.36 g/m*3 12.2 C 1.6 km/h
2694 09-09-2020 08:25:00 12.3 C 10.42 g/m*3 12.3 C 0 km/h
2695 09-09-2020 08:30:00 12.4 C 10.49 g/m*3 12.4 C 1.6 km/h
2696 09-09-2020 08:35:00 12.5 C 10.55 g/m*3 12.5 C 1.6 km/h
2697 09-09-2020 08:40:00 12.6 C 10.62 g/m*3 12.6 C 0 km/h
2698 09-09-2020 08:45:00 12.7 C 10.69 g/m*3 12.7 C 1.6 km/h
2699 09-09-2020 08:50:00 12.7 C 10.69 g/m*3 12.7 C 3.2 km/h
2700 09-09-2020 08:55:00 12.8 C 10.75 g/m*3 12.8 C 4.8 km/h
Sensor: Nr:Datum:Temp:Abs-Feuchte:Windchill:Wind:
Aussen-T/F 2701 09-09-2020 09:00:00 12.8 C 10.75 g/m*3 12.8 C 1.6 km/h
2702 09-09-2020 09:05:00 12.9 C 10.82 g/m*3 12.9 C 0 km/h
2703 09-09-2020 09:10:00 13 C 10.89 g/m*3 13 C 0 km/h
2704 09-09-2020 09:15:00 13.1 C 10.95 g/m*3 13.1 C 0 km/h
2705 09-09-2020 09:20:00 13.1 C 10.95 g/m*3 13.1 C 1.6 km/h
2706 09-09-2020 09:25:00 13.3 C 11.09 g/m*3 13.3 C 4.8 km/h
2707 09-09-2020 09:30:00 13.3 C 11.09 g/m*3 13.3 C 3.2 km/h
2708 09-09-2020 09:35:00 13.5 C 11.23 g/m*3 13.5 C 1.6 km/h
2709 09-09-2020 09:40:00 13.7 C 11.37 g/m*3 13.7 C 0 km/h
2710 09-09-2020 09:45:00 14.1 C 11.77 g/m*3 14.1 C 1.6 km/h
2711 09-09-2020 09:50:00 14.3 C 11.92 g/m*3 14.3 C 3.2 km/h
2712 09-09-2020 09:55:00 14.7 C 12.21 g/m*3 14.7 C 1.6 km/h
2713 09-09-2020 10:00:00 14.9 C 12.36 g/m*3 14.9 C 0 km/h
2714 09-09-2020 10:05:00 15.1 C 12.39 g/m*3 15.1 C 0 km/h
2715 09-09-2020 10:10:00 15.2 C 12.46 g/m*3 15.2 C 0 km/h
2716 09-09-2020 10:15:00 15.4 C 12.61 g/m*3 15.4 C 0 km/h
2717 09-09-2020 10:20:00 15.7 C 12.84 g/m*3 15.7 C 0 km/h
2718 09-09-2020 10:25:00 15.9 C 12.87 g/m*3 15.9 C 0 km/h
2719 09-09-2020 10:30:00 16.3 C 13.04 g/m*3 16.3 C 0 km/h
2720 09-09-2020 10:35:00 16.5 C 13.06 g/m*3 16.5 C 0 km/h
2721 09-09-2020 10:40:00 16.8 C 13.01 g/m*3 16.8 C 0 km/h
2722 09-09-2020 10:45:00 17.3 C 13.26 g/m*3 17.3 C 0 km/h
2723 09-09-2020 10:50:00 17.8 C 13.36 g/m*3 17.8 C 0 km/h
2724 09-09-2020 10:55:00 18.3 C 13.13 g/m*3 18.3 C 1.6 km/h
2725 09-09-2020 11:00:00 18.9 C 13.45 g/m*3 18.9 C 1.6 km/h
Sensor: Nr:Datum:Temp:Abs-Feuchte:Windchill:Wind:
Aussen-T/F 2726 09-09-2020 11:05:00 19.3 C 13.27 g/m*3 19.3 C 3.2 km/h
2727 09-09-2020 11:10:00 19.7 C 13.25 g/m*3 19.7 C 0 km/h
2728 09-09-2020 11:15:00 20 C 13.13 g/m*3 20 C 1.6 km/h
2729 09-09-2020 11:20:00 20.3 C 13.19 g/m*3 20.3 C 0 km/h
2730 09-09-2020 11:25:00 20.7 C 13.5 g/m*3 20.7 C 0 km/h
2731 09-09-2020 11:30:00 20.9 C 13.3 g/m*3 20.9 C 0 km/h
2732 09-09-2020 11:35:00 21.2 C 13.53 g/m*3 21.2 C 0 km/h
2733 09-09-2020 11:40:00 21.5 C 13.58 g/m*3 21.5 C 0 km/h
2734 09-09-2020 11:45:00 21.7 C 13.54 g/m*3 21.7 C 0 km/h
2735 09-09-2020 11:50:00 21.9 C 14.09 g/m*3 21.9 C 0 km/h
2736 09-09-2020 11:55:00 22.2 C 14.33 g/m*3 22.2 C 0 km/h
2737 09-09-2020 12:00:00 22.3 C 13.82 g/m*3 22.3 C 0 km/h
2738 09-09-2020 12:05:00 22.4 C 13.7 g/m*3 22.4 C 6.4 km/h
2739 09-09-2020 12:10:00 22.4 C 13.5 g/m*3 22.4 C 8.1 km/h
2740 09-09-2020 12:15:00 22.3 C 13.62 g/m*3 22.3 C 4.8 km/h
2741 09-09-2020 12:20:00 22.4 C 13.7 g/m*3 22.4 C 1.6 km/h
2742 09-09-2020 12:25:00 22.3 C 13.62 g/m*3 22.3 C 4.8 km/h
2743 09-09-2020 12:30:00 22.3 C 13.62 g/m*3 22.3 C 0 km/h
2744 09-09-2020 12:35:00 22.3 C 13.43 g/m*3 22.3 C 6.4 km/h
2745 09-09-2020 12:40:00 22.3 C 13.62 g/m*3 22.3 C 6.4 km/h
2746 09-09-2020 12:45:00 22.4 C 13.7 g/m*3 22.4 C 3.2 km/h
2747 09-09-2020 12:50:00 22.5 C 13.98 g/m*3 22.5 C 0 km/h
2748 09-09-2020 12:55:00 22.5 C 13.78 g/m*3 22.5 C 3.2 km/h
2749 09-09-2020 13:00:00 22.6 C 13.86 g/m*3 22.6 C 0 km/h
2750 09-09-2020 13:05:00 22.7 C 13.94 g/m*3 22.7 C 1.6 km/h
Sensor: Nr:Datum:Temp:Abs-Feuchte:Windchill:Wind:
Aussen-T/F 2751 09-09-2020 13:10:00 22.7 C 13.94 g/m*3 22.7 C 4.8 km/h
2752 09-09-2020 13:15:00 22.8 C 13.82 g/m*3 22.8 C 6.4 km/h
2753 09-09-2020 13:20:00 22.9 C 14.31 g/m*3 22.9 C 4.8 km/h
2754 09-09-2020 13:25:00 22.9 C 13.69 g/m*3 22.9 C 3.2 km/h
2755 09-09-2020 13:30:00 22.9 C 13.9 g/m*3 22.9 C 4.8 km/h
2756 09-09-2020 13:35:00 22.9 C 13.9 g/m*3 22.9 C 8.1 km/h
2757 09-09-2020 13:40:00 22.9 C 13.69 g/m*3 22.9 C 9.7 km/h
2758 09-09-2020 13:45:00 22.9 C 13.9 g/m*3 22.9 C 6.4 km/h
2759 09-09-2020 13:50:00 23 C 13.77 g/m*3 23 C 4.8 km/h
2760 09-09-2020 13:55:00 23 C 13.77 g/m*3 23 C 8.1 km/h
2761 09-09-2020 14:00:00 23.1 C 13.85 g/m*3 23.1 C 3.2 km/h
2762 09-09-2020 14:05:00 23.2 C 13.93 g/m*3 23.2 C 8.1 km/h
2763 09-09-2020 14:10:00 23.2 C 13.93 g/m*3 23.2 C 8.1 km/h
2764 09-09-2020 14:15:00 23.2 C 13.72 g/m*3 23.2 C 6.4 km/h
2765 09-09-2020 14:20:00 23.3 C 14.01 g/m*3 23.3 C 4.8 km/h
2766 09-09-2020 14:25:00 23.6 C 14.25 g/m*3 23.6 C 9.7 km/h
2767 09-09-2020 14:30:00 23.8 C 14.2 g/m*3 23.8 C 8.1 km/h
2768 09-09-2020 14:35:00 24 C 13.92 g/m*3 24 C 11.3 km/h
2769 09-09-2020 14:40:00 24.1 C 14 g/m*3 24.1 C 6.4 km/h
2770 09-09-2020 14:45:00 24.2 C 14.08 g/m*3 24.2 C 8.1 km/h
2771 09-09-2020 14:50:00 24.3 C 13.94 g/m*3 24.3 C 9.7 km/h
2772 09-09-2020 14:55:00 24.3 C 13.94 g/m*3 24.3 C 8.1 km/h
2773 09-09-2020 15:00:00 24.2 C 13.86 g/m*3 24.2 C 9.7 km/h
2774 09-09-2020 15:05:00 24.2 C 15.18 g/m*3 24.2 C 4.8 km/h
2775 09-09-2020 15:10:00 24.2 C 14.08 g/m*3 24.2 C 12.9 km/h
Sensor: Nr:Datum:Temp:Abs-Feuchte:Windchill:Wind:
Aussen-T/F 2776 09-09-2020 15:15:00 24.2 C 14.3 g/m*3 24.2 C 8.1 km/h
2777 09-09-2020 15:20:00 24.3 C 14.61 g/m*3 24.3 C 1.6 km/h
2778 09-09-2020 15:25:00 24.3 C 14.16 g/m*3 24.3 C 11.3 km/h
2779 09-09-2020 15:30:00 24.2 C 14.08 g/m*3 24.2 C 11.3 km/h
2780 09-09-2020 15:35:00 24.1 C 14 g/m*3 24.1 C 3.2 km/h
2781 09-09-2020 15:40:00 24 C 14.14 g/m*3 24 C 6.4 km/h
2782 09-09-2020 15:45:00 23.9 C 14.06 g/m*3 23.9 C 4.8 km/h
2783 09-09-2020 15:50:00 23.8 C 13.77 g/m*3 23.8 C 9.7 km/h
2784 09-09-2020 15:55:00 23.8 C 13.98 g/m*3 23.8 C 4.8 km/h
2785 09-09-2020 16:00:00 23.7 C 13.9 g/m*3 23.7 C 8.1 km/h
2786 09-09-2020 16:05:00 23.7 C 14.12 g/m*3 23.7 C 3.2 km/h
2787 09-09-2020 16:10:00 23.8 C 14.2 g/m*3 23.8 C 0 km/h
2788 09-09-2020 16:15:00 23.8 C 13.98 g/m*3 23.8 C 4.8 km/h
2789 09-09-2020 16:20:00 23.9 C 14.06 g/m*3 23.9 C 11.3 km/h
2790 09-09-2020 16:25:00 23.9 C 14.06 g/m*3 23.9 C 4.8 km/h
2791 09-09-2020 16:30:00 23.9 C 14.06 g/m*3 23.9 C 4.8 km/h
2792 09-09-2020 16:35:00 24 C 14.36 g/m*3 24 C 4.8 km/h
2793 09-09-2020 16:40:00 24.1 C 14.22 g/m*3 24.1 C 1.6 km/h
2794 09-09-2020 16:45:00 24.1 C 13.78 g/m*3 24.1 C 3.2 km/h
2795 09-09-2020 16:50:00 24.1 C 14.22 g/m*3 24.1 C 3.2 km/h
2796 09-09-2020 16:55:00 24.1 C 13.78 g/m*3 24.1 C 4.8 km/h
2797 09-09-2020 17:00:00 24.1 C 13.78 g/m*3 24.1 C 4.8 km/h
2798 09-09-2020 17:05:00 24.2 C 13.86 g/m*3 24.2 C 4.8 km/h
2799 09-09-2020 17:10:00 24.3 C 13.72 g/m*3 24.3 C 3.2 km/h
2800 09-09-2020 17:15:00 24.4 C 14.02 g/m*3 24.4 C 6.4 km/h
Sensor: Nr:Datum:Temp:Abs-Feuchte:Windchill:Wind:
Aussen-T/F 2801 09-09-2020 17:20:00 24.5 C 13.88 g/m*3 24.5 C 6.4 km/h
2802 09-09-2020 17:25:00 24.6 C 14.18 g/m*3 24.6 C 6.4 km/h
2803 09-09-2020 17:30:00 24.6 C 14.4 g/m*3 24.6 C 4.8 km/h
2804 09-09-2020 17:35:00 24.7 C 14.03 g/m*3 24.7 C 8.1 km/h
2805 09-09-2020 17:40:00 24.7 C 14.03 g/m*3 24.7 C 4.8 km/h
2806 09-09-2020 17:45:00 24.7 C 14.26 g/m*3 24.7 C 1.6 km/h
2807 09-09-2020 17:50:00 24.7 C 14.71 g/m*3 24.7 C 1.6 km/h
2808 09-09-2020 17:55:00 24.8 C 15.02 g/m*3 24.8 C 1.6 km/h
2809 09-09-2020 18:00:00 25.1 C 14.12 g/m*3 25.1 C 8.1 km/h
2810 09-09-2020 18:05:00 25.2 C 14.67 g/m*3 25.2 C 0 km/h
2811 09-09-2020 18:10:00 25.1 C 14.58 g/m*3 25.1 C 0 km/h
2812 09-09-2020 18:15:00 24.9 C 14.65 g/m*3 24.9 C 0 km/h
2813 09-09-2020 18:20:00 24.7 C 14.94 g/m*3 24.7 C 1.6 km/h
2814 09-09-2020 18:25:00 24.5 C 14.77 g/m*3 24.5 C 0 km/h
2815 09-09-2020 18:30:00 24.3 C 14.83 g/m*3 24.3 C 0 km/h
2816 09-09-2020 18:35:00 24.2 C 14.96 g/m*3 24.2 C 0 km/h
2817 09-09-2020 18:40:00 24 C 14.36 g/m*3 24 C 4.8 km/h
2818 09-09-2020 18:45:00 23.9 C 14.71 g/m*3 23.9 C 0 km/h
2819 09-09-2020 18:50:00 23.9 C 14.93 g/m*3 23.9 C 0 km/h
2820 09-09-2020 18:55:00 23.8 C 15.06 g/m*3 23.8 C 0 km/h
2821 09-09-2020 19:00:00 23.7 C 14.97 g/m*3 23.7 C 0 km/h
2822 09-09-2020 19:05:00 23.6 C 14.89 g/m*3 23.6 C 0 km/h
2823 09-09-2020 19:10:00 23.4 C 14.93 g/m*3 23.4 C 0 km/h
2824 09-09-2020 19:15:00 23.2 C 14.55 g/m*3 23.2 C 0 km/h
2825 09-09-2020 19:20:00 23 C 14.59 g/m*3 23 C 0 km/h
Sensor: Nr:Datum:Temp:Abs-Feuchte:Windchill:Wind:
Aussen-T/F 2826 09-09-2020 19:25:00 22.8 C 14.43 g/m*3 22.8 C 0 km/h
2827 09-09-2020 19:30:00 22.5 C 14.38 g/m*3 22.5 C 0 km/h
2828 09-09-2020 19:35:00 22.3 C 14.41 g/m*3 22.3 C 0 km/h
2829 09-09-2020 19:40:00 22.2 C 14.33 g/m*3 22.2 C 0 km/h
2830 09-09-2020 19:45:00 22.1 C 14.45 g/m*3 22.1 C 0 km/h
2831 09-09-2020 19:50:00 21.9 C 14.28 g/m*3 21.9 C 0 km/h
2832 09-09-2020 19:55:00 21.8 C 14.2 g/m*3 21.8 C 0 km/h
2833 09-09-2020 20:00:00 21.7 C 14.5 g/m*3 21.7 C 0 km/h
2834 09-09-2020 20:05:00 21.6 C 14.41 g/m*3 21.6 C 0 km/h
2835 09-09-2020 20:10:00 21.5 C 14.33 g/m*3 21.5 C 0 km/h
2836 09-09-2020 20:15:00 21.4 C 14.25 g/m*3 21.4 C 0 km/h
2837 09-09-2020 20:20:00 21.3 C 14.17 g/m*3 21.3 C 0 km/h
2838 09-09-2020 20:25:00 21.2 C 14.08 g/m*3 21.2 C 0 km/h
2839 09-09-2020 20:30:00 21 C 14.11 g/m*3 21 C 0 km/h
2840 09-09-2020 20:35:00 20.9 C 14.02 g/m*3 20.9 C 0 km/h
2841 09-09-2020 20:40:00 20.7 C 13.86 g/m*3 20.7 C 0 km/h
2842 09-09-2020 20:45:00 20.5 C 13.88 g/m*3 20.5 C 0 km/h
2843 09-09-2020 20:50:00 20.3 C 13.72 g/m*3 20.3 C 0 km/h
2844 09-09-2020 20:55:00 20.2 C 13.64 g/m*3 20.2 C 1.6 km/h
2845 09-09-2020 21:00:00 20.1 C 13.56 g/m*3 20.1 C 1.6 km/h
2846 09-09-2020 21:05:00 20.1 C 13.73 g/m*3 20.1 C 0 km/h
2847 09-09-2020 21:10:00 19.9 C 13.57 g/m*3 19.9 C 4.8 km/h
2848 09-09-2020 21:15:00 19.8 C 13.66 g/m*3 19.8 C 4.8 km/h
2849 09-09-2020 21:20:00 19.7 C 13.41 g/m*3 19.7 C 6.4 km/h
2850 09-09-2020 21:25:00 19.7 C 13.58 g/m*3 19.7 C 4.8 km/h
Sensor: Nr:Datum:Temp:Abs-Feuchte:Windchill:Wind:
Aussen-T/F 2851 09-09-2020 21:30:00 19.7 C 13.58 g/m*3 19.7 C 6.4 km/h
2852 09-09-2020 21:35:00 19.6 C 13.51 g/m*3 19.6 C 6.4 km/h
2853 09-09-2020 21:40:00 19.6 C 13.51 g/m*3 19.6 C 6.4 km/h
2854 09-09-2020 21:45:00 19.6 C 13.51 g/m*3 19.6 C 6.4 km/h
2855 09-09-2020 21:50:00 19.6 C 13.67 g/m*3 19.6 C 4.8 km/h
2856 09-09-2020 21:55:00 19.6 C 13.67 g/m*3 19.6 C 4.8 km/h
2857 09-09-2020 22:00:00 19.6 C 13.67 g/m*3 19.6 C 3.2 km/h
2858 09-09-2020 22:05:00 19.6 C 13.67 g/m*3 19.6 C 0 km/h
2859 09-09-2020 22:10:00 19.6 C 13.67 g/m*3 19.6 C 4.8 km/h
2860 09-09-2020 22:15:00 19.6 C 13.67 g/m*3 19.6 C 3.2 km/h
2861 09-09-2020 22:20:00 19.6 C 13.67 g/m*3 19.6 C 3.2 km/h
2862 09-09-2020 22:25:00 19.7 C 13.75 g/m*3 19.7 C 0 km/h
2863 09-09-2020 22:30:00 19.7 C 13.75 g/m*3 19.7 C 0 km/h
2864 09-09-2020 22:35:00 19.7 C 13.75 g/m*3 19.7 C 0 km/h
2865 09-09-2020 22:40:00 19.7 C 13.75 g/m*3 19.7 C 0 km/h
2866 09-09-2020 22:45:00 19.7 C 13.75 g/m*3 19.7 C 0 km/h
2867 09-09-2020 22:50:00 19.7 C 13.92 g/m*3 19.7 C 0 km/h
2868 09-09-2020 22:55:00 19.7 C 13.92 g/m*3 19.7 C 0 km/h
2869 09-09-2020 23:00:00 19.7 C 13.75 g/m*3 19.7 C 3.2 km/h
2870 09-09-2020 23:05:00 19.7 C 13.75 g/m*3 19.7 C 1.6 km/h
2871 09-09-2020 23:10:00 19.7 C 13.75 g/m*3 19.7 C 0 km/h
2872 09-09-2020 23:15:00 19.7 C 13.58 g/m*3 19.7 C 0 km/h
2873 09-09-2020 23:20:00 19.7 C 13.41 g/m*3 19.7 C 1.6 km/h
2874 09-09-2020 23:25:00 19.9 C 13.74 g/m*3 19.9 C 0 km/h
2875 09-09-2020 23:30:00 20 C 13.65 g/m*3 20 C 6.4 km/h
Sensor: Nr:Datum:Temp:Abs-Feuchte:Windchill:Wind:
Aussen-T/F 2876 09-09-2020 23:35:00 20.2 C 13.64 g/m*3 20.2 C 4.8 km/h
2877 09-09-2020 23:40:00 20.3 C 13.72 g/m*3 20.3 C 6.4 km/h
2878 09-09-2020 23:45:00 20.5 C 13.88 g/m*3 20.5 C 4.8 km/h
2879 09-09-2020 23:50:00 20.6 C 13.78 g/m*3 20.6 C 4.8 km/h
2880 09-09-2020 23:55:00 20.7 C 14.04 g/m*3 20.7 C 14.5 km/h
2881 10-09-2020 00:00:00 20.8 C 14.3 g/m*3 20.8 C 11.3 km/h
2882 10-09-2020 00:05:00 20.7 C 14.4 g/m*3 20.7 C 11.3 km/h
2883 10-09-2020 00:10:00 20.6 C 14.5 g/m*3 20.6 C 16.1 km/h
2884 10-09-2020 00:15:00 20.5 C 14.59 g/m*3 20.5 C 9.7 km/h
2885 10-09-2020 00:20:00 20.3 C 14.6 g/m*3 20.3 C 11.3 km/h
2886 10-09-2020 00:25:00 20.2 C 14.69 g/m*3 20.2 C 11.3 km/h
2887 10-09-2020 00:30:00 20.1 C 14.6 g/m*3 20.1 C 8.1 km/h
2888 10-09-2020 00:35:00 20 C 14.69 g/m*3 20 C 11.3 km/h
2889 10-09-2020 00:40:00 19.9 C 14.6 g/m*3 19.9 C 14.5 km/h
2890 10-09-2020 00:45:00 19.8 C 14.69 g/m*3 19.8 C 9.7 km/h
2891 10-09-2020 00:50:00 19.7 C 14.6 g/m*3 19.7 C 9.7 km/h
2892 10-09-2020 00:55:00 19.6 C 14.69 g/m*3 19.6 C 6.4 km/h
2893 10-09-2020 01:00:00 19.4 C 14.68 g/m*3 19.4 C 14.5 km/h
2894 10-09-2020 01:05:00 19.2 C 14.68 g/m*3 19.2 C 8.1 km/h
2895 10-09-2020 01:10:00 19.1 C 14.75 g/m*3 19.1 C 4.8 km/h
2896 10-09-2020 01:15:00 18.9 C 14.58 g/m*3 18.9 C 8.1 km/h
2897 10-09-2020 01:20:00 18.7 C 14.41 g/m*3 18.7 C 12.9 km/h
2898 10-09-2020 01:25:00 18.6 C 14.48 g/m*3 18.6 C 8.1 km/h
2899 10-09-2020 01:30:00 18.6 C 14.48 g/m*3 18.6 C 6.4 km/h
2900 10-09-2020 01:35:00 18.5 C 14.4 g/m*3 18.5 C 6.4 km/h
Sensor: Nr:Datum:Temp:Abs-Feuchte:Windchill:Wind:
Aussen-T/F 2901 10-09-2020 01:40:00 18.4 C 14.47 g/m*3 18.4 C 4.8 km/h
2902 10-09-2020 01:45:00 18.4 C 14.47 g/m*3 18.4 C 8.1 km/h
2903 10-09-2020 01:50:00 18.3 C 14.38 g/m*3 18.3 C 11.3 km/h
2904 10-09-2020 01:55:00 18.2 C 14.3 g/m*3 18.2 C 9.7 km/h
2905 10-09-2020 02:00:00 18.1 C 14.21 g/m*3 18.1 C 3.2 km/h
2906 10-09-2020 02:05:00 18.1 C 14.21 g/m*3 18.1 C 0 km/h
2907 10-09-2020 02:10:00 18 C 14.13 g/m*3 18 C 4.8 km/h
2908 10-09-2020 02:15:00 17.9 C 13.89 g/m*3 17.9 C 8.1 km/h
2909 10-09-2020 02:20:00 17.8 C 13.66 g/m*3 17.8 C 11.3 km/h
2910 10-09-2020 02:25:00 17.7 C 13.58 g/m*3 17.7 C 6.4 km/h
2911 10-09-2020 02:30:00 17.6 C 13.5 g/m*3 17.6 C 1.6 km/h
2912 10-09-2020 02:35:00 17.4 C 13.19 g/m*3 17.4 C 9.7 km/h
2913 10-09-2020 02:40:00 17.4 C 13.34 g/m*3 17.4 C 4.8 km/h
2914 10-09-2020 02:45:00 17.4 C 13.34 g/m*3 17.4 C 0 km/h
2915 10-09-2020 02:50:00 17.4 C 13.34 g/m*3 17.4 C 4.8 km/h
2916 10-09-2020 02:55:00 17.3 C 13.26 g/m*3 17.3 C 0 km/h
2917 10-09-2020 03:00:00 17.3 C 13.26 g/m*3 17.3 C 6.4 km/h
2918 10-09-2020 03:05:00 17.3 C 13.11 g/m*3 17.3 C 0 km/h
2919 10-09-2020 03:10:00 17.3 C 13.11 g/m*3 17.3 C 0 km/h
2920 10-09-2020 03:15:00 17.2 C 13.18 g/m*3 17.2 C 0 km/h
2921 10-09-2020 03:20:00 17.2 C 13.18 g/m*3 17.2 C 0 km/h
2922 10-09-2020 03:25:00 17.2 C 13.03 g/m*3 17.2 C 1.6 km/h
2923 10-09-2020 03:30:00 17.1 C 12.96 g/m*3 17.1 C 4.8 km/h
2924 10-09-2020 03:35:00 17.1 C 12.96 g/m*3 17.1 C 1.6 km/h
2925 10-09-2020 03:40:00 17.1 C 12.96 g/m*3 17.1 C 0 km/h
Sensor: Nr:Datum:Temp:Abs-Feuchte:Windchill:Wind:
Aussen-T/F 2926 10-09-2020 03:45:00 17.1 C 12.96 g/m*3 17.1 C 1.6 km/h
2927 10-09-2020 03:50:00 17.1 C 12.96 g/m*3 17.1 C 8.1 km/h
2928 10-09-2020 03:55:00 17.1 C 12.96 g/m*3 17.1 C 0 km/h
2929 10-09-2020 04:00:00 17.1 C 12.96 g/m*3 17.1 C 3.2 km/h
2930 10-09-2020 04:05:00 17.1 C 12.96 g/m*3 17.1 C 0 km/h
2931 10-09-2020 04:10:00 17.1 C 12.96 g/m*3 17.1 C 0 km/h
2932 10-09-2020 04:15:00 17 C 12.88 g/m*3 17 C 1.6 km/h
2933 10-09-2020 04:20:00 16.9 C 12.66 g/m*3 16.9 C 0 km/h
2934 10-09-2020 04:25:00 16.8 C 12.58 g/m*3 16.8 C 0 km/h
2935 10-09-2020 04:30:00 16.8 C 12.44 g/m*3 16.8 C 1.6 km/h
2936 10-09-2020 04:35:00 16.7 C 12.22 g/m*3 16.7 C 1.6 km/h
2937 10-09-2020 04:40:00 16.7 C 12.36 g/m*3 16.7 C 0 km/h
2938 10-09-2020 04:45:00 16.7 C 12.36 g/m*3 16.7 C 0 km/h
2939 10-09-2020 04:50:00 16.7 C 12.22 g/m*3 16.7 C 1.6 km/h
2940 10-09-2020 04:55:00 16.7 C 12.08 g/m*3 16.7 C 3.2 km/h
2941 10-09-2020 05:00:00 16.6 C 11.72 g/m*3 16.6 C 6.4 km/h
2942 10-09-2020 05:05:00 16.6 C 11.58 g/m*3 16.6 C 4.8 km/h
2943 10-09-2020 05:10:00 16.6 C 11.72 g/m*3 16.6 C 3.2 km/h
2944 10-09-2020 05:15:00 16.7 C 11.8 g/m*3 16.7 C 0 km/h
2945 10-09-2020 05:20:00 16.6 C 11.72 g/m*3 16.6 C 0 km/h
2946 10-09-2020 05:25:00 16.6 C 11.87 g/m*3 16.6 C 0 km/h
2947 10-09-2020 05:30:00 16.6 C 11.87 g/m*3 16.6 C 0 km/h
2948 10-09-2020 05:35:00 16.6 C 11.87 g/m*3 16.6 C 0 km/h
2949 10-09-2020 05:40:00 16.6 C 12.01 g/m*3 16.6 C 0 km/h
2950 10-09-2020 05:45:00 16.5 C 11.94 g/m*3 16.5 C 1.6 km/h
Sensor: Nr:Datum:Temp:Abs-Feuchte:Windchill:Wind:
Aussen-T/F 2951 10-09-2020 05:50:00 16.4 C 11.86 g/m*3 16.4 C 4.8 km/h
2952 10-09-2020 05:55:00 16.4 C 11.86 g/m*3 16.4 C 4.8 km/h
2953 10-09-2020 06:00:00 16.3 C 11.79 g/m*3 16.3 C 0 km/h
2954 10-09-2020 06:05:00 16.3 C 11.79 g/m*3 16.3 C 0 km/h
2955 10-09-2020 06:10:00 16.3 C 11.79 g/m*3 16.3 C 1.6 km/h
2956 10-09-2020 06:15:00 16.2 C 11.58 g/m*3 16.2 C 4.8 km/h
2957 10-09-2020 06:20:00 16.2 C 11.58 g/m*3 16.2 C 1.6 km/h
2958 10-09-2020 06:25:00 16.2 C 11.58 g/m*3 16.2 C 4.8 km/h
2959 10-09-2020 06:30:00 16.1 C 11.51 g/m*3 16.1 C 3.2 km/h
2960 10-09-2020 06:35:00 16 C 11.44 g/m*3 16 C 3.2 km/h
2961 10-09-2020 06:40:00 15.9 C 11.38 g/m*3 15.9 C 3.2 km/h
2962 10-09-2020 06:45:00 15.9 C 11.51 g/m*3 15.9 C 3.2 km/h
2963 10-09-2020 06:50:00 15.8 C 11.31 g/m*3 15.8 C 8.1 km/h
2964 10-09-2020 06:55:00 15.8 C 11.44 g/m*3 15.8 C 3.2 km/h
2965 10-09-2020 07:00:00 15.8 C 11.44 g/m*3 15.8 C 0 km/h
2966 10-09-2020 07:05:00 15.7 C 11.51 g/m*3 15.7 C 3.2 km/h
2967 10-09-2020 07:10:00 15.6 C 11.44 g/m*3 15.6 C 8.1 km/h
2968 10-09-2020 07:15:00 15.6 C 11.44 g/m*3 15.6 C 4.8 km/h
2969 10-09-2020 07:20:00 15.5 C 11.5 g/m*3 15.5 C 8.1 km/h
2970 10-09-2020 07:25:00 15.4 C 11.43 g/m*3 15.4 C 6.4 km/h
2971 10-09-2020 07:30:00 15.4 C 11.43 g/m*3 15.4 C 3.2 km/h
2972 10-09-2020 07:35:00 15.4 C 11.43 g/m*3 15.4 C 8.1 km/h
2973 10-09-2020 07:40:00 15.4 C 11.3 g/m*3 15.4 C 4.8 km/h
2974 10-09-2020 07:45:00 15.3 C 11.23 g/m*3 15.3 C 4.8 km/h
2975 10-09-2020 07:50:00 15.3 C 11.23 g/m*3 15.3 C 8.1 km/h
Sensor: Nr:Datum:Temp:Abs-Feuchte:Windchill:Wind:
Aussen-T/F 2976 10-09-2020 07:55:00 15.3 C 11.23 g/m*3 15.3 C 1.6 km/h
2977 10-09-2020 08:00:00 15.3 C 11.23 g/m*3 15.3 C 0 km/h
2978 10-09-2020 08:05:00 15.3 C 11.23 g/m*3 15.3 C 3.2 km/h
2979 10-09-2020 08:10:00 15.3 C 11.23 g/m*3 15.3 C 4.8 km/h
2980 10-09-2020 08:15:00 15.3 C 11.23 g/m*3 15.3 C 1.6 km/h
2981 10-09-2020 08:20:00 15.3 C 11.23 g/m*3 15.3 C 0 km/h
2982 10-09-2020 08:25:00 15.4 C 11.3 g/m*3 15.4 C 4.8 km/h
2983 10-09-2020 08:30:00 15.4 C 11.3 g/m*3 15.4 C 0 km/h
2984 10-09-2020 08:35:00 15.4 C 11.3 g/m*3 15.4 C 4.8 km/h
2985 10-09-2020 08:40:00 15.4 C 11.3 g/m*3 15.4 C 4.8 km/h
2986 10-09-2020 08:45:00 15.4 C 11.3 g/m*3 15.4 C 1.6 km/h
2987 10-09-2020 08:50:00 15.4 C 11.43 g/m*3 15.4 C 0 km/h
2988 10-09-2020 08:55:00 15.4 C 11.43 g/m*3 15.4 C 3.2 km/h
2989 10-09-2020 09:00:00 15.4 C 11.43 g/m*3 15.4 C 1.6 km/h
2990 10-09-2020 09:05:00 15.4 C 11.3 g/m*3 15.4 C 3.2 km/h
2991 10-09-2020 09:10:00 15.4 C 11.43 g/m*3 15.4 C 1.6 km/h
2992 10-09-2020 09:15:00 15.4 C 11.43 g/m*3 15.4 C 4.8 km/h
2993 10-09-2020 09:20:00 15.5 C 11.37 g/m*3 15.5 C 3.2 km/h
2994 10-09-2020 09:25:00 15.5 C 11.37 g/m*3 15.5 C 4.8 km/h
2995 10-09-2020 09:30:00 15.6 C 11.44 g/m*3 15.6 C 4.8 km/h
2996 10-09-2020 09:35:00 15.6 C 11.44 g/m*3 15.6 C 3.2 km/h
2997 10-09-2020 09:40:00 15.7 C 11.37 g/m*3 15.7 C 3.2 km/h
2998 10-09-2020 09:45:00 15.7 C 11.37 g/m*3 15.7 C 1.6 km/h
2999 10-09-2020 09:50:00 15.8 C 11.44 g/m*3 15.8 C 6.4 km/h
3000 10-09-2020 09:55:00 15.8 C 11.31 g/m*3 15.8 C 8.1 km/h
Sensor: Nr:Datum:Temp:Abs-Feuchte:Windchill:Wind:
Aussen-T/F 3001 10-09-2020 10:00:00 15.9 C 11.38 g/m*3 15.9 C 6.4 km/h
3002 10-09-2020 10:05:00 15.8 C 10.9 g/m*3 15.8 C 11.3 km/h
3003 10-09-2020 10:10:00 15.8 C 10.9 g/m*3 15.8 C 6.4 km/h
3004 10-09-2020 10:15:00 15.8 C 10.9 g/m*3 15.8 C 8.1 km/h
3005 10-09-2020 10:20:00 15.8 C 10.9 g/m*3 15.8 C 8.1 km/h
3006 10-09-2020 10:25:00 15.8 C 10.63 g/m*3 15.8 C 9.7 km/h
3007 10-09-2020 10:30:00 15.8 C 10.63 g/m*3 15.8 C 6.4 km/h
3008 10-09-2020 10:35:00 15.9 C 10.83 g/m*3 15.9 C 8.1 km/h
3009 10-09-2020 10:40:00 16.1 C 10.97 g/m*3 16.1 C 4.8 km/h
3010 10-09-2020 10:45:00 16.1 C 10.97 g/m*3 16.1 C 3.2 km/h
3011 10-09-2020 10:50:00 16.2 C 10.76 g/m*3 16.2 C 8.1 km/h
3012 10-09-2020 10:55:00 16.2 C 10.62 g/m*3 16.2 C 0 km/h
3013 10-09-2020 11:00:00 16.3 C 10.68 g/m*3 16.3 C 0 km/h
3014 10-09-2020 11:05:00 16.5 C 10.81 g/m*3 16.5 C 1.6 km/h
3015 10-09-2020 11:10:00 16.6 C 10.88 g/m*3 16.6 C 6.4 km/h
3016 10-09-2020 11:15:00 16.7 C 10.94 g/m*3 16.7 C 3.2 km/h
3017 10-09-2020 11:20:00 16.7 C 10.94 g/m*3 16.7 C 4.8 km/h
3018 10-09-2020 11:25:00 16.8 C 11.01 g/m*3 16.8 C 9.7 km/h
3019 10-09-2020 11:30:00 16.8 C 10.87 g/m*3 16.8 C 9.7 km/h
3020 10-09-2020 11:35:00 16.8 C 10.87 g/m*3 16.8 C 8.1 km/h
3021 10-09-2020 11:40:00 16.8 C 10.72 g/m*3 16.8 C 1.6 km/h
3022 10-09-2020 11:45:00 16.8 C 10.15 g/m*3 16.8 C 8.1 km/h
3023 10-09-2020 11:50:00 16.8 C 10.01 g/m*3 16.8 C 4.8 km/h
3024 10-09-2020 11:55:00 16.8 C 10.15 g/m*3 16.8 C 6.4 km/h
3025 10-09-2020 12:00:00 17.1 C 10.48 g/m*3 17.1 C 6.4 km/h
Sensor: Nr:Datum:Temp:Abs-Feuchte:Windchill:Wind:
Aussen-T/F 3026 10-09-2020 12:05:00 17.2 C 10.4 g/m*3 17.2 C 6.4 km/h
3027 10-09-2020 12:10:00 17.4 C 10.67 g/m*3 17.4 C 6.4 km/h
3028 10-09-2020 12:15:00 17.5 C 10.59 g/m*3 17.5 C 8.1 km/h
3029 10-09-2020 12:20:00 17.8 C 10.62 g/m*3 17.8 C 6.4 km/h
3030 10-09-2020 12:25:00 17.9 C 10.54 g/m*3 17.9 C 9.7 km/h
3031 10-09-2020 12:30:00 18.1 C 10.35 g/m*3 18.1 C 9.7 km/h
3032 10-09-2020 12:35:00 18.2 C 9.95 g/m*3 18.2 C 6.4 km/h
3033 10-09-2020 12:40:00 18.2 C 9.95 g/m*3 18.2 C 3.2 km/h
3034 10-09-2020 12:45:00 18.2 C 10.1 g/m*3 18.2 C 11.3 km/h
3035 10-09-2020 12:50:00 18.2 C 9.79 g/m*3 18.2 C 11.3 km/h
3036 10-09-2020 12:55:00 18.2 C 9.79 g/m*3 18.2 C 1.6 km/h
3037 10-09-2020 13:00:00 18.2 C 9.48 g/m*3 18.2 C 3.2 km/h
3038 10-09-2020 13:05:00 18.2 C 9.64 g/m*3 18.2 C 8.1 km/h
3039 10-09-2020 13:10:00 18.3 C 9.69 g/m*3 18.3 C 8.1 km/h
3040 10-09-2020 13:15:00 18.3 C 9.54 g/m*3 18.3 C 6.4 km/h
3041 10-09-2020 13:20:00 18.3 C 9.38 g/m*3 18.3 C 6.4 km/h
3042 10-09-2020 13:25:00 18.4 C 9.28 g/m*3 18.4 C 8.1 km/h
3043 10-09-2020 13:30:00 18.5 C 9.33 g/m*3 18.5 C 0 km/h
3044 10-09-2020 13:35:00 18.6 C 9.39 g/m*3 18.6 C 4.8 km/h
3045 10-09-2020 13:40:00 18.7 C 9.45 g/m*3 18.7 C 8.1 km/h
3046 10-09-2020 13:45:00 18.9 C 9.56 g/m*3 18.9 C 6.4 km/h
3047 10-09-2020 13:50:00 19 C 9.78 g/m*3 19 C 4.8 km/h
3048 10-09-2020 13:55:00 19.1 C 9.67 g/m*3 19.1 C 6.4 km/h
3049 10-09-2020 14:00:00 19.2 C 9.73 g/m*3 19.2 C 3.2 km/h
3050 10-09-2020 14:05:00 19.2 C 10.06 g/m*3 19.2 C 4.8 km/h
Sensor: Nr:Datum:Temp:Abs-Feuchte:Windchill:Wind:
Aussen-T/F 3051 10-09-2020 14:10:00 19.3 C 9.95 g/m*3 19.3 C 4.8 km/h
3052 10-09-2020 14:15:00 19.4 C 9.84 g/m*3 19.4 C 6.4 km/h
3053 10-09-2020 14:20:00 19.5 C 10.07 g/m*3 19.5 C 9.7 km/h
3054 10-09-2020 14:25:00 19.7 C 10.02 g/m*3 19.7 C 8.1 km/h
3055 10-09-2020 14:30:00 19.7 C 9.85 g/m*3 19.7 C 8.1 km/h
3056 10-09-2020 14:35:00 19.7 C 9.85 g/m*3 19.7 C 0 km/h
3057 10-09-2020 14:40:00 19.8 C 9.91 g/m*3 19.8 C 4.8 km/h
3058 10-09-2020 14:45:00 20 C 10.2 g/m*3 20 C 1.6 km/h
3059 10-09-2020 14:50:00 20.2 C 9.97 g/m*3 20.2 C 8.1 km/h
3060 10-09-2020 14:55:00 20.3 C 10.02 g/m*3 20.3 C 6.4 km/h
3061 10-09-2020 15:00:00 20.3 C 10.02 g/m*3 20.3 C 4.8 km/h
3062 10-09-2020 15:05:00 20.3 C 10.2 g/m*3 20.3 C 1.6 km/h
3063 10-09-2020 15:10:00 20.4 C 10.08 g/m*3 20.4 C 3.2 km/h
3064 10-09-2020 15:15:00 20.6 C 10.2 g/m*3 20.6 C 9.7 km/h
3065 10-09-2020 15:20:00 20.7 C 10.26 g/m*3 20.7 C 6.4 km/h
3066 10-09-2020 15:25:00 20.8 C 10.14 g/m*3 20.8 C 8.1 km/h
3067 10-09-2020 15:30:00 20.9 C 10.2 g/m*3 20.9 C 6.4 km/h
3068 10-09-2020 15:35:00 21 C 10.08 g/m*3 21 C 9.7 km/h
3069 10-09-2020 15:40:00 21.1 C 10.32 g/m*3 21.1 C 4.8 km/h
3070 10-09-2020 15:45:00 21.2 C 10.19 g/m*3 21.2 C 8.1 km/h
3071 10-09-2020 15:50:00 21.3 C 10.07 g/m*3 21.3 C 11.3 km/h
3072 10-09-2020 15:55:00 21.5 C 10.18 g/m*3 21.5 C 11.3 km/h
3073 10-09-2020 16:00:00 21.6 C 10.24 g/m*3 21.6 C 8.1 km/h
3074 10-09-2020 16:05:00 21.7 C 10.3 g/m*3 21.7 C 12.9 km/h
3075 10-09-2020 16:10:00 21.8 C 10.36 g/m*3 21.8 C 8.1 km/h
Sensor: Nr:Datum:Temp:Abs-Feuchte:Windchill:Wind:
Aussen-T/F 3076 10-09-2020 16:15:00 21.8 C 10.36 g/m*3 21.8 C 6.4 km/h
3077 10-09-2020 16:20:00 21.9 C 10.42 g/m*3 21.9 C 4.8 km/h
3078 10-09-2020 16:25:00 22.1 C 10.35 g/m*3 22.1 C 3.2 km/h
3079 10-09-2020 16:30:00 22.1 C 10.15 g/m*3 22.1 C 8.1 km/h
3080 10-09-2020 16:35:00 22.2 C 10.6 g/m*3 22.2 C 4.8 km/h
3081 10-09-2020 16:40:00 22.3 C 10.27 g/m*3 22.3 C 9.7 km/h
3082 10-09-2020 16:45:00 22.4 C 10.13 g/m*3 22.4 C 8.1 km/h
3083 10-09-2020 16:50:00 22.5 C 10.19 g/m*3 22.5 C 11.3 km/h
3084 10-09-2020 16:55:00 22.4 C 10.33 g/m*3 22.4 C 6.4 km/h
3085 10-09-2020 17:00:00 22.5 C 10.19 g/m*3 22.5 C 9.7 km/h
3086 10-09-2020 17:05:00 22.4 C 10.13 g/m*3 22.4 C 9.7 km/h
3087 10-09-2020 17:10:00 22.3 C 10.27 g/m*3 22.3 C 6.4 km/h
3088 10-09-2020 17:15:00 22.2 C 10.21 g/m*3 22.2 C 9.7 km/h
3089 10-09-2020 17:20:00 22.4 C 10.33 g/m*3 22.4 C 9.7 km/h
3090 10-09-2020 17:25:00 22.8 C 10.36 g/m*3 22.8 C 4.8 km/h
3091 10-09-2020 17:30:00 22.9 C 10.42 g/m*3 22.9 C 8.1 km/h
3092 10-09-2020 17:35:00 23 C 10.48 g/m*3 23 C 9.7 km/h
3093 10-09-2020 17:40:00 23.1 C 10.13 g/m*3 23.1 C 8.1 km/h
3094 10-09-2020 17:45:00 23 C 10.28 g/m*3 23 C 9.7 km/h
3095 10-09-2020 17:50:00 23.1 C 10.34 g/m*3 23.1 C 9.7 km/h
3096 10-09-2020 17:55:00 23.1 C 10.13 g/m*3 23.1 C 8.1 km/h
3097 10-09-2020 18:00:00 23.1 C 10.34 g/m*3 23.1 C 4.8 km/h
3098 10-09-2020 18:05:00 23.1 C 10.34 g/m*3 23.1 C 6.4 km/h
3099 10-09-2020 18:10:00 22.9 C 10.01 g/m*3 22.9 C 8.1 km/h
3100 10-09-2020 18:15:00 22.7 C 10.51 g/m*3 22.7 C 4.8 km/h
Sensor: Nr:Datum:Temp:Abs-Feuchte:Windchill:Wind:
Aussen-T/F 3101 10-09-2020 18:20:00 22.6 C 10.25 g/m*3 22.6 C 8.1 km/h
3102 10-09-2020 18:25:00 22.4 C 10.13 g/m*3 22.4 C 8.1 km/h
3103 10-09-2020 18:30:00 22.3 C 10.27 g/m*3 22.3 C 6.4 km/h
3104 10-09-2020 18:35:00 22.3 C 10.27 g/m*3 22.3 C 6.4 km/h
3105 10-09-2020 18:40:00 22.2 C 10.41 g/m*3 22.2 C 4.8 km/h
3106 10-09-2020 18:45:00 22.2 C 10.21 g/m*3 22.2 C 0 km/h
3107 10-09-2020 18:50:00 21.9 C 10.23 g/m*3 21.9 C 0 km/h
3108 10-09-2020 18:55:00 21.7 C 9.92 g/m*3 21.7 C 4.8 km/h
3109 10-09-2020 19:00:00 21.5 C 9.99 g/m*3 21.5 C 0 km/h
3110 10-09-2020 19:05:00 21.3 C 9.88 g/m*3 21.3 C 4.8 km/h
3111 10-09-2020 19:10:00 21.2 C 9.82 g/m*3 21.2 C 3.2 km/h
3112 10-09-2020 19:15:00 21.1 C 9.77 g/m*3 21.1 C 6.4 km/h
3113 10-09-2020 19:20:00 21 C 9.71 g/m*3 21 C 4.8 km/h
3114 10-09-2020 19:25:00 20.9 C 9.65 g/m*3 20.9 C 0 km/h
3115 10-09-2020 19:30:00 20.8 C 9.78 g/m*3 20.8 C 0 km/h
3116 10-09-2020 19:35:00 20.7 C 9.54 g/m*3 20.7 C 4.8 km/h
3117 10-09-2020 19:40:00 20.6 C 9.49 g/m*3 20.6 C 0 km/h
3118 10-09-2020 19:45:00 20.4 C 10.08 g/m*3 20.4 C 0 km/h
3119 10-09-2020 19:50:00 20.3 C 10.02 g/m*3 20.3 C 0 km/h
3120 10-09-2020 19:55:00 19.9 C 9.79 g/m*3 19.9 C 0 km/h
3121 10-09-2020 20:00:00 19.6 C 9.28 g/m*3 19.6 C 0 km/h
3122 10-09-2020 20:05:00 19.3 C 9.79 g/m*3 19.3 C 0 km/h
3123 10-09-2020 20:10:00 18.9 C 9.4 g/m*3 18.9 C 0 km/h
3124 10-09-2020 20:15:00 18.4 C 9.28 g/m*3 18.4 C 0 km/h
3125 10-09-2020 20:20:00 18 C 9.37 g/m*3 18 C 0 km/h
Sensor: Nr:Datum:Temp:Abs-Feuchte:Windchill:Wind:
Aussen-T/F 3126 10-09-2020 20:25:00 17.6 C 9.15 g/m*3 17.6 C 0 km/h
3127 10-09-2020 20:30:00 17.3 C 9.13 g/m*3 17.3 C 0 km/h
3128 10-09-2020 20:35:00 16.9 C 9.06 g/m*3 16.9 C 6.4 km/h
3129 10-09-2020 20:40:00 16.8 C 9.29 g/m*3 16.8 C 0 km/h
3130 10-09-2020 20:45:00 16.6 C 9.04 g/m*3 16.6 C 0 km/h
3131 10-09-2020 20:50:00 16.4 C 9.07 g/m*3 16.4 C 4.8 km/h
3132 10-09-2020 20:55:00 16.3 C 9.02 g/m*3 16.3 C 4.8 km/h
3133 10-09-2020 21:00:00 16.2 C 8.96 g/m*3 16.2 C 0 km/h
3134 10-09-2020 21:05:00 16 C 8.99 g/m*3 16 C 3.2 km/h
3135 10-09-2020 21:10:00 15.9 C 9.07 g/m*3 15.9 C 0 km/h
3136 10-09-2020 21:15:00 15.8 C 8.88 g/m*3 15.8 C 6.4 km/h
3137 10-09-2020 21:20:00 15.7 C 8.83 g/m*3 15.7 C 4.8 km/h
3138 10-09-2020 21:25:00 15.7 C 8.96 g/m*3 15.7 C 6.4 km/h
3139 10-09-2020 21:30:00 15.6 C 8.91 g/m*3 15.6 C 3.2 km/h
3140 10-09-2020 21:35:00 15.5 C 8.99 g/m*3 15.5 C 4.8 km/h
3141 10-09-2020 21:40:00 15.4 C 9.07 g/m*3 15.4 C 3.2 km/h
3142 10-09-2020 21:45:00 15.3 C 9.01 g/m*3 15.3 C 0 km/h
3143 10-09-2020 21:50:00 15.2 C 9.09 g/m*3 15.2 C 0 km/h
3144 10-09-2020 21:55:00 15 C 8.98 g/m*3 15 C 6.4 km/h
3145 10-09-2020 22:00:00 14.9 C 8.92 g/m*3 14.9 C 4.8 km/h
3146 10-09-2020 22:05:00 14.8 C 8.99 g/m*3 14.8 C 0 km/h
3147 10-09-2020 22:10:00 14.8 C 9.12 g/m*3 14.8 C 0 km/h
3148 10-09-2020 22:15:00 14.7 C 9.07 g/m*3 14.7 C 0 km/h
3149 10-09-2020 22:20:00 14.6 C 9.13 g/m*3 14.6 C 0 km/h
3150 10-09-2020 22:25:00 14.4 C 9.02 g/m*3 14.4 C 0 km/h
Sensor: Nr:Datum:Temp:Abs-Feuchte:Windchill:Wind:
Aussen-T/F 3151 10-09-2020 22:30:00 14.3 C 8.97 g/m*3 14.3 C 0 km/h
3152 10-09-2020 22:35:00 14.2 C 9.04 g/m*3 14.2 C 0 km/h
3153 10-09-2020 22:40:00 14.1 C 9.1 g/m*3 14.1 C 0 km/h
3154 10-09-2020 22:45:00 13.8 C 8.94 g/m*3 13.8 C 0 km/h
3155 10-09-2020 22:50:00 13.7 C 8.88 g/m*3 13.7 C 0 km/h
3156 10-09-2020 22:55:00 13.6 C 8.94 g/m*3 13.6 C 0 km/h
3157 10-09-2020 23:00:00 13.4 C 8.83 g/m*3 13.4 C 0 km/h
3158 10-09-2020 23:05:00 13.3 C 8.9 g/m*3 13.3 C 0 km/h
3159 10-09-2020 23:10:00 13.2 C 8.84 g/m*3 13.2 C 0 km/h
3160 10-09-2020 23:15:00 12.9 C 8.68 g/m*3 12.9 C 0 km/h
3161 10-09-2020 23:20:00 12.8 C 8.74 g/m*3 12.8 C 0 km/h
3162 10-09-2020 23:25:00 12.7 C 8.79 g/m*3 12.7 C 0 km/h
3163 10-09-2020 23:30:00 12.6 C 8.74 g/m*3 12.6 C 0 km/h
3164 10-09-2020 23:35:00 12.4 C 8.63 g/m*3 12.4 C 0 km/h
3165 10-09-2020 23:40:00 12.4 C 8.74 g/m*3 12.4 C 0 km/h
3166 10-09-2020 23:45:00 12.3 C 8.69 g/m*3 12.3 C 0 km/h
3167 10-09-2020 23:50:00 12.2 C 8.63 g/m*3 12.2 C 0 km/h
3168 10-09-2020 23:55:00 12.2 C 8.74 g/m*3 12.2 C 0 km/h
3169 11-09-2020 00:00:00 12.1 C 8.79 g/m*3 12.1 C 0 km/h
3170 11-09-2020 00:05:00 12.1 C 8.69 g/m*3 12.1 C 0 km/h
3171 11-09-2020 00:10:00 12 C 8.74 g/m*3 12 C 0 km/h
3172 11-09-2020 00:15:00 11.9 C 8.68 g/m*3 11.9 C 0 km/h
3173 11-09-2020 00:20:00 11.9 C 8.68 g/m*3 11.9 C 0 km/h
3174 11-09-2020 00:25:00 12 C 8.74 g/m*3 12 C 0 km/h
3175 11-09-2020 00:30:00 12.1 C 8.79 g/m*3 12.1 C 0 km/h
Sensor: Nr:Datum:Temp:Abs-Feuchte:Windchill:Wind:
Aussen-T/F 3176 11-09-2020 00:35:00 12.1 C 8.79 g/m*3 12.1 C 0 km/h
3177 11-09-2020 00:40:00 12.2 C 8.85 g/m*3 12.2 C 0 km/h
3178 11-09-2020 00:45:00 12.2 C 8.85 g/m*3 12.2 C 0 km/h
3179 11-09-2020 00:50:00 12.2 C 8.85 g/m*3 12.2 C 0 km/h
3180 11-09-2020 00:55:00 12.2 C 8.85 g/m*3 12.2 C 0 km/h
3181 11-09-2020 01:00:00 12.2 C 8.85 g/m*3 12.2 C 0 km/h
3182 11-09-2020 01:05:00 12.1 C 8.79 g/m*3 12.1 C 0 km/h
3183 11-09-2020 01:10:00 12 C 8.74 g/m*3 12 C 0 km/h
3184 11-09-2020 01:15:00 12 C 8.74 g/m*3 12 C 0 km/h
3185 11-09-2020 01:20:00 12 C 8.85 g/m*3 12 C 0 km/h
3186 11-09-2020 01:25:00 12.1 C 8.9 g/m*3 12.1 C 0 km/h
3187 11-09-2020 01:30:00 12 C 8.85 g/m*3 12 C 0 km/h
3188 11-09-2020 01:35:00 12 C 8.85 g/m*3 12 C 0 km/h
3189 11-09-2020 01:40:00 11.9 C 8.79 g/m*3 11.9 C 0 km/h
3190 11-09-2020 01:45:00 11.8 C 8.74 g/m*3 11.8 C 0 km/h
3191 11-09-2020 01:50:00 11.7 C 8.68 g/m*3 11.7 C 0 km/h
3192 11-09-2020 01:55:00 11.6 C 8.63 g/m*3 11.6 C 0 km/h
3193 11-09-2020 02:00:00 11.4 C 8.52 g/m*3 11.4 C 0 km/h
3194 11-09-2020 02:05:00 11.3 C 8.57 g/m*3 11.3 C 0 km/h
3195 11-09-2020 02:10:00 11.3 C 8.57 g/m*3 11.3 C 0 km/h
3196 11-09-2020 02:15:00 11.2 C 8.51 g/m*3 11.2 C 0 km/h
3197 11-09-2020 02:20:00 11.2 C 8.62 g/m*3 11.2 C 0 km/h
3198 11-09-2020 02:25:00 11.1 C 8.56 g/m*3 11.1 C 0 km/h
3199 11-09-2020 02:30:00 11.1 C 8.56 g/m*3 11.1 C 0 km/h
3200 11-09-2020 02:35:00 11 C 8.51 g/m*3 11 C 0 km/h
Sensor: Nr:Datum:Temp:Abs-Feuchte:Windchill:Wind:
Aussen-T/F 3201 11-09-2020 02:40:00 10.9 C 8.45 g/m*3 10.9 C 0 km/h
3202 11-09-2020 02:45:00 10.8 C 8.5 g/m*3 10.8 C 0 km/h
3203 11-09-2020 02:50:00 10.7 C 8.45 g/m*3 10.7 C 0 km/h
3204 11-09-2020 02:55:00 10.7 C 8.45 g/m*3 10.7 C 0 km/h
3205 11-09-2020 03:00:00 10.6 C 8.39 g/m*3 10.6 C 0 km/h
3206 11-09-2020 03:05:00 10.4 C 8.29 g/m*3 10.4 C 0 km/h
3207 11-09-2020 03:10:00 10.4 C 8.38 g/m*3 10.4 C 0 km/h
3208 11-09-2020 03:15:00 10.3 C 8.33 g/m*3 10.3 C 0 km/h
3209 11-09-2020 03:20:00 10.3 C 8.33 g/m*3 10.3 C 0 km/h
3210 11-09-2020 03:25:00 10.3 C 8.43 g/m*3 10.3 C 0 km/h
3211 11-09-2020 03:30:00 10.2 C 8.37 g/m*3 10.2 C 0 km/h
3212 11-09-2020 03:35:00 10.2 C 8.37 g/m*3 10.2 C 0 km/h
3213 11-09-2020 03:40:00 10.1 C 8.32 g/m*3 10.1 C 0 km/h
3214 11-09-2020 03:45:00 10.1 C 8.32 g/m*3 10.1 C 0 km/h </